[[{"header":{"parameterUnit":"m.s-1","parameterCategory":1,"la1":31.0,"la2":29.5877,"lo1":-88.7671,"lo2":-86.6584,"dy":0.0162,"dx":0.0185,"nx":115,"ny":88,"refTime":"2023-06-07T18:00:00:Z","depth":0,"parameterNumber":2,"parameterNumberName":"U-component_of_WINDS"},"data":[0.0,0.0,0.0,0.0,0.0,0.0,0.0,0.0,0.0,0.0,0.0,0.0,0.0,0.0,0.0,0.0,0.0,0.0,0.0,0.0,0.0,0.0,0.0,0.0,0.0,0.0,0.0,0.0,0.0,0.0,0.0,0.0,0.0,0.0,0.0,0.0,0.0,0.0,0.0,0.0,0.0,0.0,0.0,0.0,0.0,0.0,0.0,0.0,0.0,0.0,0.0,0.0,0.0,0.0,0.0,0.0,0.0,0.0,0.0,0.0,0.0,0.0,0.0,0.0,0.0,0.0,0.0,0.0,0.0,0.0,0.0,0.0,0.0,0.0,0.0,0.0,0.0,0.0,0.0,0.0,0.0,0.0,0.0,0.0,0.0,0.0,0.0,0.0,0.0,0.0,0.0,0.0,0.0,0.0,0.0,0.0,0.0,0.0,0.0,0.0,0.0,0.0,0.0,0.0,0.0,0.0,0.0,0.0,0.0,0.0,0.0,0.0,0.0,0.0,0.0,0.0,0.0,0.0,0.0,0.0,0.0,0.0,0.0,0.0,0.0,0.0,0.0,0.0,0.0,0.0,0.0,0.0,0.0,0.0,0.0,0.0,0.0,0.0,0.0,0.0,0.0,0.0,0.0,0.0,0.0,0.0,0.0,0.0,0.0,0.0,0.0,0.0,0.0,0.0,0.0,0.0,0.0,0.0,0.0,0.0,0.0,0.0,0.0,0.0,0.0,0.0,0.0,0.0,0.0,0.0,0.0,0.0,0.0,0.0,0.0,0.0,0.0,0.0,0.0,0.0,0.0,0.0,0.0,0.0,0.0,0.0,0.0,0.0,0.0,0.0,0.0,0.0,0.0,0.0,0.0,0.0,0.0,0.0,0.0,0.0,0.0,0.0,0.0,0.0,0.0,0.0,0.0,0.0,0.0,0.0,0.0,0.0,0.0,0.0,0.0,0.0,0.0,0.0,0.0,0.0,0.0,0.0,0.0,0.0,0.0,0.0,0.0,0.0,0.0,0.0,0.0,0.0,0.0,0.0,0.0,0.0,0.0,0.0,0.0,0.0,0.0,0.0,0.0,0.0,0.0,0.0,0.0,0.0,0.0,0.0,0.0,0.0,0.0,0.0,0.0,0.0,0.0,0.0,0.0,0.0,0.0,0.0,0.0,0.0,0.0,0.0,0.0,0.0,0.0,0.0,0.0,0.0,0.0,0.0,0.0,0.0,0.0,0.0,0.0,0.0,0.0,0.0,0.0,0.0,0.0,0.0,0.0,0.0,0.0,0.0,0.0,0.0,0.0,0.0,0.0,0.0,0.0,0.0,0.0,0.0,0.0,0.0,0.0,0.0,0.0,0.0,0.0,0.0,0.0,0.0,0.0,0.0,0.0,0.0,0.0,0.0,0.0,0.0,0.0,0.0,0.0,0.0,0.0,0.0,0.0,0.0,0.0,0.0,0.0,0.0,0.0,0.0,0.0,0.0,0.0,0.0,0.0,0.0,0.0,0.0,0.0,0.0,0.0,0.0,0.0,0.0,0.0,0.0,0.0,0.0,0.0,0.0,0.0,0.0,0.0,0.0,0.0,0.0,0.0,0.0,0.0,0.0,0.0,0.0,0.0,0.0,0.0,0.0,0.0,0.0,0.0,0.0,0.0,0.0,0.0,0.0,0.0,0.0,0.0,0.0,0.0,0.0,0.0,0.0,0.0,0.0,0.0,0.0,0.0,0.0,0.0,0.0,0.0,0.0,0.0,0.0,0.0,0.0,0.0,0.0,0.0,0.0,0.0,0.0,0.0,0.0,0.0,0.0,0.0,0.0,0.0,0.0,0.0,0.0,0.0,0.0,0.0,0.0,0.0,0.0,0.0,0.0,0.0,0.0,0.0,0.0,0.0,0.0,0.0,0.0,0.0,0.0,0.0,0.0,0.0,0.0,0.0,0.0,0.0,0.0,0.0,0.0,0.0,0.0,0.0,0.0,0.0,0.0,0.0,0.0,0.0,0.0,0.0,0.0,0.0,0.0,0.0,0.0,0.0,0.0,0.0,0.0,0.0,0.0,0.0,0.0,0.0,0.0,0.0,0.0,0.0,0.0,0.0,0.0,0.0,0.0,0.0,0.0,0.0,0.0,0.0,0.0,0.0,0.0,0.0,0.0,0.0,0.0,0.0,0.0,0.0,0.0,0.0,0.0,0.0,0.0,0.0,0.0,0.0,0.0,0.0,0.0,0.0,0.0,0.0,0.0,0.0,0.0,0.0,0.0,0.0,0.0,0.0,0.0,0.0,0.0,0.0,0.0,0.0,0.0,0.0,0.0,0.0,0.0,0.0,0.0,0.0,0.0,0.0,0.0,0.0,0.0,0.0,0.0,0.0,0.0,0.0,0.0,0.0,0.0,0.0,0.0,0.0,0.0,0.0,0.0,0.0,0.0,0.0,0.0,0.0,0.0,0.0,0.0,0.0,0.0,0.0,0.0,0.0,0.0,0.0,0.0,0.0,0.0,0.0,0.0,0.0,0.0,0.0,0.0,0.0,0.0,0.0,0.0,0.0,0.0,0.0,0.0,0.0,0.0,0.0,0.0,0.0,0.0,0.0,0.0,0.0,0.0,0.0,0.0,0.0,0.0,0.0,0.0,0.0,0.0,0.0,0.0,0.0,0.0,0.0,0.0,0.0,0.0,0.0,0.0,0.0,0.0,0.0,0.0,0.0,0.0,0.0,0.0,0.0,0.0,0.0,0.0,0.0,0.0,0.0,0.0,0.0,0.0,0.0,0.0,0.0,0.0,0.0,0.0,0.0,0.0,0.0,0.0,0.0,0.0,0.0,0.0,0.0,0.0,0.0,0.0,0.0,0.0,0.0,0.0,0.0,0.0,0.0,0.0,0.0,0.0,0.0,0.0,0.0,0.0,0.0,0.0,0.0,0.0,0.0,0.0,0.0,0.0,0.0,0.0,0.0,0.0,0.0,0.0,0.0,0.0,0.0,0.0,0.0,0.0,0.0,0.0,0.0,0.0,0.0,0.0,0.0,0.0,0.0,0.0,0.0,0.0,0.0,0.0,0.0,0.0,0.0,0.0,0.0,0.0,0.0,0.0,0.0,0.0,0.0,0.0,0.0,0.0,0.0,0.0,0.0,0.0,0.0,0.0,0.0,0.0,0.0,0.0,0.0,0.0,0.0,0.0,0.0,0.0,0.0,0.0,0.0,0.0,0.0,0.0,0.0,0.0,0.0,0.0,0.0,0.0,0.0,0.0,0.0,0.0,0.0,0.0,0.0,0.0,0.0,0.0,0.0,0.0,0.0,0.0,0.0,0.0,0.0,0.0,0.0,0.0,0.0,0.0,0.0,0.0,0.0,0.0,0.0,0.0,0.0,0.0,0.0,0.0,0.0,0.0,0.0,0.0,0.0,0.0,0.0,0.0,0.0,0.0,0.0,0.0,0.0,0.0,0.0,0.0,0.0,0.0,0.0,0.0,0.0,0.0,0.0,0.0,0.0,0.0,0.0,0.0,0.0,0.0,0.0,0.0,0.0,0.0,0.0,0.0,0.0,0.0,0.0,0.0,0.0,0.0,0.0,0.0,0.0,0.0,0.0,0.0,0.0,0.0,0.0,0.0,0.0,0.0,0.0,0.0,0.0,0.0,0.0,0.0,0.0,0.0,0.0,0.0,0.0,0.0,0.0,0.0,0.0,0.0,0.0,0.0,0.0,0.0,0.0,0.0,0.0,0.0,0.0,0.0,0.0,0.0,0.0,0.0,0.0,0.0,0.0,0.0,0.0,0.0,0.0,0.0,0.0,0.0,0.0,0.0,0.0,0.0,0.0,0.0,0.0,0.0,0.0,0.0,0.0,0.0,0.0,0.0,0.0,0.0,0.0,0.0,0.0,0.0,0.0,0.0,0.0,0.0,0.0,0.0,0.0,0.0,0.0,0.0,0.0,0.0,0.0,0.0,0.0,0.0,0.0,0.0,0.0,0.0,0.0,0.0,0.0,0.0,0.0,0.0,0.0,0.0,0.0,0.0,0.0,0.0,0.0,0.0,0.0,0.0,0.0,0.0,0.0,0.0,0.0,0.0,0.0,0.0,0.0,0.0,0.0,0.0,0.0,0.0,0.0,0.0,0.0,0.0,0.0,0.0,0.0,0.0,0.0,0.0,0.0,0.0,0.0,0.0,0.0,0.0,0.0,0.0,0.0,0.0,0.0,0.0,0.0,0.0,0.0,0.0,0.0,0.0,0.0,0.0,0.0,0.0,0.0,0.0,0.0,0.0,0.0,0.0,1.4808,0.0,0.0,0.0,0.0,0.0,0.0,0.0,0.0,0.0,0.0,0.0,0.0,0.0,0.0,0.0,0.0,0.0,0.0,0.0,0.0,0.0,0.0,0.0,0.0,0.0,0.0,0.0,0.0,0.0,0.0,0.0,0.0,0.0,0.0,0.0,0.0,0.0,0.0,0.0,0.0,0.0,0.0,0.0,0.0,0.0,0.0,0.0,0.0,0.0,0.0,0.0,0.0,0.0,0.0,0.0,0.0,0.0,0.0,0.0,0.0,0.0,0.0,0.0,0.0,0.0,0.0,0.0,0.0,0.0,0.0,0.0,0.0,0.0,0.0,0.0,0.0,0.0,0.0,0.0,0.0,0.0,0.0,0.0,0.0,0.0,0.0,0.0,0.0,0.0,0.0,0.0,0.0,0.0,0.0,0.0,0.0,0.0,0.0,0.0,0.0,0.0,0.0,0.0,0.0,0.0,0.0,0.0,0.0,0.0,0.0,1.5443,1.5393,1.5703,1.5703,1.5314,0.0,0.0,0.0,0.0,0.0,0.0,0.0,0.0,0.0,0.0,0.0,0.0,0.0,0.0,0.0,0.0,0.0,0.0,0.0,0.0,0.0,0.0,0.0,0.0,0.0,0.0,0.0,0.0,0.0,0.0,0.0,0.0,0.0,0.0,0.0,0.0,0.0,0.0,0.0,0.0,0.0,0.0,0.0,0.0,0.0,0.0,0.0,0.0,0.0,0.0,0.0,0.0,0.0,0.0,0.0,0.0,0.0,0.0,0.0,0.0,0.0,0.0,0.0,0.0,0.0,0.0,0.0,0.0,0.0,0.0,0.0,0.0,0.0,0.0,0.0,0.0,0.0,0.0,0.0,0.0,0.0,0.0,0.0,0.0,0.0,0.0,0.0,0.0,0.0,0.0,0.0,0.0,0.0,0.0,0.0,0.0,0.0,0.0,0.0,0.0,0.0,0.0,0.0,0.0,0.0,0.0,0.0,0.0,0.0,0.0,0.0,0.0,1.6596,1.6527,1.5946,0.0,0.0,0.0,0.0,0.0,0.0,0.0,0.0,0.0,0.0,0.0,0.0,0.0,0.0,0.0,0.0,0.0,0.0,0.0,0.0,0.0,0.0,0.0,0.0,0.0,0.0,0.0,0.0,0.0,0.0,0.0,0.0,0.0,0.0,0.0,0.0,0.0,0.0,0.0,0.0,0.0,0.0,0.0,0.0,0.0,0.0,0.0,0.0,0.0,0.0,0.0,0.0,0.0,0.0,0.0,0.0,0.0,0.0,0.0,0.0,0.0,0.0,0.0,0.0,0.0,0.0,0.0,0.0,0.0,0.0,0.0,0.0,0.0,0.0,0.0,0.0,0.0,0.0,0.0,0.0,0.0,0.0,0.0,0.0,0.0,0.0,0.0,0.0,0.0,0.0,0.0,0.0,0.0,0.0,0.0,0.0,0.0,0.0,0.0,0.0,0.0,0.0,0.0,0.0,0.0,0.0,0.0,0.0,0.0,0.0,1.6918,1.6898,1.6844,0.0,1.6564,0.0,0.0,0.0,0.0,0.0,0.0,0.0,0.0,0.0,0.0,0.0,0.0,0.0,0.0,0.0,0.0,0.0,0.0,0.0,0.0,0.0,0.0,0.0,0.0,0.0,0.0,0.0,0.0,0.0,0.0,0.0,0.0,0.0,0.0,0.0,0.0,0.0,0.0,0.0,0.0,0.0,0.0,0.0,0.0,0.0,0.0,0.0,0.0,0.0,0.0,0.0,0.0,0.0,0.0,0.0,0.0,0.0,0.0,0.0,0.0,0.0,0.0,0.0,0.0,0.0,0.0,0.0,0.0,0.0,0.0,0.0,0.0,0.0,0.0,0.0,0.0,0.0,0.0,0.0,0.0,0.0,0.0,0.0,0.0,0.0,0.0,0.0,0.0,0.0,0.0,0.0,0.0,0.0,0.0,0.0,0.0,0.0,0.0,0.0,0.0,0.0,0.0,0.0,0.0,0.0,0.0,0.0,0.0,0.0,0.0,1.7669,1.7605,1.7519,1.7413,0.0,0.0,0.0,0.0,0.0,0.0,0.0,0.0,0.0,0.0,0.0,0.0,0.0,0.0,0.0,0.0,0.0,0.0,0.0,0.0,0.0,0.0,0.0,0.0,0.0,0.0,0.0,0.0,0.0,0.0,0.0,0.0,0.0,0.0,0.0,0.0,0.0,0.0,0.0,0.0,0.0,0.0,0.0,0.0,0.0,0.0,0.0,0.0,0.0,0.0,0.0,0.0,0.0,0.0,0.0,0.0,0.0,0.0,0.0,0.0,0.0,0.0,0.0,0.0,0.0,0.0,0.0,0.0,0.0,0.0,0.0,0.0,0.0,0.0,0.0,0.0,0.0,0.0,0.0,0.0,0.0,0.0,0.0,0.0,0.0,0.0,0.0,0.0,0.0,0.0,0.0,0.0,0.0,0.0,0.0,0.0,0.0,0.0,0.0,0.0,0.0,0.0,0.0,0.0,0.0,0.0,0.0,0.0,0.0,0.0,1.8201,1.8412,1.8273,1.8251,1.8149,1.7987,0.0,0.0,0.0,0.0,0.0,0.0,0.0,0.0,0.0,0.0,0.0,0.0,0.0,0.0,0.0,0.0,0.0,0.0,0.0,0.0,0.0,0.0,0.0,0.0,0.0,0.0,0.0,0.0,0.0,0.0,0.0,0.0,0.0,0.0,0.0,0.0,0.0,0.0,0.0,0.0,0.0,0.0,0.0,0.0,0.0,0.0,0.0,0.0,0.0,0.0,0.0,0.0,0.0,0.0,0.0,0.0,0.0,0.0,0.0,0.0,0.0,0.0,0.0,0.0,0.0,0.0,0.0,0.0,0.0,0.0,0.0,0.0,0.0,0.0,0.0,0.0,0.0,0.0,0.0,0.0,0.0,0.0,0.0,0.0,0.0,0.0,0.0,0.0,0.0,0.0,0.0,0.0,0.0,0.0,0.0,0.0,0.0,0.0,0.0,0.0,0.0,0.0,0.0,0.0,0.0,0.0,0.0,0.0,1.897,1.9029,1.9035,1.8936,1.895,1.8898,0.0,0.0,0.0,0.0,0.0,0.0,0.0,0.0,0.0,0.0,0.0,0.0,0.0,0.0,0.0,0.0,0.0,0.0,0.0,0.0,0.0,0.0,0.0,0.0,0.0,0.0,0.0,0.0,0.0,0.0,0.0,0.0,0.0,0.0,0.0,0.0,0.0,0.0,0.0,0.0,0.0,0.0,0.0,0.0,0.0,0.0,0.0,0.0,0.0,0.0,0.0,0.0,0.0,0.0,0.0,0.0,0.0,0.0,0.0,0.0,0.0,0.0,0.0,0.0,0.0,0.0,0.0,0.0,0.0,0.0,0.0,0.0,0.0,0.0,0.0,0.0,0.0,0.0,0.0,0.0,0.0,0.0,0.0,0.0,0.0,0.0,0.0,0.0,0.0,0.0,0.0,0.0,0.0,0.0,0.0,0.0,0.0,0.0,0.0,0.0,0.0,0.0,0.0,0.0,0.0,0.0,0.0,0.0,0.0,1.9199,1.9213,1.9176,1.9078,1.9078,1.9003,0.0,0.0,0.0,0.0,0.0,0.0,0.0,0.0,0.0,0.0,0.0,0.0,0.0,0.0,0.0,0.0,0.0,0.0,0.0,0.0,0.0,0.0,0.0,0.0,0.0,0.0,0.0,0.0,0.0,0.0,0.0,0.0,0.0,0.0,0.0,0.0,0.0,0.0,0.0,0.0,0.0,0.0,0.0,0.0,0.0,0.0,0.0,0.0,0.0,0.0,0.0,0.0,0.0,0.0,0.0,0.0,0.0,0.0,0.0,0.0,0.0,0.0,0.0,0.0,0.0,0.0,0.0,0.0,0.0,0.0,0.0,0.0,0.0,0.0,0.0,0.0,0.0,0.0,0.0,0.0,0.0,0.0,0.0,0.0,0.0,0.0,0.0,0.0,0.0,0.0,0.0,0.0,0.0,0.0,0.0,0.0,0.0,0.0,0.0,0.0,0.0,0.0,0.0,0.0,0.0,0.0,0.0,0.0,0.0,1.9228,0.0,1.9191,1.9101,1.9116,1.9064,0.0,0.0,0.0,0.0,0.0,0.0,0.0,0.0,0.0,0.0,0.0,0.0,0.0,0.0,0.0,0.0,0.0,0.0,0.0,0.0,0.0,0.0,0.0,0.0,0.0,0.0,0.0,0.0,0.0,0.0,0.0,0.0,0.0,0.0,0.0,0.0,0.0,0.0,0.0,0.0,0.0,0.0,0.0,0.0,0.0,0.0,0.0,0.0,0.0,0.0,0.0,0.0,0.0,0.0,0.0,0.0,0.0,0.0,0.0,0.0,0.0,0.0,0.0,0.0,0.0,0.0,0.0,0.0,0.0,0.0,0.0,0.0,0.0,0.0,0.0,0.0,0.0,0.0,0.0,0.0,0.0,0.0,0.0,0.0,0.0,0.0,0.0,0.0,0.0,0.0,0.0,0.0,0.0,0.0,0.0,0.0,0.0,0.0,0.0,0.0,0.0,0.0,0.0,0.0,0.0,0.0,0.0,0.0,1.9101,1.9101,1.9101,1.9101,1.9116,1.9116,1.9116,0.0,0.0,0.0,0.0,0.0,0.0,0.0,0.0,0.0,0.0,0.0,0.0,0.0,0.0,0.0,0.0,0.0,0.0,0.0,0.0,0.0,0.0,0.0,0.0,0.0,0.0,0.0,0.0,0.0,0.0,0.0,0.0,0.0,0.0,0.0,0.0,0.0,0.0,0.0,0.0,0.0,0.0,0.0,0.0,0.0,0.0,0.0,0.0,0.0,0.0,0.0,0.0,0.0,0.0,0.0,0.0,0.0,0.0,0.0,0.0,0.0,0.0,0.0,0.0,0.0,0.0,0.0,0.0,0.0,0.0,0.0,0.0,0.0,0.0,0.0,0.0,0.0,0.0,0.0,0.0,0.0,0.0,0.0,0.0,0.0,0.0,0.0,0.0,0.0,0.0,0.0,0.0,0.0,0.0,0.0,0.0,0.0,0.0,0.0,0.0,0.0,0.0,0.0,0.0,0.0,0.0,0.0,0.0,0.0,1.9213,1.9228,1.9176,1.9101,1.9116,1.9116,0.0,0.0,0.0,0.0,0.0,0.0,0.0,0.0,0.0,0.0,0.0,0.0,0.0,0.0,0.0,0.0,0.0,0.0,0.0,0.0,0.0,0.0,0.0,0.0,0.0,0.0,0.0,0.0,0.0,0.0,0.0,0.0,0.0,0.0,0.0,0.0,0.0,0.0,0.0,0.0,0.0,0.0,0.0,0.0,0.0,0.0,0.0,0.0,0.0,0.0,0.0,0.0,0.0,0.0,0.0,0.0,0.0,0.0,0.0,0.0,0.0,0.0,0.0,0.0,0.0,0.0,0.0,0.0,0.0,0.0,0.0,0.0,0.0,0.0,0.0,0.0,0.0,0.0,0.0,0.0,0.0,0.0,0.0,0.0,0.0,0.0,0.0,0.0,0.0,0.0,0.0,0.0,0.0,0.0,0.0,0.0,0.0,0.0,0.0,0.0,0.0,0.0,0.0,0.0,0.0,0.0,0.0,0.0,0.0,1.9213,1.9228,1.9176,1.9116,1.9116,1.9116,1.9116,0.0,0.0,0.0,0.0,0.0,0.0,0.0,0.0,0.0,0.0,0.0,0.0,0.0,0.0,0.0,0.0,0.0,0.0,0.0,0.0,0.0,0.0,0.0,0.0,0.0,0.0,0.0,0.0,0.0,0.0,0.0,0.0,0.0,0.0,0.0,0.0,0.0,0.0,0.0,0.0,0.0,0.0,0.0,0.0,0.0,0.0,0.0,0.0,0.0,0.0,0.0,0.0,0.0,0.0,0.0,0.0,0.0,0.0,0.0,0.0,0.0,0.0,0.0,0.0,0.0,0.0,0.0,0.0,0.0,0.0,0.0,0.0,0.0,0.0,0.0,0.0,0.0,0.0,0.0,0.0,0.0,0.0,0.0,0.0,0.0,0.0,0.0,0.0,0.0,0.0,0.0,0.0,0.0,0.0,0.0,0.0,0.0,0.0,0.0,0.0,0.0,0.0,0.0,0.0,0.0,0.0,0.0,0.0,1.9116,1.9116,1.9101,1.9116,1.9078,1.9101,0.0,0.0,0.0,0.0,0.0,0.0,0.0,0.0,0.0,0.0,0.0,0.0,0.0,0.0,0.0,0.0,0.0,0.0,0.0,0.0,0.0,0.0,0.0,0.0,0.0,0.0,0.0,0.0,0.0,0.0,0.0,0.0,0.0,0.0,0.0,0.0,0.0,0.0,0.0,0.0,0.0,0.0,0.0,0.0,0.0,0.0,0.0,0.0,0.0,0.0,0.0,0.0,0.0,0.0,0.0,0.0,0.0,0.0,0.0,0.0,0.0,0.0,0.0,0.0,0.0,0.0,0.0,0.0,0.0,0.0,0.0,0.0,0.0,0.0,0.0,0.0,0.0,0.0,0.0,0.0,0.0,0.0,0.0,0.0,0.0,0.0,0.0,0.0,0.0,0.0,0.0,0.0,0.0,0.0,0.0,0.0,0.0,0.0,0.0,0.0,0.0,0.0,0.0,0.0,0.0,0.0,0.0,0.0,0.0,1.9017,1.9017,1.9017,1.9017,1.8912,1.8898,0.0,0.0,0.0,0.0,0.0,0.0,0.0,0.0,0.0,0.0,0.0,0.0,0.0,0.0,0.0,0.0,0.0,0.0,0.0,0.0,0.0,0.0,0.0,0.0,0.0,0.0,0.0,0.0,0.0,0.0,0.0,0.0,0.0,0.0,0.0,0.0,0.0,0.0,0.0,0.0,0.0,0.0,0.0,0.0,0.0,0.0,0.0,0.0,0.0,0.0,0.0,0.0,0.0,0.0,0.0,0.0,0.0,0.0,0.0,0.0,0.0,0.0,0.0,0.0,0.0,0.0,0.0,0.0,0.0,0.0,0.0,0.0,0.0,0.0,0.0,0.0,0.0,0.0,0.0,0.0,0.0,0.0,0.0,0.0,0.0,0.0,0.0,0.0,0.0,0.0,0.0,0.0,0.0,0.0,0.0,0.0,0.0,0.0,0.0,0.0,0.0,0.0,0.0,0.0,0.0,0.0,0.0,0.0,1.9078,1.8993,1.8941,1.8903,1.8879,1.8851,1.8822,0.0,0.0,0.0,0.0,0.0,0.0,0.0,0.0,0.0,0.0,0.0,0.0,0.0,0.0,0.0,0.0,0.0,0.0,0.0,0.0,0.0,0.0,0.0,0.0,0.0,0.0,0.0,0.0,0.0,0.0,0.0,0.0,0.0,0.0,0.0,0.0,0.0,0.0,0.0,0.0,0.0,0.0,0.0,0.0,0.0,0.0,0.0,0.0,0.0,0.0,0.0,0.0,0.0,0.0,0.0,0.0,0.0,0.0,0.0,0.0,0.0,0.0,0.0,0.0,0.0,0.0,0.0,0.0,0.0,0.0,0.0,0.0,0.0,0.0,0.0,0.0,0.0,0.0,0.0,0.0,0.0,0.0,0.0,0.0,0.0,0.0,0.0,0.0,0.0,0.0,0.0,0.0,0.0,0.0,0.0,0.0,0.0,0.0,0.0,0.0,0.0,0.0,0.0,0.0,0.0,0.0,0.0,0.0,1.9026,1.8979,1.8836,1.876,1.8659,1.8736,1.8798,0.0,0.0,0.0,0.0,0.0,0.0,0.0,0.0,0.0,0.0,0.0,0.0,0.0,0.0,0.0,0.0,0.0,0.0,0.0,0.0,0.0,0.0,0.0,0.0,0.0,0.0,0.0,0.0,0.0,0.0,0.0,0.0,0.0,0.0,0.0,0.0,0.0,0.0,0.0,0.0,0.0,0.0,0.0,0.0,0.0,0.0,0.0,0.0,0.0,0.0,0.0,0.0,0.0,0.0,0.0,0.0,0.0,0.0,0.0,0.0,0.0,0.0,0.0,0.0,0.0,0.0,0.0,0.0,0.0,0.0,0.0,0.0,0.0,0.0,0.0,0.0,0.0,0.0,0.0,0.0,0.0,0.0,0.0,0.0,0.0,0.0,0.0,0.0,0.0,0.0,0.0,0.0,0.0,0.0,0.0,0.0,0.0,0.0,0.0,0.0,0.0,0.0,0.0,0.0,0.0,0.0,0.0,0.0,1.9026,1.8836,1.8822,1.8721,1.8542,1.8542,1.8542,0.0,0.0,0.0,0.0,0.0,0.0,0.0,0.0,0.0,0.0,0.0,0.0,0.0,0.0,0.0,0.0,0.0,0.0,0.0,0.0,0.0,0.0,0.0,0.0,0.0,0.0,0.0,0.0,0.0,0.0,0.0,0.0,0.0,0.0,0.0,0.0,0.0,0.0,0.0,0.0,0.0,0.0,0.0,0.0,0.0,0.0,0.0,0.0,2.1386,0.0,0.0,0.0,0.0,0.0,0.0,0.0,0.0,0.0,0.0,0.0,0.0,0.0,0.0,0.0,0.0,0.0,0.0,0.0,0.0,0.0,0.0,0.0,0.0,0.0,0.0,0.0,0.0,0.0,0.0,0.0,0.0,0.0,0.0,0.0,0.0,0.0,0.0,0.0,0.0,0.0,0.0,0.0,0.0,0.0,0.0,0.0,0.0,0.0,0.0,0.0,0.0,0.0,0.0,0.0,0.0,0.0,0.0,0.0,1.9344,1.8903,1.9161,1.9098,1.8609,1.8595,1.8556,0.0,0.0,0.0,0.0,0.0,0.0,0.0,0.0,0.0,0.0,0.0,0.0,0.0,0.0,0.0,0.0,0.0,0.0,0.0,0.0,0.0,0.0,0.0,0.0,0.0,0.0,0.0,0.0,0.0,0.0,0.0,0.0,0.0,0.0,0.0,0.0,0.0,0.0,0.0,0.0,0.0,0.0,0.0,0.0,0.0,0.0,0.0,0.0,0.0,0.0,0.0,0.0,0.0,0.0,0.0,0.0,0.0,0.0,0.0,0.0,0.0,0.0,0.0,0.0,0.0,0.0,0.0,0.0,0.0,0.0,0.0,0.0,0.0,0.0,0.0,0.0,0.0,0.0,0.0,0.0,0.0,0.0,0.0,0.0,0.0,0.0,0.0,0.0,0.0,0.0,0.0,0.0,0.0,0.0,0.0,0.0,0.0,0.0,0.0,0.0,0.0,0.0,0.0,0.0,0.0,0.0,0.0,1.9754,1.9744,1.9051,1.9584,1.952,1.8725,1.8697,1.8673,1.8556,0.0,0.0,0.0,0.0,0.0,0.0,0.0,0.0,0.0,0.0,0.0,0.0,0.0,0.0,0.0,0.0,0.0,0.0,0.0,0.0,0.0,0.0,0.0,0.0,0.0,0.0,0.0,0.0,0.0,0.0,0.0,0.0,0.0,0.0,0.0,0.0,0.0,0.0,2.1797,2.1781,0.0,0.0,0.0,0.0,0.0,0.0,0.0,0.0,2.1324,0.0,0.0,0.0,0.0,0.0,0.0,0.0,0.0,0.0,0.0,0.0,0.0,0.0,0.0,0.0,0.0,0.0,0.0,0.0,0.0,0.0,0.0,0.0,0.0,0.0,0.0,0.0,0.0,0.0,0.0,0.0,0.0,0.0,0.0,0.0,0.0,0.0,0.0,0.0,0.0,0.0,0.0,0.0,0.0,0.0,0.0,0.0,0.0,0.0,0.0,0.0,0.0,0.0,0.0,0.0,0.0,1.9116,1.9754,1.9744,1.9022,1.9584,1.9545,1.8827,1.8798,1.8774,1.8687,0.0,0.0,0.0,0.0,0.0,0.0,0.0,0.0,0.0,0.0,0.0,0.0,0.0,0.0,0.0,0.0,0.0,0.0,0.0,0.0,0.0,0.0,0.0,0.0,0.0,0.0,0.0,0.0,0.0,0.0,0.0,0.0,0.0,0.0,0.0,0.0,0.0,0.0,0.0,2.1781,2.1781,0.0,0.0,0.0,0.0,0.0,0.0,0.0,0.0,2.1294,0.0,0.0,0.0,0.0,0.0,0.0,0.0,0.0,0.0,0.0,0.0,0.0,0.0,0.0,0.0,0.0,0.0,0.0,0.0,0.0,0.0,0.0,0.0,0.0,0.0,0.0,0.0,0.0,0.0,0.0,0.0,0.0,0.0,0.0,0.0,0.0,0.0,0.0,0.0,0.0,0.0,0.0,0.0,0.0,0.0,0.0,0.0,0.0,0.0,0.0,0.0,0.0,0.0,0.0,0.0,1.944,2.0088,2.0062,1.9419,1.9979,1.981,1.8764,1.8736,1.8697,0.0,0.0,0.0,0.0,0.0,0.0,0.0,0.0,0.0,0.0,0.0,0.0,0.0,0.0,0.0,0.0,0.0,0.0,0.0,0.0,0.0,0.0,0.0,0.0,0.0,0.0,0.0,0.0,0.0,0.0,0.0,0.0,0.0,0.0,0.0,0.0,0.0,0.0,0.0,0.0,2.1768,2.1754,2.1754,0.0,0.0,0.0,0.0,0.0,0.0,2.1324,2.1294,0.0,0.0,0.0,0.0,0.0,0.0,0.0,0.0,0.0,0.0,0.0,0.0,0.0,0.0,0.0,0.0,0.0,0.0,0.0,0.0,0.0,0.0,0.0,0.0,0.0,0.0,0.0,0.0,0.0,0.0,0.0,0.0,0.0,0.0,0.0,0.0,0.0,0.0,0.0,0.0,0.0,0.0,0.0,0.0,0.0,0.0,0.0,0.0,0.0,0.0,0.0,0.0,0.0,0.0,0.0,1.9712,2.0355,2.0455,1.9955,2.0426,2.0114,1.8924,1.8768,1.8659,0.0,0.0,0.0,0.0,0.0,0.0,0.0,0.0,0.0,0.0,0.0,0.0,0.0,0.0,0.0,0.0,0.0,0.0,0.0,0.0,0.0,0.0,0.0,0.0,0.0,0.0,0.0,0.0,0.0,0.0,0.0,0.0,0.0,0.0,0.0,0.0,0.0,0.0,0.0,0.0,0.0,2.1664,2.1694,2.1603,0.0,0.0,0.0,0.0,2.1402,2.134,0.0,0.0,0.0,0.0,0.0,0.0,0.0,0.0,0.0,0.0,0.0,0.0,0.0,0.0,0.0,0.0,0.0,0.0,0.0,0.0,0.0,0.0,0.0,0.0,0.0,0.0,0.0,0.0,0.0,0.0,0.0,0.0,0.0,0.0,0.0,0.0,0.0,0.0,0.0,0.0,0.0,0.0,0.0,0.0,0.0,0.0,0.0,0.0,0.0,0.0,0.0,0.0,0.0,0.0,0.0,0.0,1.9712,2.0355,2.0655,2.0584,2.0669,2.0355,1.9601,1.9084,1.8774,0.0,0.0,0.0,0.0,0.0,0.0,0.0,0.0,0.0,0.0,0.0,0.0,0.0,0.0,0.0,0.0,0.0,0.0,0.0,0.0,0.0,0.0,0.0,0.0,0.0,0.0,0.0,0.0,0.0,0.0,0.0,0.0,0.0,0.0,0.0,0.0,0.0,0.0,0.0,0.0,0.0,2.1603,2.1603,2.1495,2.1417,0.0,0.0,2.1309,2.1309,2.1309,0.0,0.0,0.0,0.0,0.0,0.0,0.0,0.0,0.0,0.0,0.0,0.0,0.0,0.0,0.0,0.0,0.0,0.0,0.0,0.0,0.0,0.0,0.0,0.0,0.0,0.0,0.0,0.0,0.0,0.0,0.0,0.0,0.0,0.0,0.0,0.0,0.0,0.0,0.0,0.0,0.0,0.0,0.0,0.0,0.0,0.0,0.0,0.0,0.0,0.0,0.0,0.0,0.0,0.0,0.0,1.9454,2.009,2.0698,2.1039,2.1053,2.1039,2.0571,1.9567,1.927,1.8973,0.0,0.0,0.0,0.0,0.0,0.0,0.0,0.0,0.0,0.0,0.0,0.0,0.0,0.0,0.0,0.0,0.0,0.0,0.0,0.0,0.0,0.0,0.0,0.0,0.0,0.0,0.0,0.0,0.0,0.0,0.0,0.0,0.0,0.0,0.0,0.0,0.0,0.0,0.0,0.0,0.0,0.0,2.1464,2.1386,0.0,0.0,0.0,2.207,2.2491,0.0,0.0,0.0,0.0,0.0,0.0,0.0,0.0,0.0,0.0,0.0,0.0,0.0,0.0,0.0,0.0,0.0,0.0,0.0,0.0,0.0,0.0,0.0,0.0,0.0,0.0,0.0,0.0,0.0,0.0,0.0,0.0,0.0,0.0,0.0,0.0,0.0,0.0,0.0,0.0,0.0,0.0,0.0,0.0,0.0,0.0,0.0,0.0,0.0,0.0,0.0,0.0,0.0,0.0,0.0,0.0,0.0,2.051,2.1002,2.1296,2.1436,2.1296,2.0778,1.988,1.967,0.0,0.0,0.0,0.0,0.0,0.0,0.0,0.0,0.0,0.0,0.0,0.0,0.0,0.0,0.0,0.0,0.0,0.0,0.0,0.0,0.0,0.0,0.0,0.0,0.0,0.0,0.0,2.1309,0.0,0.0,0.0,0.0,0.0,0.0,0.0,0.0,0.0,0.0,0.0,0.0,0.0,0.0,2.1728,2.1907,2.1891,2.2054,0.0,0.0,2.2847,2.3432,2.3513,2.3479,0.0,0.0,0.0,0.0,0.0,0.0,0.0,0.0,0.0,0.0,0.0,0.0,0.0,0.0,0.0,0.0,0.0,0.0,0.0,0.0,0.0,0.0,0.0,0.0,0.0,0.0,0.0,0.0,0.0,0.0,0.0,0.0,0.0,0.0,0.0,0.0,0.0,0.0,0.0,0.0,0.0,0.0,0.0,0.0,0.0,0.0,0.0,0.0,0.0,0.0,0.0,0.0,0.0,0.0,0.0,2.0826,2.0927,2.1232,2.1744,2.1232,2.0959,2.0997,2.0452,1.988,0.0,0.0,0.0,0.0,0.0,0.0,0.0,0.0,0.0,0.0,0.0,0.0,0.0,0.0,0.0,0.0,0.0,0.0,0.0,0.0,0.0,0.0,0.0,0.0,0.0,0.0,0.0,0.0,0.0,0.0,0.0,0.0,0.0,0.0,0.0,0.0,0.0,0.0,0.0,0.0,0.0,2.2605,2.327,2.3351,2.3383,0.0,0.0,2.3448,2.3513,2.3529,2.3479,2.3342,0.0,0.0,0.0,0.0,0.0,0.0,0.0,0.0,0.0,0.0,0.0,0.0,0.0,0.0,0.0,0.0,0.0,0.0,0.0,0.0,0.0,0.0,0.0,0.0,0.0,0.0,0.0,0.0,0.0,0.0,0.0,0.0,0.0,0.0,0.0,0.0,0.0,0.0,0.0,0.0,0.0,0.0,0.0,0.0,0.0,0.0,0.0,0.0,0.0,0.0,0.0,0.0,0.0,2.0661,2.0909,2.1282,2.1572,2.1779,2.1586,2.1329,2.1,2.0765,2.0362,0.0,0.0,0.0,0.0,0.0,0.0,0.0,0.0,0.0,0.0,0.0,0.0,0.0,0.0,0.0,0.0,0.0,0.0,0.0,0.0,0.0,0.0,0.0,0.0,0.0,0.0,0.0,0.0,2.1199,2.1247,2.1294,0.0,0.0,0.0,0.0,0.0,0.0,0.0,0.0,0.0,0.0,2.3155,2.3361,2.3393,0.0,0.0,2.3931,2.4092,2.4526,2.459,2.459,2.4537,2.4553,0.0,0.0,0.0,0.0,0.0,0.0,0.0,0.0,0.0,0.0,0.0,0.0,0.0,0.0,0.0,0.0,0.0,0.0,0.0,0.0,0.0,0.0,0.0,0.0,0.0,0.0,0.0,0.0,0.0,0.0,0.0,0.0,0.0,0.0,0.0,0.0,0.0,0.0,0.0,0.0,0.0,0.0,0.0,0.0,0.0,0.0,0.0,0.0,0.0,0.0,0.0,0.0,2.094,2.1,2.1397,2.1664,2.1698,2.1664,2.1505,2.1139,2.1112,2.085,0.0,0.0,0.0,0.0,0.0,0.0,0.0,0.0,0.0,0.0,0.0,0.0,0.0,0.0,0.0,0.0,0.0,0.0,0.0,0.0,0.0,0.0,0.0,0.0,0.0,0.0,0.0,0.0,2.123,2.1374,2.1423,0.0,0.0,0.0,0.0,0.0,0.0,0.0,0.0,0.0,0.0,2.3745,2.3867,2.3899,2.4056,2.4479,2.4543,2.4734,2.5214,2.5294,2.5294,2.524,0.0,0.0,0.0,0.0,0.0,0.0,0.0,0.0,0.0,0.0,0.0,0.0,0.0,0.0,0.0,0.0,0.0,0.0,0.0,0.0,0.0,0.0,0.0,0.0,0.0,0.0,0.0,0.0,0.0,0.0,1.6542,0.0,0.0,0.0,0.0,0.0,0.0,0.0,0.0,0.0,0.0,0.0,0.0,0.0,0.0,0.0,0.0,0.0,0.0,0.0,0.0,0.0,0.0,2.1055,2.1202,2.1215,2.1277,2.1423,2.1423,2.1458,2.1575,2.1589,2.1348,2.0896,0.0,0.0,0.0,0.0,0.0,0.0,0.0,0.0,0.0,0.0,0.0,0.0,0.0,0.0,0.0,0.0,0.0,0.0,0.0,0.0,0.0,0.0,0.0,0.0,0.0,0.0,2.0957,2.1596,2.2061,0.0,0.0,0.0,0.0,0.0,0.0,0.0,0.0,0.0,0.0,2.4154,2.4463,2.5118,2.523,2.5198,2.5246,2.5262,2.5262,2.5294,2.5294,2.524,0.0,0.0,0.0,0.0,0.0,0.0,0.0,0.0,0.0,0.0,0.0,0.0,0.0,0.0,0.0,0.0,0.0,0.0,0.0,0.0,0.0,0.0,0.0,0.0,0.0,0.0,0.0,1.7734,1.7696,0.0,0.0,0.0,0.0,0.0,0.0,0.0,0.0,0.0,0.0,0.0,1.7128,1.7463,0.0,0.0,0.0,0.0,0.0,0.0,0.0,0.0,0.0,0.0,0.0,0.0,2.1046,2.1033,2.1082,2.1095,2.1131,2.1131,2.1131,2.118,2.118,2.1042,2.0647,0.0,0.0,0.0,0.0,0.0,0.0,0.0,0.0,0.0,0.0,0.0,0.0,0.0,0.0,0.0,0.0,0.0,0.0,0.0,0.0,0.0,0.0,0.0,0.0,0.0,2.1502,0.0,0.0,0.0,0.0,0.0,0.0,0.0,0.0,0.0,0.0,0.0,2.4465,2.4703,2.4735,2.4791,2.495,2.4966,2.4926,0.0,0.0,0.0,0.0,0.0,0.0,0.0,0.0,0.0,0.0,0.0,0.0,0.0,0.0,2.4846,2.4846,2.4831,2.4886,2.4942,0.0,0.0,0.0,0.0,0.0,0.0,0.0,0.0,0.0,0.0,0.0,0.0,0.0,0.0,1.7989,0.0,1.7801,0.0,0.0,0.0,0.0,0.0,0.0,0.0,0.0,1.7385,1.7402,1.7421,1.7747,1.7854,0.0,1.8393,1.8669,0.0,0.0,0.0,0.0,0.0,0.0,0.0,0.0,2.0848,2.0961,2.0961,2.0947,2.0997,2.0997,2.0997,2.0997,2.0997,2.0908,2.0664,2.0745,2.071,0.0,0.0,0.0,0.0,0.0,0.0,0.0,0.0,0.0,0.0,0.0,0.0,0.0,0.0,0.0,0.0,0.0,0.0,0.0,0.0,0.0,0.0,0.0,2.1951,0.0,0.0,0.0,0.0,0.0,0.0,0.0,0.0,0.0,2.4178,2.4563,2.4846,2.4846,2.4886,2.4846,2.4726,0.0,0.0,0.0,0.0,0.0,0.0,0.0,2.5264,2.5279,2.5222,2.5164,2.5164,2.5137,2.5137,2.5164,0.0,0.0,2.4683,2.4589,2.463,2.4726,2.4742,2.4766,2.4846,2.4871,2.4846,0.0,0.0,0.0,0.0,0.0,0.0,0.0,0.0,1.7869,1.7718,0.0,1.7483,0.0,0.0,0.0,0.0,0.0,1.6995,0.0,0.0,1.7702,1.788,1.8257,1.8248,1.8226,1.8169,1.8733,1.8995,1.9032,1.9266,0.0,0.0,0.0,0.0,0.0,0.0,2.0625,2.0838,2.0888,2.0938,2.0934,2.0947,2.0997,2.0983,2.0997,2.0997,2.0983,2.0983,2.1068,2.1153,2.0772,0.0,0.0,0.0,0.0,0.0,0.0,0.0,0.0,0.0,0.0,0.0,0.0,0.0,0.0,0.0,0.0,0.0,0.0,0.0,0.0,2.2093,0.0,0.0,0.0,0.0,0.0,0.0,0.0,0.0,0.0,0.0,2.4585,2.4651,2.462,2.462,0.0,0.0,0.0,0.0,2.4916,2.5617,2.571,2.5928,2.6523,2.6528,2.6452,2.6452,0.0,0.0,2.6258,2.6198,2.6123,2.6228,2.6182,2.5845,2.4849,2.4745,2.4714,2.4714,2.4745,2.4667,2.4667,2.4704,2.4667,1.97,0.0,0.0,0.0,0.0,1.8943,1.8869,1.8751,1.8516,1.8369,1.8325,1.8203,0.0,0.0,0.0,0.0,0.0,0.0,1.779,1.7847,1.7847,1.7805,1.7823,1.8204,1.8276,1.8189,1.8712,1.9031,1.9175,1.9214,1.947,1.9851,0.0,0.0,0.0,0.0,2.0334,2.0398,2.0398,2.0385,2.0435,2.0435,2.0485,2.0662,2.0825,2.0924,2.0924,2.0961,2.1046,2.1033,2.0935,0.0,0.0,0.0,0.0,0.0,0.0,0.0,0.0,0.0,0.0,0.0,0.0,0.0,0.0,0.0,0.0,0.0,0.0,0.0,2.2389,2.2896,2.3167,0.0,0.0,0.0,0.0,0.0,0.0,0.0,0.0,0.0,2.5153,2.5057,2.4854,0.0,0.0,2.5618,2.5603,2.5618,2.5679,2.5878,2.5909,0.0,2.6168,2.6153,2.6153,2.6153,2.6108,2.6093,2.6093,2.6047,2.6062,2.6108,2.6062,2.5971,2.5725,2.5795,2.5867,2.5883,2.5823,2.572,2.5705,2.5308,2.4897,1.9996,1.9767,1.9493,1.9256,1.9211,1.9048,1.8957,1.8845,1.8634,1.8495,1.8354,1.832,1.8226,1.8119,1.8049,0.0,0.0,0.0,1.7848,1.802,1.802,1.8043,1.8073,1.8386,1.8478,1.8374,1.8672,1.8881,1.8975,1.904,1.9308,1.9768,0.0,0.0,1.9978,1.9978,2.0079,2.0333,2.0462,2.0462,2.0411,2.0297,2.0233,2.036,2.0562,2.0625,2.0625,2.0649,2.0736,2.0822,2.0835,2.0871,0.0,0.0,0.0,0.0,0.0,0.0,0.0,0.0,0.0,0.0,0.0,2.1077,2.1464,0.0,0.0,0.0,2.2054,2.2258,2.2669,2.329,0.0,0.0,0.0,0.0,0.0,0.0,0.0,2.4648,2.4678,2.4811,2.518,2.5292,2.5254,2.5213,2.5545,2.5786,2.5801,0.0,2.5892,2.6163,2.6208,2.6346,2.6602,2.6615,2.6519,2.6456,2.6456,2.6456,2.6456,2.6456,2.6456,2.6519,2.6567,2.6567,2.6615,2.679,2.6733,2.6321,2.6199,2.6138,2.6093,2.5712,2.5394,2.0271,2.022,1.9391,1.8993,1.8988,1.8835,1.8695,1.8601,1.8434,1.8232,1.7969,1.7981,1.7933,1.7849,1.7715,0.0,1.741,1.7361,1.7685,1.8214,1.8163,1.8362,1.8732,1.878,1.8696,1.8565,1.8612,1.8635,1.8701,1.8767,1.9045,1.9527,1.9468,1.9543,1.9688,1.9688,1.9989,2.0582,2.0769,2.0889,2.0822,2.0487,2.0246,2.0271,2.031,2.0322,2.0322,2.0322,2.0412,2.0703,2.0651,2.0738,2.1,0.0,0.0,0.0,0.0,0.0,0.0,0.0,0.0,0.0,0.0,0.0,0.0,0.0,0.0,0.0,2.2975,0.0,2.3004,2.3479,0.0,0.0,0.0,2.4737,2.4737,2.4722,2.4751,2.4809,0.0,0.0,2.4881,2.5416,2.5727,2.5553,2.5577,2.561,2.5625,2.567,2.5834,2.6553,2.6613,2.6837,2.7235,2.7268,2.7166,2.7049,2.7167,2.7093,2.7093,2.7108,2.7203,2.7261,2.7321,2.7342,2.7509,2.7419,2.72,2.6253,2.6136,2.6121,2.6166,2.609,2.5953,2.0969,2.0919,2.0192,1.9823,1.9698,1.9485,1.9371,1.9333,1.9054,1.8963,1.89,1.8758,1.8678,1.8534,1.8324,1.8154,1.8143,1.7996,1.8,1.8116,1.8116,1.812,1.8139,1.8473,1.8577,1.8487,1.8792,1.9066,1.9205,1.9263,1.9367,1.9576,1.9691,1.9906,2.0258,2.0302,2.0431,2.0746,2.0802,2.0846,2.0958,2.0976,2.0969,2.0957,2.1037,2.1159,2.1335,2.1335,2.1444,2.1581,2.1183,2.0991,2.1056,2.063,0.0,0.0,0.0,0.0,0.0,0.0,0.0,0.0,0.0,2.1791,2.2084,0.0,2.2413,0.0,2.3483,2.3752,2.3752,2.3879,0.0,0.0,2.4105,2.4204,2.4204,2.4204,2.4374,2.4812,2.4869,2.5053,2.5601,2.5799,2.5909,2.5936,2.622,2.6477,2.6623,2.6491,2.6535,2.6799,2.6762,2.6703,2.6901,2.6893,2.6855,2.6841,2.6788,2.6841,2.6788,2.6826,2.6841,2.6841,2.6855,2.6893,2.6893,2.6945,2.6857,2.6616,2.6811,2.7076,2.7076,2.6574,2.6135,2.1031,2.1006,2.0443,2.0207,2.0096,1.9617,1.9396,1.9291,1.9093,1.8987,1.8934,1.8786,1.8625,1.841,1.8247,1.8139,1.8107,1.8202,1.8193,1.8148,1.8363,1.8361,1.8247,1.8455,1.853,1.8541,1.8736,1.8999,1.913,1.9201,1.9362,1.9697,1.9806,2.0102,2.054,2.0405,2.0462,2.0818,2.0876,2.1005,2.1156,2.097,2.0905,2.0905,2.1031,2.1168,2.1281,2.1338,2.1506,2.1716,2.1424,2.1326,2.1434,2.1128,2.1002,0.0,0.0,0.0,0.0,0.0,0.0,0.0,0.0,0.0,0.0,0.0,2.281,2.3169,2.3617,2.3812,2.3761,2.3996,2.4111,2.4058,2.4293,2.4445,2.4459,2.4445,2.4583,2.4887,2.4928,2.5093,2.5508,2.5564,2.5688,2.5798,2.6016,2.6286,2.6606,2.6606,2.6539,2.6674,2.6539,2.6418,2.6379,2.6379,2.6312,2.6365,2.6365,2.6379,2.6351,2.6365,2.6365,2.6312,2.6365,2.6365,2.6365,2.6365,2.6365,2.6365,2.6539,2.6803,2.7011,2.6799,2.6564,2.0906,2.0906,2.0498,2.0346,2.0275,1.9557,1.9191,1.9096,1.8934,1.8838,1.8651,1.8553,1.8334,1.8046,1.8046,1.7935,1.7812,1.8213,1.8344,1.8214,1.8632,1.8709,1.8527,1.8592,1.8613,1.8613,1.8678,1.8833,1.9017,1.9006,1.9287,1.982,1.9905,2.0117,2.0549,2.0274,2.0356,2.092,2.1065,2.1175,2.1284,2.0842,2.0604,2.0604,2.0791,2.0919,2.0976,2.108,2.1297,2.1581,2.1575,2.1662,2.1886,2.1835,2.1784,0.0,2.1784,0.0,0.0,0.0,0.0,0.0,0.0,0.0,0.0,2.311,2.3217,2.3402,2.3628,2.3669,2.3578,2.4027,2.4286,2.419,2.4637,2.4948,2.4948,2.4948,2.4948,2.4948,2.4948,2.5005,2.5118,2.5118,2.5188,2.5507,2.559,2.5814,2.6242,2.6252,2.6179,2.6218,2.6125,2.6002,2.5907,2.5853,2.5853,2.5853,2.5839,2.577,2.5784,2.5784,2.5784,2.5784,2.577,2.5839,2.5839,2.5839,2.5853,2.5839,2.5893,2.6056,2.6525,2.6698,2.6884,2.1516,2.1481,2.0801,2.0554,2.0507,1.969,1.9483,1.9645,1.9472,1.9309,1.8994,1.9005,1.8888,1.8733,1.8592,1.8403,1.8246,1.8223,1.8216,1.8155,1.8301,1.8294,1.8315,1.8667,1.8827,1.8859,1.9222,1.9414,1.9469,1.9469,1.9522,1.9673,1.9803,1.9912,2.0064,0.0,0.0,0.0,2.1083,2.1209,2.1197,2.1116,2.1121,2.1222,2.1295,0.0,2.1689,2.1885,2.2068,2.2225,2.1928,0.0,0.0,0.0,0.0,0.0,0.0,0.0,0.0,0.0,0.0,0.0,2.3154,2.3254,2.2682,2.3231,2.3565,2.3633,2.4117,2.4399,2.4399,2.4493,2.456,2.4517,2.461,2.4664,2.4677,2.4677,2.4664,2.4664,2.4677,2.4677,2.4717,2.4734,2.4922,2.5482,2.5563,2.5869,2.6526,2.6088,2.573,2.5784,2.5786,2.5633,2.5605,2.5578,2.5522,2.5411,2.5342,2.5286,2.523,2.516,2.5174,2.5174,2.523,2.5328,2.5342,2.5481,2.5536,2.5536,2.555,2.5702,2.6125,2.6218,2.6286,2.1423,0.0,2.0831,2.0643,0.0,2.0217,2.0042,2.0059,1.9561,1.9168,1.8917,1.8928,1.8747,1.8588,1.8466,1.8405,1.8294,1.8456,1.85,1.8385,1.8617,1.8722,1.8659,1.8879,1.8984,1.8994,1.9225,1.9407,1.9473,1.9407,1.9473,1.9615,1.9671,1.9747,1.9747,1.9802,2.0042,2.0495,2.0635,2.07,2.0786,2.0786,2.0914,2.1031,2.1094,0.0,0.0,0.0,0.0,0.0,0.0,0.0,0.0,0.0,0.0,2.1842,2.1854,2.1913,2.2089,2.2337,2.2558,2.2736,2.3047,2.3208,2.301,2.3498,2.3795,2.3809,2.416,2.4319,2.4274,2.4229,2.4216,2.4099,2.4086,2.4099,2.4099,2.4086,2.4217,2.4478,2.4517,2.4609,2.5004,2.5056,2.5208,2.5606,2.5733,2.5914,2.6249,2.6234,2.6133,2.612,2.6075,2.585,2.5534,2.5466,2.5331,2.5,2.4892,2.4892,2.4791,2.4791,2.4791,2.4778,2.4835,2.4878,2.4892,2.4962,2.5018,2.5032,2.5032,2.5131,2.5397,2.5674,2.5893,2.1031,2.0839,2.0722,2.0669,2.0669,2.0604,2.0475,2.0215,0.0,0.0,0.0,1.8877,1.8714,1.8415,1.8415,1.8353,1.8374,1.8786,1.8828,1.872,1.9097,1.9218,1.9131,1.9131,1.9131,1.9131,1.9131,1.9142,1.9274,1.9274,1.9341,1.9473,1.955,1.9581,1.96,1.9666,1.9831,2.0149,2.0139,2.0216,2.0457,2.0534,2.061,2.0861,2.0904,2.1164,2.1433,2.1458,2.1741,2.213,2.2171,2.2259,2.2555,2.2616,2.2629,2.2616,2.2629,2.2665,2.2751,2.2825,2.2862,2.296,2.3071,2.323,2.3535,2.37,2.387,2.3974,2.4066,2.4164,2.4162,2.4128,2.4069,2.3923,2.3923,2.3936,2.3923,2.3923,2.4141,2.4451,2.4602,2.4769,2.5368,2.5432,2.5599,2.5727,2.5879,2.6083,2.6185,2.6401,2.6492,2.6432,2.6378,2.6189,2.5721,2.5442,2.5242,2.4842,2.4642,2.4563,2.4505,2.4505,2.4505,2.4505,2.4505,2.4563,2.4549,2.462,2.462,2.462,2.462,2.462,2.4778,2.516,2.5508,2.0733,2.0722,2.054,2.041,2.0399,2.014,1.9868,1.9736,1.9717,1.9663,1.9468,1.9479,1.9348,1.9152,1.9162,1.9076,1.8955,1.9007,1.9048,1.9038,1.911,1.9142,1.9131,1.9131,1.9131,1.9131,1.9142,1.9131,1.9142,1.9162,1.9142,1.9152,1.9142,1.9349,1.9771,1.9802,1.999,2.0344,2.0276,2.0482,2.0887,2.0898,2.1107,2.1363,2.141,2.1707,2.2173,2.1976,2.1955,2.2203,2.2048,2.1937,2.1999,2.2209,2.2259,2.2247,2.2259,2.2503,2.3077,2.3101,2.3372,2.3916,2.403,2.3776,2.3238,2.333,2.3726,2.4221,2.4346,2.4551,2.5049,2.5025,2.4987,2.5025,2.5038,2.5051,2.5012,2.4999,2.4975,2.5103,2.5179,2.5204,2.5371,2.5384,2.5576,2.5974,2.6077,2.6244,2.662,2.6566,2.6374,2.6356,2.6356,2.6254,2.61,2.5735,2.5362,2.5157,2.4635,2.43,2.4157,2.421,2.4236,2.4197,2.4353,2.4398,2.4385,2.4492,2.4598,2.4638,2.4682,2.4629,2.4687,2.4775,2.4892,2.1263,2.1129,2.0994,2.0858,2.0858,2.0586,2.0371,2.0213,2.0281,1.9995,1.9428,1.9473,1.9351,1.9208,1.9208,1.9142,1.9085,1.9334,1.9515,1.9458,1.9696,1.9799,1.9799,1.981,1.981,1.981,1.981,1.9799,1.9799,1.9799,1.981,1.9799,1.981,1.9913,2.01,2.012,2.0348,2.0772,2.049,2.0505,2.0857,2.0868,2.0928,2.122,2.129,2.157,2.1907,2.1969,2.2127,2.2384,2.2441,2.2497,2.2574,2.2781,2.291,2.291,2.2987,2.3212,2.3506,2.353,2.3627,2.3935,2.3935,2.3884,2.3638,2.3715,2.3953,2.4241,2.4279,2.4379,2.4693,2.4782,2.4859,2.4859,2.4924,2.5,2.5,2.5,2.5114,2.542,2.5496,2.5597,2.5927,2.5965,2.6029,2.6308,2.6333,2.6582,2.6905,2.6788,2.6674,2.6687,2.6674,2.6518,2.6257,2.6009,2.553,2.4909,2.4546,2.4188,2.3935,2.4012,2.4245,2.4309,2.4525,2.4806,2.4793,2.4879,2.5014,2.5048,2.4799,2.4741,2.4734,2.4614,2.4607,2.171,2.1592,2.1441,2.1301,2.1231,2.102,2.0797,2.0623,2.0623,2.0237,1.9573,1.9521,1.9521,1.9375,1.9375,1.9375,1.9427,1.9748,1.9913,1.9944,2.0265,2.041,2.041,2.041,2.041,2.041,2.041,2.041,2.041,2.041,2.041,2.041,2.041,2.0472,2.0586,2.0576,2.0803,2.1217,2.0844,2.0731,2.0948,2.0948,2.103,2.1267,2.1482,2.1625,2.1805,2.2129,2.2409,2.2685,2.2855,2.2989,2.3136,2.3349,2.3416,2.3427,2.3561,2.3754,2.3807,2.3927,2.3998,2.4066,2.3998,2.4054,2.4189,2.4232,2.4384,2.4406,2.4448,2.4497,2.4657,2.4735,2.4843,2.4843,2.4921,2.5115,2.5065,2.5065,2.5203,2.559,2.5652,2.584,2.6271,2.6396,2.6358,2.6333,2.6452,2.6589,2.6739,2.6752,2.6739,2.682,2.6875,2.6806,2.6396,2.6178,2.5755,2.486,2.473,2.4512,2.4256,2.4423,2.4553,2.4692,2.4974,2.5229,2.5268,2.5268,2.5293,2.5329,2.5084,2.4887,2.4862,2.4524,2.4332,2.1603,2.1592,2.1625,2.1371,2.1052,2.0889,2.0676,2.0533,2.0441,2.0389,2.0307,2.0296,2.0286,2.0296,2.0265,2.0245,2.0255,2.0338,2.0358,2.0369,2.04,2.042,2.0462,2.0452,2.042,2.0452,2.0472,2.0503,2.0503,2.0472,2.0431,2.041,2.041,2.0659,2.1,2.1052,2.128,2.1725,2.1552,2.1532,2.1673,2.1673,2.1824,2.1975,2.2189,2.2499,2.2805,2.2817,2.2868,2.3047,2.2995,2.2945,2.2956,2.3147,2.3214,2.3226,2.3305,2.347,2.3954,2.4437,2.4684,2.472,2.4673,2.4673,2.4673,2.4756,2.4859,2.4944,2.5038,2.5154,2.5677,2.5701,2.564,2.5615,2.5721,2.5832,2.5758,2.5763,2.5857,2.5881,2.5832,2.5918,2.5968,2.598,2.5992,2.605,2.605,2.6107,2.6119,2.6119,2.6119,2.6188,2.6533,2.6863,2.6777,2.6394,2.5983,2.5831,2.5473,2.5128,2.4988,2.5013,2.5217,2.5103,2.5282,2.5397,2.5371,2.5307,2.5384,2.5512,2.5358,2.5139,2.4774,2.4377,2.4217,2.2422,2.2422,2.2277,2.2058,2.1839,2.1608,2.146,2.1386,2.1238,2.1238,2.1238,2.1238,2.0938,2.042,2.041,2.041,2.0441,2.07,2.0824,2.0855,2.1114,2.1248,2.1238,2.1238,2.1238,2.1248,2.1238,2.1238,2.1248,2.1238,2.1238,2.1238,2.1238,2.1342,2.1518,2.1528,2.1621,2.1797,2.1578,2.1512,2.1589,2.1655,2.1741,2.1873,2.2111,2.2327,2.2617,2.2805,2.3072,2.3363,2.347,2.3569,2.3639,2.3851,2.3991,2.3991,2.4073,2.4237,2.4437,2.4672,2.4801,2.4801,2.4801,2.4801,2.4801,2.4801,2.4826,2.4943,2.5011,2.5259,2.5499,2.5618,2.5688,2.5758,2.584,2.5923,2.5923,2.5923,2.5923,2.5923,2.5923,2.5923,2.5923,2.5923,2.5923,2.5923,2.5923,2.591,2.591,2.5923,2.5923,2.591,2.6188,2.6327,2.6371,2.6152,2.592,2.5686,2.5435,2.53,2.514,2.5304,2.5443,2.5456,2.575,2.594,2.6025,2.6041,2.6029,2.6006,2.5806,2.5538,2.4728,2.4368,2.4232,2.3001,2.299,2.2767,2.2628,2.2478,2.2252,2.2176,2.2176,2.1959,2.1883,2.1883,2.1807,2.1445,2.0866,2.0803,2.0803,2.0845,2.1145,2.13,2.1342,2.1652,2.1807,2.1807,2.1807,2.1807,2.1807,2.1787,2.1797,2.1807,2.1807,2.1807,2.1807,2.1807,2.1807,2.1807,2.1807,2.1807,2.1731,2.1502,2.1425,2.1436,2.1436,2.1502,2.1731,2.1959,2.2187,2.2402,2.2767,2.315,2.353,2.374,2.397,2.4116,2.4273,2.4418,2.4418,2.4574,2.4646,2.4646,2.4646,2.4646,2.4646,2.4646,2.4646,2.4646,2.4646,2.4646,2.4718,2.4849,2.4969,2.5182,2.5265,2.5407,2.5477,2.5618,2.5688,2.5758,2.5758,2.5758,2.5758,2.5688,2.5758,2.5758,2.5688,2.5688,2.5688,2.5688,2.5758,2.5758,2.5688,2.5746,2.5758,2.5758,2.5828,2.584,2.5955,2.5758,2.5573,2.5512,2.5468,2.5215,2.5594,2.5824,2.5954,2.6345,2.6445,2.6307,2.6395,2.6471,2.6531,2.6244,2.5792,2.5116,2.467,2.4298,2.3001,2.299,2.2777,2.2692,2.2703,2.2478,2.2402,2.2402,2.2176,2.2111,2.2035,2.1873,2.1776,2.1683,2.1652,2.1714,2.1725,2.1725,2.1725,2.1735,2.1787,2.1807,2.1807,2.1807,2.1807,2.1807,2.1807,2.1807,2.1807,2.1807,2.1807,2.1807,2.1731,2.1807,2.1731,2.1731,2.1741,2.1512,2.1282,2.1205,2.1205,2.1215,2.1282,2.1512,2.1883,2.2176,2.2402,2.2777,2.3075,2.3298,2.3677,2.3897,2.3897,2.4127,2.4189,2.42,2.4273,2.4273,2.4273,2.4273,2.4261,2.4261,2.4273,2.4273,2.4273,2.4273,2.4345,2.449,2.4562,2.4634,2.479,2.4849,2.4992,2.5123,2.5123,2.5182,2.5312,2.5312,2.5312,2.5312,2.5312,2.5324,2.5312,2.53,2.5312,2.5312,2.5312,2.5382,2.5382,2.5382,2.5382,2.5382,2.5394,2.5453,2.577,2.584,2.5816,2.5763,2.5677,2.5857,2.6057,2.6164,2.6264,2.6308,2.6427,2.6452,2.6452,2.6521,2.6508,2.6395,2.6118,2.5681,2.5458,2.4798,2.4467,2.3161,2.3001,2.2927,2.2927,2.2852,2.2703,2.2628,2.2563,2.2402,2.2327,2.2252,2.2252,2.2101,2.2025,2.2035,2.1883,2.1807,2.1807,2.1807,2.1807,2.1807,2.1807,2.1807,2.1807,2.1807,2.1807,2.1807,2.1807,2.1807,2.1655,2.1578,2.1589,2.1502,2.1436,2.1436,2.1425,2.1349,2.1282,2.1128,2.0984,2.0984,2.0984,2.1138,2.1282,2.1731,2.2025,2.2187,2.2478,2.2767,2.3086,2.3372,2.3593,2.3666,2.3897,2.4055,2.42,2.4189,2.4189,2.4189,2.4189,2.4189,2.4189,2.4189,2.4212,2.4189,2.4189,2.4189,2.4273,2.4357,2.4345,2.4429,2.4646,2.479,2.4861,2.4933,2.4921,2.4992,2.4981,2.4981,2.4992,2.4992,2.4981,2.4981,2.4981,2.5064,2.5182,2.5182,2.5182,2.5312,2.5312,2.5312,2.5312,2.5312,2.53,2.5453,2.5523,2.5523,2.5676,2.5734,2.5791,2.5898,2.598,2.6013,2.622,2.6327,2.6396,2.6396,2.6452,2.6452,2.6402,2.6113,2.5992,2.5728,2.5227,2.4975,2.3298,2.3224,2.3224,2.315,2.3075,2.2927,2.2852,2.2777,2.2628,2.2478,2.2478,2.2402,2.2327,2.2176,2.2176,2.2111,2.1949,2.1873,2.1807,2.1807,2.1807,2.1807,2.1807,2.1807,2.1807,2.1807,2.1807,2.1807,2.1655,2.1578,2.1425,2.1436,2.1282,2.1215,2.1215,2.1215,2.1205,2.1051,2.0984,2.0906,2.0829,2.0839,2.0984,2.1205,2.1502,2.1807,2.2101,2.2327,2.2553,2.2927,2.315,2.3372,2.3593,2.3751,2.3813,2.397,2.397,2.4043,2.397,2.397,2.4043,2.4066,2.4214,2.4356,2.4368,2.4579,2.4671,2.4682,2.4682,2.4682,2.4722,2.4765,2.4821,2.4765,2.4718,2.4718,2.479,2.4801,2.4801,2.4801,2.4873,2.479,2.4801,2.4801,2.4861,2.4992,2.4981,2.5052,2.5123,2.5111,2.517,2.5241,2.5253,2.5241,2.5312,2.5382,2.5382,2.5465,2.5535,2.5606,2.5758,2.5758,2.584,2.6062,2.6131,2.627,2.6327,2.6396,2.6383,2.6452,2.6458,2.6282,2.603,2.5711,2.5451,2.3604,2.3593,2.3593,2.3446,2.3298,2.3298,2.315,2.3001,2.2777,2.2703,2.2703,2.2478,2.2478,2.2402,2.2402,2.2402,2.2241,2.1949,2.1807,2.1807,2.1807,2.1807,2.1807,2.1807,2.1807,2.1807,2.1807,2.1741,2.1502,2.1512,2.1359,2.1215,2.1128,2.1128,2.1215,2.1138,2.1061,2.0906,2.0906,2.0819,2.0644,2.0819,2.0974,2.1215,2.1359,2.1655,2.2025,2.2327,2.2478,2.2703,2.3075,2.3372,2.3519,2.3604,2.3604,2.3666,2.3666,2.3604,2.3593,2.3711,2.3767,2.3824,2.431,2.4721,2.4778,2.5161,2.5478,2.5455,2.5566,2.5612,2.5509,2.5187,2.4825,2.4533,2.4536,2.4562,2.4718,2.4801,2.4801,2.4718,2.4729,2.479,2.479,2.4718,2.4718,2.479,2.479,2.479,2.4861,2.4861,2.4933,2.5052,2.5052,2.5123,2.5182,2.5312,2.5312,2.5312,2.5382,2.5382,2.5535,2.5618,2.5688,2.584,2.598,2.605,2.6131,2.6188,2.6258,2.6314,2.6383,2.644,2.6251,2.5945,2.5824,2.3751,2.3593,2.3593,2.3593,2.3519,2.353,2.3372,2.3224,2.315,2.3001,2.2927,2.2852,2.2692,2.2628,2.2628,2.2553,2.2402,2.2111,2.2025,2.1949,2.1873,2.1807,2.1807,2.1807,2.1807,2.1807,2.1807,2.1731,2.1502,2.1359,2.1205,2.0984,2.0886,2.0799,2.0809,2.0809,2.0731,2.0731,2.0644,2.0644,2.0634,2.0654,2.0896,2.1128,2.1282,2.1512,2.1873,2.2252,2.2402,2.2478,2.2852,2.315,2.3372,2.3372,2.3446,2.3593,2.3593,2.3593,2.3638,2.3918,2.4044,2.4198,2.4633,2.4869,2.4914,2.5315,2.5506,2.5506,2.5638,2.5716,2.5681,2.5578,2.5245,2.4814,2.448,2.4403,2.451,2.4476,2.4345,2.4418,2.4418,2.4418,2.4429,2.4441,2.4536,2.4609,2.4585,2.4646,2.4729,2.4801,2.4801,2.4861,2.4933,2.4921,2.4992,2.5123,2.5111,2.5182,2.5241,2.53,2.5382,2.5465,2.5548,2.5618,2.5758,2.591,2.598,2.598,2.605,2.6119,2.6188,2.6245,2.6233,2.6164,2.6033,2.3959,2.3824,2.3824,2.3751,2.3751,2.374,2.3604,2.3446,2.3457,2.3298,2.315,2.3075,2.3001,2.2852,2.2852,2.2777,2.2617,2.2327,2.2176,2.2176,2.1959,2.1807,2.1807,2.1807,2.1807,2.1807,2.1807,2.1655,2.1436,2.1282,2.1041,2.0819,2.0644,2.0644,2.0576,2.0576,2.0576,2.0576,2.0576,2.0576,2.0566,2.0576,2.0731,2.1061,2.1128,2.1349,2.1665,2.2111,2.2327,2.2478,2.2777,2.3075,2.315,2.3224,2.3235,2.3331,2.3549,2.366,2.3705,2.4061,2.4404,2.447,2.4915,2.5171,2.5295,2.5554,2.5871,2.5871,2.5973,2.6029,2.6029,2.5847,2.5597,2.5378,2.4997,2.4786,2.4763,2.4763,2.4786,2.482,2.4809,2.4763,2.4751,2.4533,2.4561,2.4611,2.4533,2.4418,2.4574,2.4574,2.4574,2.4646,2.4718,2.4718,2.4801,2.4861,2.4981,2.5052,2.5182,2.5241,2.5312,2.5312,2.5394,2.5465,2.5535,2.5676,2.5758,2.5758,2.5828,2.591,2.5992,2.605,2.6119,2.6258,2.6189,2.4418,2.42,2.42,2.4055,2.3897,2.3909,2.3824,2.3604,2.3593,2.3519,2.3372,2.3298,2.3224,2.3075,2.3001,2.3001,2.2927,2.2628,2.2402,2.2252,2.2035,2.1797,2.1807,2.1807,2.1807,2.1807,2.1807,2.1589,2.1292,2.1205,2.0964,2.0644,2.0644,2.0576,2.0576,2.0576,2.0576,2.0576,2.0576,2.0576,2.0576,2.0576,2.0731,2.0906,2.1128,2.1282,2.1502,2.1959,2.2252,2.2402,2.2777,2.3001,2.3001,2.3001,2.3001,2.3097,2.3449,2.3635,2.3809,2.4292,2.4588,2.4631,2.5176,2.5532,2.5577,2.5995,2.636,2.6371,2.6487,2.6543,2.6453,2.6206,2.6005,2.6006,2.5709,2.5589,2.567,2.5624,2.552,2.5578,2.5693,2.5681,2.5555,2.5199,2.5015,2.4877,2.4602,2.4445,2.4365,2.4461,2.4368,2.4429,2.4502,2.4502,2.4574,2.4718,2.4778,2.4838,2.4981,2.5123,2.5182,2.5253,2.5253,2.5312,2.5312,2.5465,2.5535,2.5535,2.5606,2.5688,2.577,2.584,2.5992,2.6062,2.6201,2.449,2.4418,2.4273,2.42,2.4116,2.4127,2.397,2.3824,2.3813,2.3666,2.3519,2.3519,2.3372,2.3224,2.3224,2.315,2.2927,2.2703,2.2553,2.2402,2.2176,2.1959,2.1807,2.1807,2.1807,2.1807,2.1807,2.1578,2.1215,2.1215,2.0964,2.0644,2.0576,2.0576,2.0576,2.0576,2.0576,2.0576,2.0576,2.0576,2.0576,2.0576,2.0731,2.0906,2.1051,2.1282,2.1502,2.2035,2.2402,2.2628,2.2852,2.3001,2.3001,2.3001,2.3001,2.3078,2.3438,2.3733,2.3897,2.4508,2.4934,2.5033,2.5486,2.5782,2.5793,2.6069,2.6313,2.6313,2.6479,2.6561,2.6528,2.6427,2.6431,2.6411,2.6064,2.573,2.5707,2.5716,2.5716,2.5716,2.5761,2.5796,2.5773,2.5647,2.5509,2.5417,2.5084,2.4717,2.4694,2.4407,2.4399,2.4235,2.4284,2.4273,2.4345,2.4502,2.4574,2.4634,2.4706,2.4849,2.4992,2.5052,2.5123,2.5182,2.5182,2.5253,2.5324,2.5382,2.5465,2.5535,2.5606,2.5688,2.5758,2.5828,2.5898,2.4706,2.4634,2.4418,2.4345,2.4345,2.4261,2.4127,2.4055,2.4043,2.3897,2.3751,2.3751,2.3604,2.3298,2.3298,2.315,2.3001,2.2777,2.2628,2.2402,2.2101,2.1883,2.1807,2.1807,2.1807,2.1807,2.1807,2.1578,2.1292,2.1215,2.0964,2.0644,2.0576,2.0576,2.0576,2.0576,2.0576,2.0576,2.0576,2.0576,2.0576,2.0576,2.0654,2.0819,2.1051,2.1359,2.1655,2.2025,2.2327,2.2553,2.2852,2.3001,2.3001,2.3001,2.3001,2.3023,2.346,2.382,2.4137,2.477,2.524,2.5459,2.5775,2.5863,2.5895,2.599,2.6074,2.6074,2.6229,2.6313,2.6313,2.6396,2.6396,2.6389,2.6208,2.6029,2.6098,2.6223,2.6188,2.6188,2.6268,2.6347,2.6335,2.6163,2.6048,2.5934,2.5589,2.536,2.521,2.4786,2.4425,2.4425,2.4203,2.4169,2.4169,2.4253,2.4242,2.4303,2.4273,2.4418,2.4718,2.4849,2.4921,2.4981,2.5052,2.5123,2.5123,2.5182,2.5241,2.5324,2.5394,2.5465,2.5535,2.5606,2.5746,2.4981,2.479,2.4646,2.4574,2.449,2.4345,2.4273,2.4273,2.42,2.4116,2.397,2.3897,2.3751,2.3372,2.3372,2.3224,2.3001,2.2852,2.2628,2.2327,2.2101,2.1873,2.1807,2.1807,2.1807,2.1807,2.1807,2.1589,2.1292,2.1215,2.0964,2.0722,2.0576,2.0576,2.0576,2.0576,2.0576,2.0576,2.0576,2.0576,2.0576,2.0576,2.0654,2.0644,2.1051,2.1359,2.1731,2.2035,2.2252,2.2413,2.2777,2.2927,2.3001,2.3001,2.3001,2.3088,2.346,2.3929,2.4432,2.488,2.5382,2.5742,2.5863,2.5895,2.5906,2.5906,2.5979,2.5979,2.5895,2.5979,2.5979,2.6074,2.6146,2.6207,2.6329,2.6456,2.655,2.6727,2.6891,2.688,2.7033,2.7138,2.7035,2.6864,2.6542,2.6496,2.6062,2.5698,2.5492,2.5085,2.4858,2.4703,2.4401,2.4084,2.4021,2.3947,2.3925,2.3976,2.3881,2.397,2.4345,2.449,2.4646,2.4706,2.4766,2.4849,2.4933,2.4992,2.5052,2.5111,2.5194,2.5253,2.5312,2.5465,2.5535,2.5182,2.5052,2.4778,2.4718,2.4718,2.4502,2.4418,2.4418,2.4273,2.4189,2.4116,2.4116,2.397,2.3751,2.3604,2.3457,2.3224,2.3001,2.2767,2.2402,2.2187,2.1959,2.1807,2.1807,2.1807,2.1807,2.1807,2.1578,2.1282,2.1128,2.0964,2.0644,2.0576,2.0576,2.0576,2.0576,2.0576,2.0576,2.0576,2.0576,2.0576,2.0566,2.0644,2.0644,2.0964,2.1359,2.1731,2.2025,2.2176,2.2392,2.2628,2.2852,2.3001,2.3001,2.3001,2.3088,2.3438,2.3929,2.4432,2.4847,2.536,2.571,2.5819,2.5895,2.5895,2.5895,2.5895,2.5895,2.5895,2.5895,2.5895,2.5895,2.5979,2.5979,2.6063,2.6063,2.6146,2.6396,2.6644,2.6644,2.6727,2.6809,2.6974,2.6905,2.6827,2.6897,2.6554,2.6098,2.5757,2.543,2.5182,2.4981,2.4723,2.4388,2.4312,2.4137,2.3984,2.3906,2.3707,2.3613,2.3909,2.4073,2.418,2.4353,2.449,2.4562,2.4574,2.4718,2.4849,2.4921,2.4992,2.5123,2.5182,2.5324,2.5382,2.5394,2.5324,2.5064,2.4921,2.4921,2.4718,2.4646,2.4634,2.4418,2.4345,2.4334,2.4261,2.4127,2.3897,2.3677,2.3446,2.3224,2.3001,2.2777,2.2478,2.2262,2.2035,2.1959,2.1883,2.1807,2.1807,2.1731,2.1502,2.1282,2.1061,2.0896,2.0644,2.0576,2.0576,2.0576,2.0576,2.0576,2.0576,2.0576,2.0576,2.0576,2.0566,2.0722,2.0886,2.1128,2.1359,2.1807,2.1883,2.2111,2.2327,2.2478,2.2703,2.2927,2.3001,2.3001,2.3056,2.3209,2.3624,2.4071,2.4366,2.4683,2.5218,2.5426,2.5535,2.5644,2.5742,2.5895,2.5895,2.5895,2.5895,2.5895,2.5895,2.5895,2.5895,2.5895,2.5895,2.5979,2.6229,2.6396,2.6479,2.655,2.6644,2.6727,2.6727,2.6787,2.6755,2.6673,2.6276,2.6174,2.5858,2.5531,2.5273,2.496,2.4737,2.467,2.4458,2.4192,2.3948,2.3829,2.3613,2.3655,2.3707,2.3746,2.3909,2.4043,2.4127,2.42,2.4418,2.4562,2.4706,2.4778,2.4909,2.5123,2.5194,2.5253,2.5676,2.5606,2.5253,2.5182,2.5111,2.4921,2.4861,2.4778,2.4646,2.4502,2.4502,2.4273,2.42,2.397,2.3751,2.3519,2.3224,2.3001,2.2852,2.2628,2.2402,2.2176,2.2111,2.1959,2.1807,2.1797,2.1578,2.1436,2.1205,2.0974,2.0819,2.0654,2.0576,2.0576,2.0576,2.0576,2.0576,2.0576,2.0576,2.0576,2.0576,2.0654,2.0809,2.1128,2.1215,2.1359,2.1731,2.1807,2.1949,2.2402,2.2392,2.2628,2.2852,2.3001,2.3001,2.3001,2.3045,2.3329,2.3711,2.3853,2.4039,2.4465,2.4825,2.5109,2.5262,2.5524,2.5742,2.5874,2.5895,2.5895,2.5895,2.5895,2.5895,2.5895,2.5895,2.5895,2.5895,2.6074,2.6146,2.6157,2.6313,2.6396,2.6479,2.6479,2.6561,2.655,2.6561,2.6528,2.6416,2.6211,2.578,2.5599,2.533,2.5183,2.5103,2.4588,2.433,2.4164,2.3919,2.372,2.3565,2.3416,2.346,2.3527,2.3677,2.3751,2.3824,2.4043,2.4189,2.4345,2.4562,2.4694,2.4838,2.5052,2.5182,2.591,2.5606,2.5535,2.5465,2.5241,2.5123,2.5052,2.4981,2.4861,2.4646,2.449,2.449,2.4345,2.4127,2.397,2.3666,2.3372,2.315,2.3001,2.2777,2.2553,2.2402,2.2187,2.2035,2.1949,2.1807,2.1578,2.1436,2.1205,2.0984,2.0819,2.0654,2.0644,2.0644,2.0654,2.0576,2.0644,2.0576,2.0576,2.0576,2.0576,2.0654,2.0809,2.1138,2.1215,2.1436,2.1655,2.1807,2.1959,2.2327,2.2402,2.2628,2.2927,2.3001,2.3001,2.3001,2.3001,2.3209,2.3558,2.3689,2.3984,2.4366,2.4541,2.4803,2.5054,2.5284,2.5546,2.5808,2.5895,2.5895,2.5895,2.5895,2.5895,2.5895,2.5895,2.5895,2.5895,2.5895,2.5979,2.599,2.6063,2.6146,2.6229,2.6313,2.6313,2.6313,2.6313,2.6313,2.6257,2.6152,2.5909,2.5815,2.5837,2.5637,2.5554,2.4916,2.4424,2.4349,2.414,2.3896,2.3658,2.3374,2.324,2.346,2.3475,2.3446,2.3519,2.3666,2.3897,2.4043,2.4261,2.4406,2.4694,2.4921,2.5111,2.605,2.5758,2.5676,2.5465,2.5312,2.5241,2.517,2.517,2.5064,2.4861,2.4646,2.4574,2.4418,2.4189,2.397,2.3751,2.3519,2.3298,2.3224,2.3001,2.2777,2.2628,2.2327,2.2176,2.2025,2.1873,2.1655,2.1512,2.1359,2.1128,2.0974,2.0964,2.0886,2.0886,2.0731,2.0741,2.0731,2.0654,2.0566,2.0576,2.0566,2.0566,2.0809,2.1051,2.1215,2.1425,2.1731,2.1807,2.1959,2.2327,2.2392,2.2617,2.2852,2.3001,2.3001,2.3001,2.3001,2.3078,2.3307,2.3351,2.3471,2.3667,2.3929,2.4323,2.4738,2.5043,2.5382,2.5753,2.5895,2.5895,2.5895,2.5895,2.5895,2.5895,2.5906,2.5906,2.5895,2.5895,2.5895,2.5895,2.5979,2.5979,2.599,2.6074,2.6146,2.6146,2.6146,2.6063,2.6074,2.5979,2.5895,2.5812,2.5801,2.5538,2.5464,2.5009,2.4524,2.4472,2.4304,2.4145,2.3924,2.3699,2.3583,2.3606,2.3492,2.3295,2.3309,2.3468,2.3604,2.3824,2.397,2.4189,2.449,2.4778,2.4969,2.6119,2.591,2.5758,2.5535,2.5382,2.5312,2.5312,2.5312,2.5182,2.5052,2.4861,2.4646,2.4418,2.4261,2.4043,2.3897,2.3677,2.3519,2.3446,2.3309,2.3001,2.2777,2.2628,2.2402,2.2176,2.2025,2.1873,2.1578,2.1425,2.1282,2.1215,2.1138,2.1215,2.1138,2.0974,2.0906,2.0819,2.0731,2.0557,2.0576,2.0566,2.0644,2.0809,2.1138,2.1205,2.1425,2.1731,2.1883,2.2035,2.2338,2.2478,2.2628,2.2927,2.3001,2.3001,2.3001,2.3001,2.3001,2.3012,2.3034,2.3099,2.3187,2.3394,2.3809,2.4344,2.4836,2.5371,2.5692,2.5812,2.5812,2.5717,2.5728,2.5728,2.5728,2.5812,2.5822,2.5822,2.5812,2.5895,2.5895,2.5895,2.5906,2.599,2.599,2.5979,2.5979,2.5979,2.5979,2.5979,2.5979,2.5906,2.5738,2.5644,2.538,2.5211,2.4956,2.4639,2.4513,2.4482,2.4346,2.4263,2.4085,2.3956,2.386,2.3538,2.3372,2.3329,2.3279,2.3383,2.353,2.3751,2.397,2.4345,2.4634,2.4849,2.6327,2.6131,2.591,2.5758,2.5535,2.5382,2.5312,2.5312,2.5241,2.517,2.5052,2.4849,2.4646,2.4418,2.4273,2.4043,2.3886,2.3813,2.3677,2.353,2.3298,2.3075,2.2927,2.2788,2.2402,2.2252,2.2101,2.1807,2.1578,2.1359,2.1215,2.1205,2.1292,2.1215,2.1128,2.1061,2.0906,2.0819,2.0731,2.0654,2.0654,2.0819,2.0974,2.1205,2.1359,2.1589,2.1797,2.1949,2.2176,2.2402,2.2553,2.2777,2.2927,2.3001,2.3001,2.3001,2.3001,2.3001,2.3001,2.3001,2.3001,2.3001,2.311,2.3372,2.4006,2.4738,2.5289,2.5589,2.5644,2.5549,2.5369,2.5369,2.5285,2.538,2.5549,2.5654,2.5654,2.5812,2.5895,2.5895,2.5895,2.5895,2.5906,2.5906,2.5895,2.5895,2.5895,2.5895,2.5895,2.5895,2.5822,2.5738,2.5475,2.5285,2.5041,2.4786,2.4625,2.455,2.4529,2.4498,2.4428,2.4315,2.4169,2.3958,2.3657,2.3545,2.3576,2.3515,2.3348,2.3309,2.3519,2.3824,2.42,2.4418,2.4634,2.6477,2.6201,2.6131,2.5898,2.5618,2.5535,2.5382,2.5312,2.5312,2.5241,2.5123,2.4981,2.4778,2.449,2.4284,2.42,2.4043,2.397,2.3824,2.374,2.3593,2.3372,2.315,2.3001,2.2703,2.2478,2.2327,2.2101,2.1807,2.1655,2.1512,2.1512,2.1512,2.1512,2.1359,2.1282,2.1205,2.1051,2.0974,2.0974,2.0974,2.1051,2.1128,2.1349,2.1425,2.1578,2.1807,2.2035,2.2176,2.2402,2.2628,2.2777,2.2927,2.3001,2.3001,2.3001,2.3001,2.3001,2.3001,2.3001,2.3001,2.3001,2.3056,2.3372,2.4061,2.4738,2.5278,2.56,2.557,2.5475,2.5285,2.52,2.52,2.5285,2.538,2.5475,2.5644,2.5822,2.5895,2.5895,2.5895,2.5895,2.5895,2.5895,2.5895,2.5895,2.5895,2.5895,2.5895,2.5895,2.5822,2.5654,2.538,2.5115,2.4956,2.4711,2.4625,2.455,2.455,2.4529,2.4509,2.4374,2.4303,2.4263,2.4094,2.3953,2.394,2.3729,2.3416,2.3411,2.3372,2.3666,2.397,2.42,2.4478,2.6602,2.6408,2.6283,2.605,2.5758,2.5676,2.5535,2.5382,2.5312,2.5253,2.5182,2.5111,2.4909,2.4562,2.4418,2.4261,2.4261,2.4032,2.397,2.3897,2.374,2.3604,2.3446,2.3224,2.3012,2.2788,2.2563,2.2327,2.2176,2.1959,2.1807,2.1807,2.1731,2.1731,2.1578,2.1502,2.1359,2.1215,2.1138,2.1138,2.1215,2.1205,2.1359,2.1512,2.1578,2.1665,2.1883,2.2111,2.2252,2.2478,2.2703,2.2852,2.3001,2.3001,2.3001,2.3001,2.3001,2.3001,2.3001,2.3001,2.3001,2.3001,2.3056,2.3329,2.4082,2.4727,2.5115,2.5206,2.5432,2.5274,2.5115,2.5031,2.4946,2.5041,2.5306,2.5391,2.5559,2.5728,2.5895,2.5895,2.5895,2.5895,2.5895,2.5895,2.5895,2.5895,2.5895,2.5895,2.5895,2.5895,2.5728,2.5559,2.538,2.5115,2.4786,2.4625,2.455,2.455,2.455,2.454,2.4529,2.4529,2.4447,2.4407,2.4357,2.4356,2.4253,2.3932,2.3558,2.3503,2.3519,2.3575,2.374,2.4043,2.4345,2.6956,2.6888,2.6421,2.6213,2.6131,2.5758,2.5618,2.5535,2.5382,2.5312,2.5241,2.517,2.4981,2.4778,2.4574,2.449,2.449,2.4273,2.42,2.4116,2.397,2.3897,2.3677,2.3457,2.315,2.299,2.2777,2.2628,2.2402,2.2252,2.2025,2.1807,2.1807,2.1807,2.1731,2.1578,2.1502,2.1359,2.1282,2.1282,2.1282,2.1359,2.1502,2.1578,2.1655,2.1883,2.2101,2.2252,2.2478,2.2617,2.2852,2.2927,2.3001,2.3001,2.3001,2.3001,2.3001,2.3001,2.3001,2.3001,2.3001,2.3001,2.3056,2.3241,2.3864,2.4279,2.4486,2.4705,2.4933,2.4925,2.4734,2.454,2.47,2.4871,2.5126,2.538,2.5549,2.5728,2.5895,2.5895,2.5895,2.5895,2.5895,2.5895,2.5895,2.5895,2.5895,2.5895,2.5895,2.5895,2.5633,2.5464,2.5285,2.5031,2.4625,2.455,2.455,2.455,2.455,2.455,2.454,2.455,2.455,2.4509,2.4449,2.4504,2.4522,2.417,2.387,2.3645,2.3633,2.3793,2.3857,2.4123,2.4391,2.7403,2.7268,2.7011,2.6658,2.6302,2.605,2.584,2.5606,2.5535,2.5394,2.5312,2.517,2.5052,2.4921,2.479,2.4718,2.4646,2.449,2.4418,2.4345,2.4189,2.4043,2.3897,2.3751,2.3519,2.3213,2.3075,2.2852,2.2628,2.2478,2.2252,2.2025,2.1873,2.1807,2.1731,2.1731,2.1655,2.1578,2.1512,2.1578,2.1578,2.1665,2.1655,2.1731,2.1883,2.2035,2.2176,2.2402,2.2553,2.2703,2.2927,2.3001,2.3075,2.3075,2.3001,2.3001,2.3001,2.3001,2.3001,2.3001,2.3001,2.3001,2.3034,2.3198,2.3635,2.394,2.41,2.4293,2.4591,2.4608,2.4378,2.4598,2.4775,2.4861,2.5031,2.5295,2.5549,2.5728,2.5895,2.5895,2.5895,2.5895,2.5895,2.5895,2.5895,2.5895,2.5895,2.5895,2.5895,2.5895,2.5633,2.538,2.5285,2.5031,2.4615,2.454,2.455,2.455,2.455,2.455,2.455,2.455,2.455,2.454,2.4625,2.4629,2.4524,2.4288,2.4127,2.4078,2.4094,2.4139,2.4231,2.4283,2.4461,2.7538,2.7433,2.7404,2.6985,2.6496,2.6314,2.6119,2.5828,2.5606,2.5453,2.5312,2.5182,2.5182,2.5123,2.4981,2.4921,2.4778,2.4646,2.4502,2.4418,2.4261,2.4116,2.4055,2.3897,2.3666,2.3446,2.3298,2.3075,2.2767,2.2703,2.2553,2.2252,2.2025,2.1883,2.1807,2.1807,2.1807,2.1807,2.1807,2.1807,2.1807,2.1807,2.1883,2.1873,2.2035,2.2187,2.2327,2.2553,2.2777,2.2927,2.3001,2.315,2.3139,2.3139,2.3065,2.3065,2.3075,2.3001,2.3001,2.3001,2.3001,2.3001,2.3001,2.3187,2.3427,2.3635,2.3829,2.3888,2.4181,2.4317,2.4103,2.4409,2.4651,2.4724,2.5253,2.5559,2.5644,2.5728,2.5812,2.5895,2.5895,2.5895,2.5895,2.5895,2.5895,2.5895,2.5895,2.5895,2.5895,2.5812,2.5728,2.5464,2.5295,2.5031,2.47,2.4615,2.454,2.455,2.455,2.455,2.455,2.455,2.455,2.454,2.454,2.4615,2.4693,2.4638,2.4587,2.4599,2.4508,2.4459,2.428,2.4351,2.4418,2.7227,2.7229,2.7394,2.7136,2.665,2.6483,2.6314,2.6119,2.5758,2.5465,2.53,2.5312,2.5312,2.5241,2.5111,2.504,2.4981,2.4706,2.4574,2.4502,2.4345,2.42,2.4116,2.3959,2.3813,2.3604,2.3457,2.3224,2.299,2.2852,2.2703,2.2553,2.2252,2.1959,2.1807,2.1807,2.1807,2.1807,2.1807,2.1807,2.1807,2.1807,2.1949,2.2025,2.2187,2.2338,2.2628,2.2703,2.2927,2.3224,2.3224,2.3372,2.3457,2.3372,2.3298,2.3298,2.315,2.3075,2.3001,2.3001,2.3001,2.3001,2.3001,2.3067,2.3143,2.3383,2.3569,2.3545,2.3788,2.3956,2.3998,2.4151,2.4434,2.4794,2.5239,2.56,2.5673,2.5812,2.5895,2.5895,2.5895,2.5895,2.5895,2.5895,2.5895,2.5895,2.5895,2.5895,2.5895,2.5895,2.5728,2.5644,2.538,2.5126,2.4871,2.4615,2.454,2.454,2.455,2.455,2.455,2.455,2.455,2.455,2.4625,2.47,2.4861,2.4978,2.5005,2.5011,2.4818,2.4714,2.4535,2.4405,2.4454,2.7108,2.6951,2.7028,2.6878,2.6646,2.6642,2.6496,2.6302,2.5804,2.5523,2.5465,2.5382,2.5312,2.5241,2.5241,2.5253,2.517,2.5052,2.4849,2.4646,2.449,2.4345,2.4189,2.4116,2.397,2.3824,2.3604,2.3383,2.3224,2.3001,2.2852,2.2628,2.2327,2.2035,2.1807,2.1807,2.1807,2.1807,2.1807,2.1807,2.1807,2.1949,2.2025,2.2101,2.2327,2.2628,2.2927,2.3001,2.3224,2.3446,2.353,2.353,2.3604,2.353,2.3519,2.353,2.3372,2.3298,2.3224,2.3224,2.3139,2.3075,2.3001,2.3001,2.3045,2.3121,2.3155,2.3199,2.348,2.3541,2.3592,2.3956,2.4245,2.4712,2.5157,2.555,2.5637,2.5841,2.5895,2.5895,2.5895,2.5895,2.5895,2.5895,2.5895,2.5895,2.5895,2.5895,2.5895,2.5895,2.5812,2.5654,2.5475,2.5211,2.5041,2.4871,2.4711,2.4625,2.454,2.455,2.455,2.454,2.454,2.4625,2.47,2.4786,2.5031,2.5189,2.5411,2.5485,2.526,2.4957,2.4803,2.463,2.4482,2.6854,2.6644,2.6742,2.672,2.6707,2.6646,2.6566,2.6321,2.5955,2.5758,2.5676,2.5535,2.5453,2.5453,2.5382,2.5312,2.53,2.5182,2.5052,2.4849,2.4574,2.4418,2.4345,2.42,2.4043,2.3897,2.3751,2.3604,2.3298,2.3161,2.2938,2.2703,2.2402,2.2252,2.2025,2.1959,2.1807,2.1807,2.1883,2.1959,2.1949,2.2101,2.2252,2.2467,2.2703,2.2938,2.315,2.3372,2.3519,2.3677,2.3751,2.3751,2.3751,2.3751,2.3751,2.3677,2.3604,2.3519,2.3446,2.3372,2.3372,2.3309,2.3075,2.3001,2.3001,2.3045,2.3034,2.3068,2.3199,2.3199,2.3351,2.374,2.4064,2.4443,2.4892,2.5284,2.5546,2.5655,2.5874,2.5884,2.5895,2.5895,2.5895,2.5895,2.5895,2.5895,2.5895,2.5895,2.5895,2.5895,2.5895,2.5738,2.5654,2.5475,2.5295,2.5126,2.4956,2.4786,2.4711,2.4711,2.4786,2.4871,2.4786,2.47,2.4871,2.5031,2.5211,2.5369,2.5684,2.571,2.5546,2.5336,2.5072,2.4822,2.451,2.6365,2.6403,2.6644,2.6755,2.6708,2.6577,2.6462,2.6364,2.6208,2.6013,2.5898,2.5898,2.5758,2.5618,2.5618,2.5465,2.5312,2.5182,2.5111,2.4981,2.4778,2.4562,2.4418,2.4345,2.4189,2.397,2.3897,2.3666,2.3372,2.3235,2.3075,2.2777,2.2628,2.2478,2.2327,2.2111,2.1959,2.1959,2.1959,2.2025,2.2101,2.2327,2.2553,2.2777,2.3001,2.3224,2.3457,2.3677,2.374,2.3897,2.397,2.4043,2.4043,2.4043,2.397,2.3897,2.3751,2.3677,2.3593,2.3604,2.353,2.3457,2.3224,2.3075,2.3001,2.3001,2.3001,2.3001,2.3046,2.3078,2.3132,2.3362,2.3667,2.4092,2.4549,2.4923,2.524,2.548,2.5753,2.5863,2.5895,2.5895,2.5895,2.5895,2.599,2.6074,2.6063,2.6146,2.6063,2.5906,2.5906,2.5906,2.5738,2.5644,2.5475,2.5306,2.5211,2.4956,2.5031,2.5031,2.5115,2.5115,2.5031,2.5031,2.52,2.5369,2.5633,2.5801,2.5884,2.5865,2.588,2.5494,2.5239,2.4833,2.4521,2.6008,2.5925,2.5965,2.6082,2.6134,2.606,2.6052,2.6013,2.5887,2.5872,2.6131,2.598,2.5861,2.584,2.5688,2.5606,2.5465,2.5324,2.5182,2.504,2.4921,2.4778,2.4562,2.4429,2.4273,2.4127,2.397,2.3813,2.3677,2.353,2.3224,2.2927,2.2777,2.2703,2.2553,2.2327,2.2252,2.2176,2.2176,2.2252,2.2402,2.2628,2.2852,2.3075,2.3298,2.3593,2.3751,2.397,2.4116,2.4273,2.4345,2.4345,2.4345,2.4273,2.4116,2.4127,2.4055,2.3982,2.3824,2.3824,2.3751,2.3677,2.3519,2.3383,2.3224,2.315,2.3075,2.3075,2.3001,2.3001,2.3001,2.3198,2.3438,2.3777,2.4181,2.4476,2.4814,2.524,2.5524,2.5957,2.5979,2.5979,2.5979,2.6074,2.6157,2.6157,2.6229,2.6313,2.6313,2.6157,2.599,2.599,2.5906,2.5812,2.5654,2.557,2.538,2.52,2.5369,2.5369,2.5369,2.5369,2.5285,2.5369,2.5538,2.5884,2.6302,2.6313,2.6229,2.6229,2.6228,2.5814,2.5407,2.4986,2.4659,2.6002,2.5893,2.5839,2.5674,2.553,2.5468,2.552,2.5499,2.5393,2.5624,2.6045,2.5896,2.584,2.5968,2.591,2.5758,2.5606,2.5465,2.5324,2.5182,2.5123,2.4981,2.4778,2.4562,2.4429,2.4273,2.4116,2.397,2.3824,2.353,2.3224,2.315,2.2927,2.2852,2.2777,2.2628,2.2553,2.2553,2.2478,2.2488,2.2713,2.2927,2.315,2.3372,2.3666,2.3897,2.4127,2.4345,2.449,2.4574,2.4634,2.4646,2.4574,2.4418,2.4345,2.4273,2.42,2.4127,2.4043,2.4043,2.397,2.3813,2.3751,2.3677,2.353,2.3372,2.3224,2.315,2.3075,2.3001,2.3001,2.3034,2.322,2.3416,2.37,2.3995,2.4443,2.4923,2.5431,2.5859,2.6063,2.6146,2.6146,2.6324,2.6407,2.6396,2.6396,2.6479,2.6479,2.6396,2.624,2.6074,2.6063,2.5979,2.5822,2.5822,2.5728,2.5717,2.5884,2.5884,2.5717,2.5801,2.5884,2.5968,2.6052,2.6302,2.6644,2.6561,2.6539,2.6546,2.6495,2.6166,2.5741,2.5291,2.4883,2.6286,2.6272,2.5988,2.5633,2.5131,2.5086,2.498,2.4883,2.4922,2.5255,2.5724,2.5744,2.5857,2.6046,2.6057,2.598,2.5758,2.5688,2.5535,2.5312,2.5253,2.5123,2.4981,2.4778,2.4562,2.449,2.4273,2.4116,2.3813,2.3593,2.3446,2.3298,2.315,2.3001,2.2927,2.2777,2.2777,2.2852,2.2852,2.2863,2.3001,2.3224,2.353,2.3824,2.4116,2.4273,2.449,2.4634,2.4778,2.479,2.479,2.479,2.4718,2.4634,2.4562,2.449,2.4345,2.4273,2.42,2.42,2.4189,2.4116,2.4055,2.397,2.3751,2.353,2.3372,2.3309,2.3224,2.3224,2.3224,2.3224,2.3345,2.3444,2.3632,2.3919,2.4271,2.4856,2.5506,2.5964,2.6163,2.6257,2.6396,2.6479,2.6573,2.6644,2.6644,2.6727,2.6727,2.6644,2.6479,2.6313,2.6229,2.6229,2.6146,2.6157,2.6146,2.6229,2.6396,2.6396,2.6218,2.6313,2.6561,2.655,2.6467,2.6633,2.6809,2.6891,2.6962,2.7069,2.6933,2.6528,2.6086,2.5675,2.5203,2.6286,2.6286,2.6002,2.5784,2.5619,2.5174,2.4959,2.4776,2.4439,2.4725,2.5371,2.5714,2.5873,2.5967,2.6202,2.6131,2.6062,2.584,2.5676,2.5606,2.5477,2.5324,2.5111,2.4981,2.4766,2.4562,2.4418,2.4261,2.3959,2.374,2.3593,2.3372,2.3224,2.315,2.3075,2.2927,2.3001,2.3075,2.315,2.315,2.3298,2.3446,2.3751,2.4055,2.4345,2.4562,2.4706,2.4921,2.4981,2.504,2.504,2.4921,2.4801,2.4729,2.4718,2.4706,2.4574,2.4429,2.4418,2.4345,2.4273,2.4261,2.4189,2.4116,2.397,2.3677,2.353,2.353,2.3457,2.3446,2.3446,2.3446,2.3446,2.3512,2.3516,2.3782,2.406,2.4759,2.5583,2.601,2.6266,2.6461,2.6599,2.6727,2.6809,2.6891,2.6985,2.7067,2.7067,2.6985,2.6809,2.6644,2.655,2.6467,2.6396,2.6396,2.6479,2.6479,2.6561,2.6644,2.6644,2.6727,2.6798,2.688,2.688,2.7044,2.7219,2.7476,2.7626,2.751,2.7452,2.71,2.664,2.62,2.5663,2.6515,2.6515,2.6258,2.6042,2.5839,2.5453,2.5174,2.4835,2.4505,2.4498,2.4935,2.5358,2.5701,2.5927,2.6282,2.627,2.6201,2.6074,2.591,2.577,2.5618,2.5465,2.5324,2.5182,2.4981,2.4778,2.4562,2.4345,2.4043,2.3897,2.3751,2.3519,2.353,2.3372,2.3224,2.3224,2.3224,2.3298,2.3372,2.3519,2.3593,2.3824,2.397,2.4345,2.4634,2.4778,2.4909,2.5123,2.5182,2.5182,2.5182,2.5182,2.5052,2.4992,2.4921,2.4849,2.4778,2.4646,2.4574,2.4502,2.4429,2.4418,2.4345,2.4345,2.4261,2.4043,2.3824,2.3824,2.3604,2.3519,2.3519,2.3519,2.3519,2.3553,2.3631,2.3798,2.41,2.4569,2.5352,2.6062,2.6276,2.6515,2.6699,2.6974,2.7067,2.7067,2.7149,2.7231,2.7231,2.7231,2.7067,2.6891,2.6809,2.6633,2.6561,2.6561,2.6727,2.6727,2.6809,2.6962,2.7044,2.7044,2.7115,2.7208,2.7371,2.7534,2.7708,2.7881,2.7881,2.7788,2.7763,2.7735,2.7245,2.674,2.6244,2.6832,2.6832,2.6645,2.6312,2.5988,2.577,2.5453,2.5005,2.4791,2.4492,2.4471,2.5016,2.5486,2.5945,2.646,2.642,2.6327,2.6339,2.6188,2.591,2.5758,2.5618,2.5465,2.5324,2.5182,2.4909,2.4706,2.449,2.4273,2.4116,2.397,2.3909,2.3751,2.3604,2.3593,2.3593,2.3519,2.353,2.3677,2.3909,2.4055,2.4189,2.4334,2.4622,2.4909,2.5123,2.5182,2.5253,2.5312,2.5312,2.5241,2.5253,2.5241,2.5182,2.5123,2.5052,2.4921,2.4861,2.479,2.479,2.479,2.4718,2.4646,2.4574,2.449,2.4345,2.4189,2.4043,2.3824,2.3677,2.3666,2.3666,2.3666,2.3677,2.3745,2.379,2.4093,2.443,2.5126,2.5939,2.628,2.6439,2.6816,2.7115,2.7231,2.7231,2.7231,2.7231,2.7231,2.7231,2.7149,2.7056,2.6974,2.6891,2.6727,2.6809,2.6891,2.6985,2.6985,2.7208,2.7371,2.7371,2.7464,2.7719,2.78,2.7846,2.7938,2.8042,2.8042,2.7959,2.8131,2.8136,2.7747,2.7248,2.6854,2.713,2.7078,2.687,2.6606,2.6365,2.5988,2.5619,2.5174,2.5005,2.4708,2.4548,2.4932,2.537,2.5653,2.6588,2.6794,2.6602,2.6602,2.6408,2.6131,2.605,2.584,2.5688,2.5535,2.5324,2.5052,2.4778,2.449,2.4345,2.42,2.4043,2.3897,2.3897,2.3751,2.3666,2.3666,2.3751,2.3824,2.397,2.42,2.4189,2.4334,2.455,2.4754,2.504,2.5182,2.5253,2.5312,2.5312,2.5312,2.5312,2.5312,2.5312,2.5241,2.5241,2.5182,2.5123,2.5052,2.4992,2.4921,2.4921,2.4861,2.479,2.4718,2.4718,2.4718,2.449,2.4345,2.4189,2.4043,2.4043,2.4043,2.4043,2.4043,2.4089,2.4089,2.4164,2.4562,2.515,2.5776,2.6211,2.6565,2.7035,2.7219,2.7219,2.7313,2.7313,2.7313,2.7313,2.7313,2.7231,2.7231,2.7219,2.7149,2.7067,2.6985,2.7067,2.7149,2.7231,2.7464,2.7626,2.7708,2.7881,2.8042,2.8075,2.8016,2.8131,2.8044,2.8136,2.8143,2.8493,2.8555,2.8106,2.7669,2.7235]},{"header":{"parameterUnit":"m.s-1","parameterCategory":1,"la1":31.0,"la2":29.5877,"lo1":-88.7671,"lo2":-86.6584,"dy":0.0162,"dx":0.0185,"nx":115,"ny":88,"refTime":"2023-06-07T18:00:00:Z","depth":0,"parameterNumber":3,"parameterNumberName":"V-component_of_WINDS"},"data":[0.0,0.0,0.0,0.0,0.0,0.0,0.0,0.0,0.0,0.0,0.0,0.0,0.0,0.0,0.0,0.0,0.0,0.0,0.0,0.0,0.0,0.0,0.0,0.0,0.0,0.0,0.0,0.0,0.0,0.0,0.0,0.0,0.0,0.0,0.0,0.0,0.0,0.0,0.0,0.0,0.0,0.0,0.0,0.0,0.0,0.0,0.0,0.0,0.0,0.0,0.0,0.0,0.0,0.0,0.0,0.0,0.0,0.0,0.0,0.0,0.0,0.0,0.0,0.0,0.0,0.0,0.0,0.0,0.0,0.0,0.0,0.0,0.0,0.0,0.0,0.0,0.0,0.0,0.0,0.0,0.0,0.0,0.0,0.0,0.0,0.0,0.0,0.0,0.0,0.0,0.0,0.0,0.0,0.0,0.0,0.0,0.0,0.0,0.0,0.0,0.0,0.0,0.0,0.0,0.0,0.0,0.0,0.0,0.0,0.0,0.0,0.0,0.0,0.0,0.0,0.0,0.0,0.0,0.0,0.0,0.0,0.0,0.0,0.0,0.0,0.0,0.0,0.0,0.0,0.0,0.0,0.0,0.0,0.0,0.0,0.0,0.0,0.0,0.0,0.0,0.0,0.0,0.0,0.0,0.0,0.0,0.0,0.0,0.0,0.0,0.0,0.0,0.0,0.0,0.0,0.0,0.0,0.0,0.0,0.0,0.0,0.0,0.0,0.0,0.0,0.0,0.0,0.0,0.0,0.0,0.0,0.0,0.0,0.0,0.0,0.0,0.0,0.0,0.0,0.0,0.0,0.0,0.0,0.0,0.0,0.0,0.0,0.0,0.0,0.0,0.0,0.0,0.0,0.0,0.0,0.0,0.0,0.0,0.0,0.0,0.0,0.0,0.0,0.0,0.0,0.0,0.0,0.0,0.0,0.0,0.0,0.0,0.0,0.0,0.0,0.0,0.0,0.0,0.0,0.0,0.0,0.0,0.0,0.0,0.0,0.0,0.0,0.0,0.0,0.0,0.0,0.0,0.0,0.0,0.0,0.0,0.0,0.0,0.0,0.0,0.0,0.0,0.0,0.0,0.0,0.0,0.0,0.0,0.0,0.0,0.0,0.0,0.0,0.0,0.0,0.0,0.0,0.0,0.0,0.0,0.0,0.0,0.0,0.0,0.0,0.0,0.0,0.0,0.0,0.0,0.0,0.0,0.0,0.0,0.0,0.0,0.0,0.0,0.0,0.0,0.0,0.0,0.0,0.0,0.0,0.0,0.0,0.0,0.0,0.0,0.0,0.0,0.0,0.0,0.0,0.0,0.0,0.0,0.0,0.0,0.0,0.0,0.0,0.0,0.0,0.0,0.0,0.0,0.0,0.0,0.0,0.0,0.0,0.0,0.0,0.0,0.0,0.0,0.0,0.0,0.0,0.0,0.0,0.0,0.0,0.0,0.0,0.0,0.0,0.0,0.0,0.0,0.0,0.0,0.0,0.0,0.0,0.0,0.0,0.0,0.0,0.0,0.0,0.0,0.0,0.0,0.0,0.0,0.0,0.0,0.0,0.0,0.0,0.0,0.0,0.0,0.0,0.0,0.0,0.0,0.0,0.0,0.0,0.0,0.0,0.0,0.0,0.0,0.0,0.0,0.0,0.0,0.0,0.0,0.0,0.0,0.0,0.0,0.0,0.0,0.0,0.0,0.0,0.0,0.0,0.0,0.0,0.0,0.0,0.0,0.0,0.0,0.0,0.0,0.0,0.0,0.0,0.0,0.0,0.0,0.0,0.0,0.0,0.0,0.0,0.0,0.0,0.0,0.0,0.0,0.0,0.0,0.0,0.0,0.0,0.0,0.0,0.0,0.0,0.0,0.0,0.0,0.0,0.0,0.0,0.0,0.0,0.0,0.0,0.0,0.0,0.0,0.0,0.0,0.0,0.0,0.0,0.0,0.0,0.0,0.0,0.0,0.0,0.0,0.0,0.0,0.0,0.0,0.0,0.0,0.0,0.0,0.0,0.0,0.0,0.0,0.0,0.0,0.0,0.0,0.0,0.0,0.0,0.0,0.0,0.0,0.0,0.0,0.0,0.0,0.0,0.0,0.0,0.0,0.0,0.0,0.0,0.0,0.0,0.0,0.0,0.0,0.0,0.0,0.0,0.0,0.0,0.0,0.0,0.0,0.0,0.0,0.0,0.0,0.0,0.0,0.0,0.0,0.0,0.0,0.0,0.0,0.0,0.0,0.0,0.0,0.0,0.0,0.0,0.0,0.0,0.0,0.0,0.0,0.0,0.0,0.0,0.0,0.0,0.0,0.0,0.0,0.0,0.0,0.0,0.0,0.0,0.0,0.0,0.0,0.0,0.0,0.0,0.0,0.0,0.0,0.0,0.0,0.0,0.0,0.0,0.0,0.0,0.0,0.0,0.0,0.0,0.0,0.0,0.0,0.0,0.0,0.0,0.0,0.0,0.0,0.0,0.0,0.0,0.0,0.0,0.0,0.0,0.0,0.0,0.0,0.0,0.0,0.0,0.0,0.0,0.0,0.0,0.0,0.0,0.0,0.0,0.0,0.0,0.0,0.0,0.0,0.0,0.0,0.0,0.0,0.0,0.0,0.0,0.0,0.0,0.0,0.0,0.0,0.0,0.0,0.0,0.0,0.0,0.0,0.0,0.0,0.0,0.0,0.0,0.0,0.0,0.0,0.0,0.0,0.0,0.0,0.0,0.0,0.0,0.0,0.0,0.0,0.0,0.0,0.0,0.0,0.0,0.0,0.0,0.0,0.0,0.0,0.0,0.0,0.0,0.0,0.0,0.0,0.0,0.0,0.0,0.0,0.0,0.0,0.0,0.0,0.0,0.0,0.0,0.0,0.0,0.0,0.0,0.0,0.0,0.0,0.0,0.0,0.0,0.0,0.0,0.0,0.0,0.0,0.0,0.0,0.0,0.0,0.0,0.0,0.0,0.0,0.0,0.0,0.0,0.0,0.0,0.0,0.0,0.0,0.0,0.0,0.0,0.0,0.0,0.0,0.0,0.0,0.0,0.0,0.0,0.0,0.0,0.0,0.0,0.0,0.0,0.0,0.0,0.0,0.0,0.0,0.0,0.0,0.0,0.0,0.0,0.0,0.0,0.0,0.0,0.0,0.0,0.0,0.0,0.0,0.0,0.0,0.0,0.0,0.0,0.0,0.0,0.0,0.0,0.0,0.0,0.0,0.0,0.0,0.0,0.0,0.0,0.0,0.0,0.0,0.0,0.0,0.0,0.0,0.0,0.0,0.0,0.0,0.0,0.0,0.0,0.0,0.0,0.0,0.0,0.0,0.0,0.0,0.0,0.0,0.0,0.0,0.0,0.0,0.0,0.0,0.0,0.0,0.0,0.0,0.0,0.0,0.0,0.0,0.0,0.0,0.0,0.0,0.0,0.0,0.0,0.0,0.0,0.0,0.0,0.0,0.0,0.0,0.0,0.0,0.0,0.0,0.0,0.0,0.0,0.0,0.0,0.0,0.0,0.0,0.0,0.0,0.0,0.0,0.0,0.0,0.0,0.0,0.0,0.0,0.0,0.0,0.0,0.0,0.0,0.0,0.0,0.0,0.0,0.0,0.0,0.0,0.0,0.0,0.0,0.0,0.0,0.0,0.0,0.0,0.0,0.0,0.0,0.0,0.0,0.0,0.0,0.0,0.0,0.0,0.0,0.0,0.0,0.0,0.0,0.0,0.0,0.0,0.0,0.0,0.0,0.0,0.0,0.0,0.0,0.0,0.0,0.0,0.0,0.0,0.0,0.0,0.0,0.0,0.0,0.0,0.0,0.0,0.0,0.0,0.0,0.0,0.0,0.0,0.0,0.0,0.0,0.0,0.0,0.0,0.0,0.0,0.0,0.0,0.0,0.0,0.0,0.0,0.0,0.0,0.0,0.0,0.0,0.0,0.0,0.0,0.0,0.0,0.0,0.0,0.0,0.0,0.0,0.0,0.0,0.0,0.0,0.0,0.0,0.0,0.0,0.0,0.0,0.0,0.0,0.0,0.0,0.0,0.0,0.0,0.0,0.0,0.0,0.0,0.0,0.0,0.0,0.0,0.0,0.0,0.0,0.0,0.0,0.0,0.0,0.0,0.0,0.0,0.0,0.0,0.0,0.0,0.0,0.0,0.0,0.0,0.0,0.0,0.0,0.0,0.0,0.0,0.0,0.0,0.0,0.0,0.0,0.0,0.0,0.0,0.0,0.0,0.0,0.0,0.0,0.0,0.0,0.0,0.0,0.0,0.0,0.0,0.0,0.0,1.43,0.0,0.0,0.0,0.0,0.0,0.0,0.0,0.0,0.0,0.0,0.0,0.0,0.0,0.0,0.0,0.0,0.0,0.0,0.0,0.0,0.0,0.0,0.0,0.0,0.0,0.0,0.0,0.0,0.0,0.0,0.0,0.0,0.0,0.0,0.0,0.0,0.0,0.0,0.0,0.0,0.0,0.0,0.0,0.0,0.0,0.0,0.0,0.0,0.0,0.0,0.0,0.0,0.0,0.0,0.0,0.0,0.0,0.0,0.0,0.0,0.0,0.0,0.0,0.0,0.0,0.0,0.0,0.0,0.0,0.0,0.0,0.0,0.0,0.0,0.0,0.0,0.0,0.0,0.0,0.0,0.0,0.0,0.0,0.0,0.0,0.0,0.0,0.0,0.0,0.0,0.0,0.0,0.0,0.0,0.0,0.0,0.0,0.0,0.0,0.0,0.0,0.0,0.0,0.0,0.0,0.0,0.0,0.0,0.0,0.0,1.4654,1.4735,1.5032,1.5032,1.4789,0.0,0.0,0.0,0.0,0.0,0.0,0.0,0.0,0.0,0.0,0.0,0.0,0.0,0.0,0.0,0.0,0.0,0.0,0.0,0.0,0.0,0.0,0.0,0.0,0.0,0.0,0.0,0.0,0.0,0.0,0.0,0.0,0.0,0.0,0.0,0.0,0.0,0.0,0.0,0.0,0.0,0.0,0.0,0.0,0.0,0.0,0.0,0.0,0.0,0.0,0.0,0.0,0.0,0.0,0.0,0.0,0.0,0.0,0.0,0.0,0.0,0.0,0.0,0.0,0.0,0.0,0.0,0.0,0.0,0.0,0.0,0.0,0.0,0.0,0.0,0.0,0.0,0.0,0.0,0.0,0.0,0.0,0.0,0.0,0.0,0.0,0.0,0.0,0.0,0.0,0.0,0.0,0.0,0.0,0.0,0.0,0.0,0.0,0.0,0.0,0.0,0.0,0.0,0.0,0.0,0.0,0.0,0.0,0.0,0.0,0.0,0.0,1.568,1.5753,1.5399,0.0,0.0,0.0,0.0,0.0,0.0,0.0,0.0,0.0,0.0,0.0,0.0,0.0,0.0,0.0,0.0,0.0,0.0,0.0,0.0,0.0,0.0,0.0,0.0,0.0,0.0,0.0,0.0,0.0,0.0,0.0,0.0,0.0,0.0,0.0,0.0,0.0,0.0,0.0,0.0,0.0,0.0,0.0,0.0,0.0,0.0,0.0,0.0,0.0,0.0,0.0,0.0,0.0,0.0,0.0,0.0,0.0,0.0,0.0,0.0,0.0,0.0,0.0,0.0,0.0,0.0,0.0,0.0,0.0,0.0,0.0,0.0,0.0,0.0,0.0,0.0,0.0,0.0,0.0,0.0,0.0,0.0,0.0,0.0,0.0,0.0,0.0,0.0,0.0,0.0,0.0,0.0,0.0,0.0,0.0,0.0,0.0,0.0,0.0,0.0,0.0,0.0,0.0,0.0,0.0,0.0,0.0,0.0,0.0,0.0,1.5708,1.5758,1.5845,0.0,1.5996,0.0,0.0,0.0,0.0,0.0,0.0,0.0,0.0,0.0,0.0,0.0,0.0,0.0,0.0,0.0,0.0,0.0,0.0,0.0,0.0,0.0,0.0,0.0,0.0,0.0,0.0,0.0,0.0,0.0,0.0,0.0,0.0,0.0,0.0,0.0,0.0,0.0,0.0,0.0,0.0,0.0,0.0,0.0,0.0,0.0,0.0,0.0,0.0,0.0,0.0,0.0,0.0,0.0,0.0,0.0,0.0,0.0,0.0,0.0,0.0,0.0,0.0,0.0,0.0,0.0,0.0,0.0,0.0,0.0,0.0,0.0,0.0,0.0,0.0,0.0,0.0,0.0,0.0,0.0,0.0,0.0,0.0,0.0,0.0,0.0,0.0,0.0,0.0,0.0,0.0,0.0,0.0,0.0,0.0,0.0,0.0,0.0,0.0,0.0,0.0,0.0,0.0,0.0,0.0,0.0,0.0,0.0,0.0,0.0,0.0,1.619,1.6202,1.6266,1.638,0.0,0.0,0.0,0.0,0.0,0.0,0.0,0.0,0.0,0.0,0.0,0.0,0.0,0.0,0.0,0.0,0.0,0.0,0.0,0.0,0.0,0.0,0.0,0.0,0.0,0.0,0.0,0.0,0.0,0.0,0.0,0.0,0.0,0.0,0.0,0.0,0.0,0.0,0.0,0.0,0.0,0.0,0.0,0.0,0.0,0.0,0.0,0.0,0.0,0.0,0.0,0.0,0.0,0.0,0.0,0.0,0.0,0.0,0.0,0.0,0.0,0.0,0.0,0.0,0.0,0.0,0.0,0.0,0.0,0.0,0.0,0.0,0.0,0.0,0.0,0.0,0.0,0.0,0.0,0.0,0.0,0.0,0.0,0.0,0.0,0.0,0.0,0.0,0.0,0.0,0.0,0.0,0.0,0.0,0.0,0.0,0.0,0.0,0.0,0.0,0.0,0.0,0.0,0.0,0.0,0.0,0.0,0.0,0.0,0.0,1.6388,1.6651,1.6745,1.6798,1.6851,1.6995,0.0,0.0,0.0,0.0,0.0,0.0,0.0,0.0,0.0,0.0,0.0,0.0,0.0,0.0,0.0,0.0,0.0,0.0,0.0,0.0,0.0,0.0,0.0,0.0,0.0,0.0,0.0,0.0,0.0,0.0,0.0,0.0,0.0,0.0,0.0,0.0,0.0,0.0,0.0,0.0,0.0,0.0,0.0,0.0,0.0,0.0,0.0,0.0,0.0,0.0,0.0,0.0,0.0,0.0,0.0,0.0,0.0,0.0,0.0,0.0,0.0,0.0,0.0,0.0,0.0,0.0,0.0,0.0,0.0,0.0,0.0,0.0,0.0,0.0,0.0,0.0,0.0,0.0,0.0,0.0,0.0,0.0,0.0,0.0,0.0,0.0,0.0,0.0,0.0,0.0,0.0,0.0,0.0,0.0,0.0,0.0,0.0,0.0,0.0,0.0,0.0,0.0,0.0,0.0,0.0,0.0,0.0,0.0,1.7081,1.7133,1.7214,1.7352,1.7365,1.7393,0.0,0.0,0.0,0.0,0.0,0.0,0.0,0.0,0.0,0.0,0.0,0.0,0.0,0.0,0.0,0.0,0.0,0.0,0.0,0.0,0.0,0.0,0.0,0.0,0.0,0.0,0.0,0.0,0.0,0.0,0.0,0.0,0.0,0.0,0.0,0.0,0.0,0.0,0.0,0.0,0.0,0.0,0.0,0.0,0.0,0.0,0.0,0.0,0.0,0.0,0.0,0.0,0.0,0.0,0.0,0.0,0.0,0.0,0.0,0.0,0.0,0.0,0.0,0.0,0.0,0.0,0.0,0.0,0.0,0.0,0.0,0.0,0.0,0.0,0.0,0.0,0.0,0.0,0.0,0.0,0.0,0.0,0.0,0.0,0.0,0.0,0.0,0.0,0.0,0.0,0.0,0.0,0.0,0.0,0.0,0.0,0.0,0.0,0.0,0.0,0.0,0.0,0.0,0.0,0.0,0.0,0.0,0.0,0.0,1.706,1.7073,1.7115,1.7253,1.7253,1.7337,0.0,0.0,0.0,0.0,0.0,0.0,0.0,0.0,0.0,0.0,0.0,0.0,0.0,0.0,0.0,0.0,0.0,0.0,0.0,0.0,0.0,0.0,0.0,0.0,0.0,0.0,0.0,0.0,0.0,0.0,0.0,0.0,0.0,0.0,0.0,0.0,0.0,0.0,0.0,0.0,0.0,0.0,0.0,0.0,0.0,0.0,0.0,0.0,0.0,0.0,0.0,0.0,0.0,0.0,0.0,0.0,0.0,0.0,0.0,0.0,0.0,0.0,0.0,0.0,0.0,0.0,0.0,0.0,0.0,0.0,0.0,0.0,0.0,0.0,0.0,0.0,0.0,0.0,0.0,0.0,0.0,0.0,0.0,0.0,0.0,0.0,0.0,0.0,0.0,0.0,0.0,0.0,0.0,0.0,0.0,0.0,0.0,0.0,0.0,0.0,0.0,0.0,0.0,0.0,0.0,0.0,0.0,0.0,0.0,1.7086,0.0,1.7128,1.7199,1.7212,1.724,0.0,0.0,0.0,0.0,0.0,0.0,0.0,0.0,0.0,0.0,0.0,0.0,0.0,0.0,0.0,0.0,0.0,0.0,0.0,0.0,0.0,0.0,0.0,0.0,0.0,0.0,0.0,0.0,0.0,0.0,0.0,0.0,0.0,0.0,0.0,0.0,0.0,0.0,0.0,0.0,0.0,0.0,0.0,0.0,0.0,0.0,0.0,0.0,0.0,0.0,0.0,0.0,0.0,0.0,0.0,0.0,0.0,0.0,0.0,0.0,0.0,0.0,0.0,0.0,0.0,0.0,0.0,0.0,0.0,0.0,0.0,0.0,0.0,0.0,0.0,0.0,0.0,0.0,0.0,0.0,0.0,0.0,0.0,0.0,0.0,0.0,0.0,0.0,0.0,0.0,0.0,0.0,0.0,0.0,0.0,0.0,0.0,0.0,0.0,0.0,0.0,0.0,0.0,0.0,0.0,0.0,0.0,0.0,1.7199,1.7199,1.7199,1.7199,1.7212,1.7212,1.7212,0.0,0.0,0.0,0.0,0.0,0.0,0.0,0.0,0.0,0.0,0.0,0.0,0.0,0.0,0.0,0.0,0.0,0.0,0.0,0.0,0.0,0.0,0.0,0.0,0.0,0.0,0.0,0.0,0.0,0.0,0.0,0.0,0.0,0.0,0.0,0.0,0.0,0.0,0.0,0.0,0.0,0.0,0.0,0.0,0.0,0.0,0.0,0.0,0.0,0.0,0.0,0.0,0.0,0.0,0.0,0.0,0.0,0.0,0.0,0.0,0.0,0.0,0.0,0.0,0.0,0.0,0.0,0.0,0.0,0.0,0.0,0.0,0.0,0.0,0.0,0.0,0.0,0.0,0.0,0.0,0.0,0.0,0.0,0.0,0.0,0.0,0.0,0.0,0.0,0.0,0.0,0.0,0.0,0.0,0.0,0.0,0.0,0.0,0.0,0.0,0.0,0.0,0.0,0.0,0.0,0.0,0.0,0.0,0.0,1.7073,1.7086,1.7115,1.7199,1.7212,1.7212,0.0,0.0,0.0,0.0,0.0,0.0,0.0,0.0,0.0,0.0,0.0,0.0,0.0,0.0,0.0,0.0,0.0,0.0,0.0,0.0,0.0,0.0,0.0,0.0,0.0,0.0,0.0,0.0,0.0,0.0,0.0,0.0,0.0,0.0,0.0,0.0,0.0,0.0,0.0,0.0,0.0,0.0,0.0,0.0,0.0,0.0,0.0,0.0,0.0,0.0,0.0,0.0,0.0,0.0,0.0,0.0,0.0,0.0,0.0,0.0,0.0,0.0,0.0,0.0,0.0,0.0,0.0,0.0,0.0,0.0,0.0,0.0,0.0,0.0,0.0,0.0,0.0,0.0,0.0,0.0,0.0,0.0,0.0,0.0,0.0,0.0,0.0,0.0,0.0,0.0,0.0,0.0,0.0,0.0,0.0,0.0,0.0,0.0,0.0,0.0,0.0,0.0,0.0,0.0,0.0,0.0,0.0,0.0,0.0,1.7073,1.7086,1.7115,1.7212,1.7212,1.7212,1.7212,0.0,0.0,0.0,0.0,0.0,0.0,0.0,0.0,0.0,0.0,0.0,0.0,0.0,0.0,0.0,0.0,0.0,0.0,0.0,0.0,0.0,0.0,0.0,0.0,0.0,0.0,0.0,0.0,0.0,0.0,0.0,0.0,0.0,0.0,0.0,0.0,0.0,0.0,0.0,0.0,0.0,0.0,0.0,0.0,0.0,0.0,0.0,0.0,0.0,0.0,0.0,0.0,0.0,0.0,0.0,0.0,0.0,0.0,0.0,0.0,0.0,0.0,0.0,0.0,0.0,0.0,0.0,0.0,0.0,0.0,0.0,0.0,0.0,0.0,0.0,0.0,0.0,0.0,0.0,0.0,0.0,0.0,0.0,0.0,0.0,0.0,0.0,0.0,0.0,0.0,0.0,0.0,0.0,0.0,0.0,0.0,0.0,0.0,0.0,0.0,0.0,0.0,0.0,0.0,0.0,0.0,0.0,0.0,1.7212,1.7212,1.7199,1.7212,1.7253,1.7199,0.0,0.0,0.0,0.0,0.0,0.0,0.0,0.0,0.0,0.0,0.0,0.0,0.0,0.0,0.0,0.0,0.0,0.0,0.0,0.0,0.0,0.0,0.0,0.0,0.0,0.0,0.0,0.0,0.0,0.0,0.0,0.0,0.0,0.0,0.0,0.0,0.0,0.0,0.0,0.0,0.0,0.0,0.0,0.0,0.0,0.0,0.0,0.0,0.0,0.0,0.0,0.0,0.0,0.0,0.0,0.0,0.0,0.0,0.0,0.0,0.0,0.0,0.0,0.0,0.0,0.0,0.0,0.0,0.0,0.0,0.0,0.0,0.0,0.0,0.0,0.0,0.0,0.0,0.0,0.0,0.0,0.0,0.0,0.0,0.0,0.0,0.0,0.0,0.0,0.0,0.0,0.0,0.0,0.0,0.0,0.0,0.0,0.0,0.0,0.0,0.0,0.0,0.0,0.0,0.0,0.0,0.0,0.0,0.0,1.735,1.735,1.735,1.735,1.7406,1.7393,0.0,0.0,0.0,0.0,0.0,0.0,0.0,0.0,0.0,0.0,0.0,0.0,0.0,0.0,0.0,0.0,0.0,0.0,0.0,0.0,0.0,0.0,0.0,0.0,0.0,0.0,0.0,0.0,0.0,0.0,0.0,0.0,0.0,0.0,0.0,0.0,0.0,0.0,0.0,0.0,0.0,0.0,0.0,0.0,0.0,0.0,0.0,0.0,0.0,0.0,0.0,0.0,0.0,0.0,0.0,0.0,0.0,0.0,0.0,0.0,0.0,0.0,0.0,0.0,0.0,0.0,0.0,0.0,0.0,0.0,0.0,0.0,0.0,0.0,0.0,0.0,0.0,0.0,0.0,0.0,0.0,0.0,0.0,0.0,0.0,0.0,0.0,0.0,0.0,0.0,0.0,0.0,0.0,0.0,0.0,0.0,0.0,0.0,0.0,0.0,0.0,0.0,0.0,0.0,0.0,0.0,0.0,0.0,1.7253,1.7404,1.7432,1.7474,1.7528,1.7502,1.7475,0.0,0.0,0.0,0.0,0.0,0.0,0.0,0.0,0.0,0.0,0.0,0.0,0.0,0.0,0.0,0.0,0.0,0.0,0.0,0.0,0.0,0.0,0.0,0.0,0.0,0.0,0.0,0.0,0.0,0.0,0.0,0.0,0.0,0.0,0.0,0.0,0.0,0.0,0.0,0.0,0.0,0.0,0.0,0.0,0.0,0.0,0.0,0.0,0.0,0.0,0.0,0.0,0.0,0.0,0.0,0.0,0.0,0.0,0.0,0.0,0.0,0.0,0.0,0.0,0.0,0.0,0.0,0.0,0.0,0.0,0.0,0.0,0.0,0.0,0.0,0.0,0.0,0.0,0.0,0.0,0.0,0.0,0.0,0.0,0.0,0.0,0.0,0.0,0.0,0.0,0.0,0.0,0.0,0.0,0.0,0.0,0.0,0.0,0.0,0.0,0.0,0.0,0.0,0.0,0.0,0.0,0.0,0.0,1.7282,1.7391,1.7488,1.757,1.7706,1.7625,1.7529,0.0,0.0,0.0,0.0,0.0,0.0,0.0,0.0,0.0,0.0,0.0,0.0,0.0,0.0,0.0,0.0,0.0,0.0,0.0,0.0,0.0,0.0,0.0,0.0,0.0,0.0,0.0,0.0,0.0,0.0,0.0,0.0,0.0,0.0,0.0,0.0,0.0,0.0,0.0,0.0,0.0,0.0,0.0,0.0,0.0,0.0,0.0,0.0,0.0,0.0,0.0,0.0,0.0,0.0,0.0,0.0,0.0,0.0,0.0,0.0,0.0,0.0,0.0,0.0,0.0,0.0,0.0,0.0,0.0,0.0,0.0,0.0,0.0,0.0,0.0,0.0,0.0,0.0,0.0,0.0,0.0,0.0,0.0,0.0,0.0,0.0,0.0,0.0,0.0,0.0,0.0,0.0,0.0,0.0,0.0,0.0,0.0,0.0,0.0,0.0,0.0,0.0,0.0,0.0,0.0,0.0,0.0,0.0,1.7282,1.7488,1.7475,1.7611,1.7828,1.7828,1.7828,0.0,0.0,0.0,0.0,0.0,0.0,0.0,0.0,0.0,0.0,0.0,0.0,0.0,0.0,0.0,0.0,0.0,0.0,0.0,0.0,0.0,0.0,0.0,0.0,0.0,0.0,0.0,0.0,0.0,0.0,0.0,0.0,0.0,0.0,0.0,0.0,0.0,0.0,0.0,0.0,0.0,0.0,0.0,0.0,0.0,0.0,0.0,0.0,1.4222,0.0,0.0,0.0,0.0,0.0,0.0,0.0,0.0,0.0,0.0,0.0,0.0,0.0,0.0,0.0,0.0,0.0,0.0,0.0,0.0,0.0,0.0,0.0,0.0,0.0,0.0,0.0,0.0,0.0,0.0,0.0,0.0,0.0,0.0,0.0,0.0,0.0,0.0,0.0,0.0,0.0,0.0,0.0,0.0,0.0,0.0,0.0,0.0,0.0,0.0,0.0,0.0,0.0,0.0,0.0,0.0,0.0,0.0,0.0,1.7571,1.7474,1.7712,1.7809,1.7815,1.7801,1.7842,0.0,0.0,0.0,0.0,0.0,0.0,0.0,0.0,0.0,0.0,0.0,0.0,0.0,0.0,0.0,0.0,0.0,0.0,0.0,0.0,0.0,0.0,0.0,0.0,0.0,0.0,0.0,0.0,0.0,0.0,0.0,0.0,0.0,0.0,0.0,0.0,0.0,0.0,0.0,0.0,0.0,0.0,0.0,0.0,0.0,0.0,0.0,0.0,0.0,0.0,0.0,0.0,0.0,0.0,0.0,0.0,0.0,0.0,0.0,0.0,0.0,0.0,0.0,0.0,0.0,0.0,0.0,0.0,0.0,0.0,0.0,0.0,0.0,0.0,0.0,0.0,0.0,0.0,0.0,0.0,0.0,0.0,0.0,0.0,0.0,0.0,0.0,0.0,0.0,0.0,0.0,0.0,0.0,0.0,0.0,0.0,0.0,0.0,0.0,0.0,0.0,0.0,0.0,0.0,0.0,0.0,0.0,1.7787,1.7856,1.7457,1.7945,1.8044,1.7692,1.7666,1.772,1.7842,0.0,0.0,0.0,0.0,0.0,0.0,0.0,0.0,0.0,0.0,0.0,0.0,0.0,0.0,0.0,0.0,0.0,0.0,0.0,0.0,0.0,0.0,0.0,0.0,0.0,0.0,0.0,0.0,0.0,0.0,0.0,0.0,0.0,0.0,0.0,0.0,0.0,0.0,1.3621,1.361,0.0,0.0,0.0,0.0,0.0,0.0,0.0,0.0,1.4316,0.0,0.0,0.0,0.0,0.0,0.0,0.0,0.0,0.0,0.0,0.0,0.0,0.0,0.0,0.0,0.0,0.0,0.0,0.0,0.0,0.0,0.0,0.0,0.0,0.0,0.0,0.0,0.0,0.0,0.0,0.0,0.0,0.0,0.0,0.0,0.0,0.0,0.0,0.0,0.0,0.0,0.0,0.0,0.0,0.0,0.0,0.0,0.0,0.0,0.0,0.0,0.0,0.0,0.0,0.0,0.0,1.7212,1.7787,1.7856,1.7431,1.7945,1.7988,1.7556,1.7529,1.7584,1.7733,0.0,0.0,0.0,0.0,0.0,0.0,0.0,0.0,0.0,0.0,0.0,0.0,0.0,0.0,0.0,0.0,0.0,0.0,0.0,0.0,0.0,0.0,0.0,0.0,0.0,0.0,0.0,0.0,0.0,0.0,0.0,0.0,0.0,0.0,0.0,0.0,0.0,0.0,0.0,1.361,1.361,0.0,0.0,0.0,0.0,0.0,0.0,0.0,0.0,1.443,0.0,0.0,0.0,0.0,0.0,0.0,0.0,0.0,0.0,0.0,0.0,0.0,0.0,0.0,0.0,0.0,0.0,0.0,0.0,0.0,0.0,0.0,0.0,0.0,0.0,0.0,0.0,0.0,0.0,0.0,0.0,0.0,0.0,0.0,0.0,0.0,0.0,0.0,0.0,0.0,0.0,0.0,0.0,0.0,0.0,0.0,0.0,0.0,0.0,0.0,0.0,0.0,0.0,0.0,0.0,1.7813,1.8407,1.8464,1.7951,1.8468,1.8392,1.7651,1.7625,1.7666,0.0,0.0,0.0,0.0,0.0,0.0,0.0,0.0,0.0,0.0,0.0,0.0,0.0,0.0,0.0,0.0,0.0,0.0,0.0,0.0,0.0,0.0,0.0,0.0,0.0,0.0,0.0,0.0,0.0,0.0,0.0,0.0,0.0,0.0,0.0,0.0,0.0,0.0,0.0,0.0,1.3668,1.3726,1.3726,0.0,0.0,0.0,0.0,0.0,0.0,1.4316,1.443,0.0,0.0,0.0,0.0,0.0,0.0,0.0,0.0,0.0,0.0,0.0,0.0,0.0,0.0,0.0,0.0,0.0,0.0,0.0,0.0,0.0,0.0,0.0,0.0,0.0,0.0,0.0,0.0,0.0,0.0,0.0,0.0,0.0,0.0,0.0,0.0,0.0,0.0,0.0,0.0,0.0,0.0,0.0,0.0,0.0,0.0,0.0,0.0,0.0,0.0,0.0,0.0,0.0,0.0,0.0,1.8382,1.8981,1.9075,1.8608,1.9048,1.8839,1.788,1.7733,1.7706,0.0,0.0,0.0,0.0,0.0,0.0,0.0,0.0,0.0,0.0,0.0,0.0,0.0,0.0,0.0,0.0,0.0,0.0,0.0,0.0,0.0,0.0,0.0,0.0,0.0,0.0,0.0,0.0,0.0,0.0,0.0,0.0,0.0,0.0,0.0,0.0,0.0,0.0,0.0,0.0,0.0,1.3868,1.3821,1.3962,0.0,0.0,0.0,0.0,1.4233,1.4326,0.0,0.0,0.0,0.0,0.0,0.0,0.0,0.0,0.0,0.0,0.0,0.0,0.0,0.0,0.0,0.0,0.0,0.0,0.0,0.0,0.0,0.0,0.0,0.0,0.0,0.0,0.0,0.0,0.0,0.0,0.0,0.0,0.0,0.0,0.0,0.0,0.0,0.0,0.0,0.0,0.0,0.0,0.0,0.0,0.0,0.0,0.0,0.0,0.0,0.0,0.0,0.0,0.0,0.0,0.0,0.0,1.8382,1.8981,1.9261,1.9194,1.9274,1.8981,1.8358,1.7796,1.7584,0.0,0.0,0.0,0.0,0.0,0.0,0.0,0.0,0.0,0.0,0.0,0.0,0.0,0.0,0.0,0.0,0.0,0.0,0.0,0.0,0.0,0.0,0.0,0.0,0.0,0.0,0.0,0.0,0.0,0.0,0.0,0.0,0.0,0.0,0.0,0.0,0.0,0.0,0.0,0.0,0.0,1.3962,1.3962,1.4093,1.4176,0.0,0.0,1.4373,1.4373,1.4373,0.0,0.0,0.0,0.0,0.0,0.0,0.0,0.0,0.0,0.0,0.0,0.0,0.0,0.0,0.0,0.0,0.0,0.0,0.0,0.0,0.0,0.0,0.0,0.0,0.0,0.0,0.0,0.0,0.0,0.0,0.0,0.0,0.0,0.0,0.0,0.0,0.0,0.0,0.0,0.0,0.0,0.0,0.0,0.0,0.0,0.0,0.0,0.0,0.0,0.0,0.0,0.0,0.0,0.0,0.0,1.8542,1.9148,1.9728,1.9965,1.9978,1.9965,1.9521,1.865,1.8367,1.8084,0.0,0.0,0.0,0.0,0.0,0.0,0.0,0.0,0.0,0.0,0.0,0.0,0.0,0.0,0.0,0.0,0.0,0.0,0.0,0.0,0.0,0.0,0.0,0.0,0.0,0.0,0.0,0.0,0.0,0.0,0.0,0.0,0.0,0.0,0.0,0.0,0.0,0.0,0.0,0.0,0.0,0.0,1.414,1.4222,0.0,0.0,0.0,1.4886,1.517,0.0,0.0,0.0,0.0,0.0,0.0,0.0,0.0,0.0,0.0,0.0,0.0,0.0,0.0,0.0,0.0,0.0,0.0,0.0,0.0,0.0,0.0,0.0,0.0,0.0,0.0,0.0,0.0,0.0,0.0,0.0,0.0,0.0,0.0,0.0,0.0,0.0,0.0,0.0,0.0,0.0,0.0,0.0,0.0,0.0,0.0,0.0,0.0,0.0,0.0,0.0,0.0,0.0,0.0,0.0,0.0,0.0,1.998,2.037,2.0656,2.0792,2.0656,2.0152,1.9282,1.9162,0.0,0.0,0.0,0.0,0.0,0.0,0.0,0.0,0.0,0.0,0.0,0.0,0.0,0.0,0.0,0.0,0.0,0.0,0.0,0.0,0.0,0.0,0.0,0.0,0.0,0.0,0.0,1.4373,0.0,0.0,0.0,0.0,0.0,0.0,0.0,0.0,0.0,0.0,0.0,0.0,0.0,0.0,1.445,1.4568,1.4697,1.4875,0.0,0.0,1.5411,1.5731,1.5785,1.5836,0.0,0.0,0.0,0.0,0.0,0.0,0.0,0.0,0.0,0.0,0.0,0.0,0.0,0.0,0.0,0.0,0.0,0.0,0.0,0.0,0.0,0.0,0.0,0.0,0.0,0.0,0.0,0.0,0.0,0.0,0.0,0.0,0.0,0.0,0.0,0.0,0.0,0.0,0.0,0.0,0.0,0.0,0.0,0.0,0.0,0.0,0.0,0.0,0.0,0.0,0.0,0.0,0.0,0.0,0.0,2.0826,2.0836,2.1139,2.1649,2.1139,2.0777,2.0543,2.0011,1.9451,0.0,0.0,0.0,0.0,0.0,0.0,0.0,0.0,0.0,0.0,0.0,0.0,0.0,0.0,0.0,0.0,0.0,0.0,0.0,0.0,0.0,0.0,0.0,0.0,0.0,0.0,0.0,0.0,0.0,0.0,0.0,0.0,0.0,0.0,0.0,0.0,0.0,0.0,0.0,0.0,0.0,1.5176,1.5622,1.5676,1.5698,0.0,0.0,1.5742,1.5785,1.5796,1.5836,1.5968,0.0,0.0,0.0,0.0,0.0,0.0,0.0,0.0,0.0,0.0,0.0,0.0,0.0,0.0,0.0,0.0,0.0,0.0,0.0,0.0,0.0,0.0,0.0,0.0,0.0,0.0,0.0,0.0,0.0,0.0,0.0,0.0,0.0,0.0,0.0,0.0,0.0,0.0,0.0,0.0,0.0,0.0,0.0,0.0,0.0,0.0,0.0,0.0,0.0,0.0,0.0,0.0,0.0,2.0661,2.0909,2.1282,2.1572,2.1779,2.1586,2.1236,2.0818,2.0584,2.0185,0.0,0.0,0.0,0.0,0.0,0.0,0.0,0.0,0.0,0.0,0.0,0.0,0.0,0.0,0.0,0.0,0.0,0.0,0.0,0.0,0.0,0.0,0.0,0.0,0.0,0.0,0.0,0.0,1.4569,1.4534,1.4499,0.0,0.0,0.0,0.0,0.0,0.0,0.0,0.0,0.0,0.0,1.5618,1.5906,1.5928,0.0,0.0,1.6524,1.6635,1.6935,1.6979,1.6979,1.7022,1.7033,0.0,0.0,0.0,0.0,0.0,0.0,0.0,0.0,0.0,0.0,0.0,0.0,0.0,0.0,0.0,0.0,0.0,0.0,0.0,0.0,0.0,0.0,0.0,0.0,0.0,0.0,0.0,0.0,0.0,0.0,0.0,0.0,0.0,0.0,0.0,0.0,0.0,0.0,0.0,0.0,0.0,0.0,0.0,0.0,0.0,0.0,0.0,0.0,0.0,0.0,0.0,0.0,2.1401,2.137,2.1774,2.1949,2.1888,2.1949,2.1694,2.1232,2.1204,2.0941,0.0,0.0,0.0,0.0,0.0,0.0,0.0,0.0,0.0,0.0,0.0,0.0,0.0,0.0,0.0,0.0,0.0,0.0,0.0,0.0,0.0,0.0,0.0,0.0,0.0,0.0,0.0,0.0,1.4935,1.5036,1.5,0.0,0.0,0.0,0.0,0.0,0.0,0.0,0.0,0.0,0.0,1.6243,1.648,1.6502,1.6688,1.714,1.7185,1.7319,1.7655,1.7711,1.7711,1.7755,0.0,0.0,0.0,0.0,0.0,0.0,0.0,0.0,0.0,0.0,0.0,0.0,0.0,0.0,0.0,0.0,0.0,0.0,0.0,0.0,0.0,0.0,0.0,0.0,0.0,0.0,0.0,0.0,0.0,0.0,1.6327,0.0,0.0,0.0,0.0,0.0,0.0,0.0,0.0,0.0,0.0,0.0,0.0,0.0,0.0,0.0,0.0,0.0,0.0,0.0,0.0,0.0,0.0,2.248,2.2342,2.2356,2.2324,2.2184,2.2184,2.2123,2.1955,2.1969,2.163,2.0896,0.0,0.0,0.0,0.0,0.0,0.0,0.0,0.0,0.0,0.0,0.0,0.0,0.0,0.0,0.0,0.0,0.0,0.0,0.0,0.0,0.0,0.0,0.0,0.0,0.0,0.0,1.4949,1.5263,1.5519,0.0,0.0,0.0,0.0,0.0,0.0,0.0,0.0,0.0,0.0,1.6991,1.7129,1.7588,1.7667,1.7644,1.7678,1.7689,1.7689,1.7711,1.7711,1.7755,0.0,0.0,0.0,0.0,0.0,0.0,0.0,0.0,0.0,0.0,0.0,0.0,0.0,0.0,0.0,0.0,0.0,0.0,0.0,0.0,0.0,0.0,0.0,0.0,0.0,0.0,0.0,1.7427,1.7466,0.0,0.0,0.0,0.0,0.0,0.0,0.0,0.0,0.0,0.0,0.0,1.9191,1.9651,0.0,0.0,0.0,0.0,0.0,0.0,0.0,0.0,0.0,0.0,0.0,0.0,2.2569,2.2555,2.2509,2.2523,2.2463,2.2463,2.2463,2.2417,2.2417,2.1981,2.1195,0.0,0.0,0.0,0.0,0.0,0.0,0.0,0.0,0.0,0.0,0.0,0.0,0.0,0.0,0.0,0.0,0.0,0.0,0.0,0.0,0.0,0.0,0.0,0.0,0.0,1.6057,0.0,0.0,0.0,0.0,0.0,0.0,0.0,0.0,0.0,0.0,0.0,1.7531,1.7702,1.7725,1.7847,1.8127,1.8139,1.8193,0.0,0.0,0.0,0.0,0.0,0.0,0.0,0.0,0.0,0.0,0.0,0.0,0.0,0.0,1.8302,1.8302,1.829,1.8247,1.8205,0.0,0.0,0.0,0.0,0.0,0.0,0.0,0.0,0.0,0.0,0.0,0.0,0.0,0.0,1.8386,0.0,1.8595,0.0,0.0,0.0,0.0,0.0,0.0,0.0,0.0,1.9564,1.9757,2.0129,2.0596,2.0813,0.0,2.1535,2.1477,0.0,0.0,0.0,0.0,0.0,0.0,0.0,0.0,2.2752,2.2675,2.2675,2.2661,2.2615,2.2615,2.2615,2.2615,2.2615,2.2324,2.1775,2.1671,2.1352,0.0,0.0,0.0,0.0,0.0,0.0,0.0,0.0,0.0,0.0,0.0,0.0,0.0,0.0,0.0,0.0,0.0,0.0,0.0,0.0,0.0,0.0,0.0,1.692,0.0,0.0,0.0,0.0,0.0,0.0,0.0,0.0,0.0,1.7891,1.8093,1.8302,1.8302,1.8247,1.8302,1.8464,0.0,0.0,0.0,0.0,0.0,0.0,0.0,1.9211,1.9223,1.9266,1.9309,1.9309,1.9376,1.9376,1.9309,0.0,0.0,1.8684,1.8614,1.856,1.8464,1.8476,1.841,1.8302,1.8236,1.8302,0.0,0.0,0.0,0.0,0.0,0.0,0.0,0.0,1.8666,1.8835,0.0,1.908,0.0,0.0,0.0,0.0,0.0,1.9465,0.0,0.0,2.0454,2.0842,2.1471,2.1555,2.1625,2.1749,2.2424,2.2739,2.2682,2.2458,0.0,0.0,0.0,0.0,0.0,0.0,2.3007,2.2841,2.2795,2.2749,2.2646,2.2661,2.2615,2.2601,2.2615,2.2615,2.2601,2.2601,2.2495,2.2388,2.1699,0.0,0.0,0.0,0.0,0.0,0.0,0.0,0.0,0.0,0.0,0.0,0.0,0.0,0.0,0.0,0.0,0.0,0.0,0.0,0.0,1.7811,0.0,0.0,0.0,0.0,0.0,0.0,0.0,0.0,0.0,0.0,1.878,1.8661,1.8637,1.8637,0.0,0.0,0.0,0.0,1.8861,1.9392,1.9462,1.9627,2.0169,2.0355,2.0389,2.0389,0.0,0.0,2.0607,2.0746,2.0779,2.0677,2.064,2.0374,1.8981,1.8731,1.8708,1.8708,1.8731,1.8672,1.8672,1.8785,1.8672,2.04,0.0,0.0,0.0,0.0,1.9962,2.0059,2.0196,2.0385,2.0491,2.0531,2.0665,0.0,0.0,0.0,0.0,0.0,0.0,2.1201,2.1458,2.1458,2.1696,2.2009,2.248,2.2772,2.2867,2.3524,2.3819,2.3679,2.3622,2.3411,2.314,0.0,0.0,0.0,0.0,2.3187,2.3157,2.3157,2.3142,2.3098,2.3098,2.3053,2.2947,2.2826,2.2735,2.2735,2.2675,2.2569,2.2555,2.2352,0.0,0.0,0.0,0.0,0.0,0.0,0.0,0.0,0.0,0.0,0.0,0.0,0.0,0.0,0.0,0.0,0.0,0.0,0.0,1.8621,1.8958,1.9183,0.0,0.0,0.0,0.0,0.0,0.0,0.0,0.0,0.0,2.0643,2.011,1.977,0.0,0.0,2.0378,2.0365,2.0378,2.0426,2.0584,2.0609,0.0,2.0815,2.0897,2.0897,2.0897,2.0954,2.0941,2.0941,2.0998,2.1011,2.0954,2.1011,2.0844,2.0463,2.0153,2.0029,2.0041,2.0085,2.0185,2.0173,1.9951,1.9715,2.1917,2.1198,2.0812,2.074,2.0782,2.0878,2.0961,2.1114,2.1248,2.137,2.149,2.1545,2.1625,2.1689,2.1798,0.0,0.0,0.0,2.2139,2.2452,2.2452,2.2683,2.3132,2.3533,2.3758,2.3838,2.4225,2.4385,2.4287,2.4261,2.4273,2.4303,0.0,0.0,2.3494,2.3494,2.3613,2.3807,2.3748,2.3748,2.3792,2.3452,2.3275,2.3216,2.3037,2.3007,2.3007,2.2933,2.2828,2.2723,2.2737,2.2678,0.0,0.0,0.0,0.0,0.0,0.0,0.0,0.0,0.0,0.0,0.0,1.9061,1.9157,0.0,0.0,0.0,1.9256,1.9349,1.962,2.0156,0.0,0.0,0.0,0.0,0.0,0.0,0.0,2.1332,2.1358,2.1473,2.1792,2.1602,2.1285,2.0784,2.1058,2.1256,2.1269,0.0,2.1343,2.1567,2.1604,2.1621,2.1832,2.194,2.2056,2.2101,2.2101,2.2101,2.2101,2.2101,2.2101,2.2056,2.1998,2.1998,2.194,2.1694,2.136,2.0937,2.084,2.0885,2.0941,2.0729,2.0563,2.3526,2.3467,2.2014,2.1374,2.1274,2.1383,2.1506,2.1588,2.1679,2.1824,2.2091,2.2106,2.2146,2.2239,2.237,0.0,2.2485,2.2523,2.284,2.3418,2.3458,2.3823,2.4523,2.4585,2.4698,2.4748,2.4811,2.4842,2.4817,2.4792,2.5046,2.5563,2.4694,2.4134,2.399,2.399,2.4249,2.4747,2.4642,2.4566,2.4596,2.3881,2.3496,2.3526,2.3467,2.3482,2.3482,2.3482,2.3378,2.3094,2.3036,2.2931,2.2718,0.0,0.0,0.0,0.0,0.0,0.0,0.0,0.0,0.0,0.0,0.0,0.0,0.0,0.0,0.0,2.0777,0.0,2.0804,2.1327,0.0,0.0,0.0,2.2469,2.2469,2.2456,2.2482,2.2535,0.0,0.0,2.26,2.3086,2.3063,2.2018,2.1749,2.168,2.1693,2.1731,2.187,2.238,2.243,2.2619,2.3056,2.3289,2.3408,2.3513,2.3616,2.3551,2.3551,2.3564,2.3543,2.3386,2.3437,2.3352,2.3185,2.311,2.2824,2.1642,2.1354,2.1341,2.1378,2.1317,2.1299,2.5213,2.5152,2.4386,2.3625,2.2962,2.3118,2.3188,2.3245,2.3425,2.3523,2.3549,2.3687,2.38,2.3937,2.4098,2.4201,2.4186,2.432,2.4438,2.4595,2.4595,2.4713,2.4966,2.5543,2.5805,2.5918,2.6468,2.6729,2.6677,2.6635,2.6656,2.6698,2.6369,2.606,2.5812,2.5753,2.58,2.5849,2.5804,2.5743,2.5652,2.5333,2.5213,2.5198,2.5182,2.5105,2.498,2.498,2.4887,2.4717,2.4261,2.3935,2.3904,2.3421,0.0,0.0,0.0,0.0,0.0,0.0,0.0,0.0,0.0,2.1043,2.1048,0.0,2.1269,0.0,2.2382,2.2638,2.2638,2.276,0.0,0.0,2.2975,2.307,2.307,2.307,2.3231,2.3649,2.3703,2.3878,2.4294,2.4482,2.448,2.408,2.3712,2.3425,2.3347,2.3438,2.3476,2.3502,2.3573,2.3729,2.38,2.3897,2.3969,2.3956,2.4015,2.3956,2.4015,2.3943,2.3956,2.3956,2.3969,2.3897,2.3897,2.3839,2.3761,2.3444,2.3102,2.282,2.282,2.2597,2.242,2.5971,2.594,2.5816,2.5404,2.4817,2.4225,2.3952,2.4036,2.4219,2.4302,2.4343,2.4482,2.4605,2.4766,2.4886,2.4966,2.5037,2.5401,2.5624,2.5679,2.5983,2.6222,2.6302,2.6728,2.6961,2.6977,2.7388,2.7515,2.7448,2.7422,2.7524,2.7742,2.764,2.7668,2.7758,2.6956,2.6667,2.6886,2.6841,2.6765,2.6596,2.6245,2.6047,2.6047,2.5971,2.5909,2.5816,2.577,2.563,2.5426,2.5084,2.486,2.4766,2.4412,2.4159,0.0,0.0,0.0,0.0,0.0,0.0,0.0,0.0,0.0,0.0,0.0,2.271,2.3069,2.331,2.3502,2.3554,2.3788,2.4006,2.4058,2.4293,2.4445,2.4459,2.4445,2.4583,2.4887,2.4928,2.4984,2.5287,2.5342,2.5244,2.5131,2.4905,2.462,2.4274,2.4274,2.4319,2.4229,2.4319,2.4421,2.4492,2.4492,2.4536,2.4478,2.4478,2.4492,2.4465,2.4478,2.4478,2.4536,2.4478,2.4478,2.4478,2.4478,2.4478,2.4478,2.4319,2.4028,2.3793,2.3502,2.3296,2.652,2.652,2.6714,2.6756,2.6663,2.5145,2.4564,2.4663,2.4787,2.4885,2.4977,2.5073,2.5234,2.5417,2.5417,2.5495,2.5676,2.6254,2.6567,2.6751,2.7365,2.7737,2.7859,2.7957,2.7989,2.7989,2.8087,2.8053,2.793,2.7913,2.8194,2.8705,2.8693,2.8998,2.9483,2.7905,2.7384,2.7889,2.7828,2.7721,2.7612,2.704,2.6731,2.6731,2.6611,2.6535,2.6489,2.6382,2.6182,2.5948,2.5826,2.5702,2.5512,2.5453,2.5393,0.0,2.5393,0.0,0.0,0.0,0.0,0.0,0.0,0.0,0.0,2.4247,2.4253,2.4128,2.4044,2.4086,2.4203,2.4665,2.504,2.5159,2.5624,2.5948,2.5948,2.5948,2.5948,2.5948,2.5948,2.5893,2.5784,2.5784,2.5743,2.573,2.5702,2.5589,2.5121,2.4912,2.4734,2.4664,2.4791,2.4892,2.5018,2.5075,2.5075,2.5075,2.5061,2.5104,2.5118,2.5118,2.5118,2.5118,2.5104,2.5061,2.5061,2.5061,2.5075,2.5061,2.5005,2.4835,2.4305,2.4144,2.3995,2.8295,2.8249,2.7856,2.7651,2.7588,2.6977,2.6572,2.6428,2.6556,2.6699,2.6876,2.6892,2.6974,2.713,2.7179,2.7284,2.7436,2.7662,2.7784,2.7823,2.7914,2.8036,2.8069,2.8608,2.8854,2.8903,2.9459,2.9753,2.9695,2.9695,2.9776,2.9864,2.9778,2.98,2.9886,0.0,0.0,0.0,2.8886,2.8794,2.8778,2.8668,2.8543,2.8419,2.8389,0.0,2.8138,2.8011,2.7867,2.7692,2.7079,0.0,0.0,0.0,0.0,0.0,0.0,0.0,0.0,0.0,0.0,0.0,2.6402,2.6054,2.4753,2.4912,2.516,2.5123,2.5526,2.5824,2.5824,2.5923,2.5994,2.6062,2.6162,2.6218,2.6233,2.6233,2.6218,2.6218,2.6233,2.6233,2.6275,2.6179,2.6378,2.6735,2.682,2.6905,2.7111,2.6088,2.5285,2.5118,2.5339,2.541,2.5383,2.5466,2.5522,2.5522,2.5564,2.5619,2.5674,2.5715,2.5729,2.5729,2.5674,2.555,2.5564,2.5481,2.5425,2.5425,2.5439,2.5257,2.4791,2.4664,2.462,2.8951,0.0,2.8803,2.8674,0.0,2.8475,2.8359,2.8252,2.7551,2.7374,2.7524,2.7541,2.7664,2.7818,2.7899,2.7939,2.8036,2.842,2.8624,2.8721,2.9083,2.9247,2.9288,2.9634,2.9799,2.9815,3.0178,3.0316,3.0274,3.0316,3.0274,3.0205,3.0146,3.0119,3.0119,3.006,2.9853,2.9544,2.947,2.9425,2.9412,2.9412,2.9321,2.9213,2.9167,0.0,0.0,0.0,0.0,0.0,0.0,0.0,0.0,0.0,0.0,2.6972,2.6988,2.694,2.6796,2.7097,2.7244,2.7096,2.7345,2.7054,2.6009,2.6097,2.6197,2.6211,2.6366,2.6539,2.6606,2.6674,2.6659,2.6765,2.675,2.6765,2.6765,2.675,2.6895,2.7186,2.7229,2.7331,2.7527,2.7585,2.7631,2.7822,2.7838,2.7911,2.8026,2.7285,2.6594,2.658,2.6651,2.6652,2.6441,2.6371,2.6231,2.6115,2.6002,2.6002,2.6125,2.6125,2.6125,2.6111,2.6056,2.5988,2.6002,2.5962,2.5907,2.5921,2.5921,2.5798,2.5508,2.523,2.5005,2.9213,2.935,2.9457,2.9518,2.9518,2.9563,2.9653,2.9689,0.0,0.0,0.0,2.8118,2.8274,2.8493,2.8493,2.8533,2.8566,2.9067,2.9412,2.9527,3.012,3.0459,3.0468,3.0468,3.0468,3.0468,3.0468,3.0485,3.0401,3.0401,3.0359,3.0274,3.0248,3.0297,3.0471,3.0428,3.0391,3.0298,3.0141,3.0113,3.0186,3.0158,3.0129,2.9932,2.9854,2.9671,2.9501,2.9265,2.8982,2.8711,2.8506,2.8363,2.8103,2.8054,2.8069,2.8054,2.8069,2.8115,2.8221,2.8187,2.8232,2.8354,2.8238,2.7931,2.7314,2.7144,2.7099,2.7217,2.7083,2.7074,2.731,2.7392,2.7445,2.752,2.752,2.7535,2.752,2.752,2.7771,2.8252,2.8302,2.8493,2.8799,2.8873,2.8934,2.8951,2.8868,2.8842,2.8828,2.8311,2.7795,2.7853,2.7797,2.784,2.7583,2.7283,2.7069,2.664,2.6426,2.634,2.6394,2.6394,2.6394,2.6394,2.6394,2.634,2.6326,2.6286,2.6286,2.6286,2.6286,2.6286,2.6111,2.5715,2.5397,2.9473,2.9457,2.9608,2.9697,2.9681,2.9858,3.0017,3.0103,2.9789,2.9707,2.9835,2.9852,2.9936,3.0062,3.0079,3.0087,3.0187,3.027,3.0336,3.0319,3.0435,3.0485,3.0468,3.0468,3.0468,3.0468,3.0485,3.0468,3.0485,3.0518,3.0485,3.0501,3.0485,3.0815,3.1335,3.1384,3.1682,3.2243,3.1522,3.1389,3.2011,3.2027,3.189,3.1672,3.1593,3.1437,3.1086,3.0386,2.9942,2.9734,2.8995,2.8589,2.8541,2.8427,2.8363,2.8348,2.8363,2.8544,2.9011,2.9042,2.9251,2.9666,2.9674,2.91,2.7694,2.7437,2.7536,2.7986,2.8007,2.8243,2.8689,2.8788,2.8744,2.8788,2.8803,2.8817,2.8773,2.8758,2.8857,2.9005,2.8965,2.8994,2.9186,2.9201,2.9422,2.9748,2.9866,3.0057,3.0221,2.9247,2.8283,2.814,2.814,2.8154,2.8111,2.7597,2.7437,2.7334,2.6885,2.6635,2.6712,2.677,2.6799,2.6756,2.6693,2.6625,2.6611,2.6379,2.6494,2.6537,2.6469,2.6412,2.6358,2.6221,2.6002,3.0794,3.0886,3.0978,3.107,3.107,3.125,3.1368,3.1424,3.138,3.0937,3.0349,3.0274,3.0375,3.0443,3.0443,3.0485,3.0543,3.094,3.108,3.1139,3.152,3.1686,3.1686,3.1702,3.1702,3.1702,3.1702,3.1686,3.1686,3.1686,3.1702,3.1686,3.1702,3.1868,3.2166,3.2199,3.2564,3.3243,3.2475,3.2187,3.2426,3.2442,3.238,3.2213,3.2166,3.1979,3.1726,3.123,3.0879,3.0669,3.019,2.9855,2.9822,2.9689,2.9589,2.9589,2.9554,2.9577,2.9817,2.9848,2.9971,3.0225,3.0225,2.9892,2.9061,2.8897,2.8929,2.9147,2.9192,2.9312,2.9559,2.9535,2.9495,2.9495,2.9441,2.9401,2.9401,2.9401,2.9535,2.9763,2.9852,2.9971,3.0357,3.0401,3.0476,3.0802,3.0832,3.085,3.1087,3.0412,2.9755,2.977,2.9755,2.958,2.929,2.9013,2.8604,2.8031,2.7623,2.734,2.7173,2.7261,2.7524,2.7598,2.772,2.7915,2.79,2.7875,2.7781,2.7697,2.7422,2.7238,2.7111,2.6745,2.6272,3.1885,3.2012,3.2089,3.2183,3.2229,3.2367,3.2488,3.2529,3.2529,3.1918,3.1021,3.0938,3.0938,3.1007,3.1007,3.1007,3.109,3.1603,3.1868,3.1918,3.2431,3.2663,3.2663,3.2663,3.2663,3.2663,3.2663,3.2663,3.2663,3.2663,3.2663,3.2663,3.2663,3.2762,3.2945,3.2928,3.3292,3.3955,3.352,3.3176,3.304,3.304,3.3011,3.2905,3.2765,3.2671,3.248,3.2048,3.1709,3.1512,3.1171,3.0927,3.0842,3.0705,3.0654,3.067,3.0567,3.0541,3.0747,3.0902,3.0994,3.0942,3.0994,3.0926,3.0821,3.0738,3.0517,3.0274,3.019,3.0251,3.0448,3.041,3.0271,3.0271,3.0232,3.0198,3.0138,3.0138,3.0303,3.0769,3.0844,3.1069,3.1447,3.1597,3.1552,3.1522,3.1524,3.1409,3.1307,3.1322,3.1307,3.1264,3.119,3.0837,3.0365,3.0115,2.9628,2.8724,2.8449,2.8198,2.7904,2.8095,2.837,2.8405,2.8729,2.8895,2.9068,2.9068,2.8969,2.8755,2.8477,2.813,2.7733,2.7118,2.6553,3.2028,3.2012,3.206,3.2136,3.2417,3.2475,3.2611,3.2701,3.2713,3.263,3.2497,3.2481,3.2464,3.2481,3.2431,3.2398,3.2415,3.2547,3.258,3.2597,3.2646,3.268,3.2746,3.2729,3.268,3.2729,3.2762,3.2812,3.2812,3.2762,3.2696,3.2663,3.2663,3.3061,3.3607,3.369,3.4054,3.4767,3.4828,3.4795,3.4684,3.4684,3.4589,3.4493,3.4332,3.4154,3.3809,3.3044,3.2508,3.231,3.1505,3.1008,3.1024,3.0857,3.0807,3.0822,3.0787,3.1005,3.1644,3.2282,3.2609,3.2656,3.2594,3.2594,3.2594,3.2555,3.2106,3.1219,3.0919,3.1201,3.1708,3.1738,3.1663,3.1632,3.1622,3.1758,3.1667,3.1814,3.1788,3.1819,3.1758,3.1864,3.1925,3.194,3.1955,3.1883,3.1883,3.1811,3.1826,3.1826,3.1826,3.1769,3.1482,3.1176,3.094,3.0497,3.0155,2.9847,2.9433,2.9034,2.8872,2.8902,2.9009,2.9134,2.9212,2.9345,2.9315,2.9112,2.9201,2.9348,2.9171,2.8792,2.8125,2.7433,2.6895,3.3242,3.3242,3.334,3.3485,3.3629,3.3754,3.3848,3.3895,3.3988,3.3988,3.3988,3.3988,3.3508,3.268,3.2663,3.2663,3.2713,3.3127,3.3326,3.3375,3.3789,3.4005,3.3988,3.3988,3.3988,3.4005,3.3988,3.3988,3.4005,3.3988,3.3988,3.3988,3.3988,3.4154,3.4435,3.4452,3.4601,3.4883,3.5041,3.5105,3.5058,3.4994,3.4963,3.4835,3.4707,3.4546,3.4333,3.3809,3.3414,3.3211,3.2752,3.244,3.2388,3.2233,3.2128,3.2128,3.2092,3.2164,3.2429,3.2741,3.2912,3.2912,3.2912,3.2912,3.2912,3.2912,3.2648,3.2214,3.2013,3.2041,3.2201,3.2206,3.215,3.2094,3.2053,3.2012,3.2012,3.2012,3.2012,3.2012,3.2012,3.2012,3.2012,3.2012,3.2012,3.2012,3.2012,3.1996,3.1996,3.2012,3.2012,3.1996,3.1769,3.1655,3.1567,3.1444,3.1027,3.0612,3.0313,3.0018,2.9565,2.9759,2.9922,2.9937,3.0149,3.0372,3.0607,3.049,3.0476,3.0315,2.9817,2.9378,2.8321,2.7909,2.751,3.4101,3.4084,3.4234,3.4349,3.4448,3.4594,3.4643,3.4643,3.4804,3.4851,3.4851,3.4899,3.4319,3.3392,3.3292,3.3292,3.3359,3.3839,3.4087,3.4154,3.4651,3.4899,3.4899,3.4899,3.4899,3.4899,3.4866,3.4883,3.4899,3.4899,3.4899,3.4899,3.4899,3.4899,3.4899,3.4899,3.4899,3.4947,3.5088,3.5135,3.5152,3.5152,3.5088,3.4947,3.4804,3.4659,3.4497,3.4234,3.4,3.3761,3.3591,3.345,3.3346,3.3256,3.315,3.315,3.3058,3.3005,3.3005,3.3005,3.3005,3.3005,3.3005,3.3005,3.3005,3.3005,3.3005,3.2951,3.2827,3.2687,3.2523,3.2484,3.2373,3.2318,3.2206,3.215,3.2094,3.2094,3.2094,3.2094,3.215,3.2094,3.2094,3.215,3.215,3.215,3.215,3.2094,3.2094,3.215,3.2079,3.2094,3.2094,3.2038,3.2053,3.191,3.1667,3.144,3.1086,3.0895,3.0318,3.0638,3.0776,3.0795,3.1258,3.1377,3.1213,3.1317,3.1407,3.1202,3.0728,2.9933,2.9148,2.8631,2.8075,3.4101,3.4084,3.425,3.4284,3.43,3.4448,3.4497,3.4497,3.4643,3.4707,3.4756,3.4835,3.4849,3.47,3.4651,3.475,3.4767,3.4767,3.4767,3.4783,3.4866,3.4899,3.4899,3.4899,3.4899,3.4899,3.4899,3.4899,3.4899,3.4899,3.4899,3.4899,3.4947,3.4899,3.4947,3.4947,3.4963,3.5105,3.5245,3.5291,3.5291,3.5308,3.5245,3.5105,3.4851,3.4643,3.4497,3.425,3.405,3.3899,3.3658,3.3503,3.3503,3.3361,3.3293,3.3309,3.3256,3.3256,3.3256,3.3256,3.324,3.324,3.3256,3.3256,3.3256,3.3256,3.3203,3.3096,3.3043,3.2989,3.2897,3.2827,3.2718,3.2594,3.2594,3.2523,3.2398,3.2398,3.2398,3.2398,3.2398,3.2413,3.2398,3.2382,3.2398,3.2398,3.2398,3.2342,3.2342,3.2342,3.2342,3.2342,3.2358,3.2287,3.2109,3.2053,3.2023,3.1814,3.1708,3.1788,3.1751,3.1739,3.158,3.1492,3.1495,3.1524,3.1524,3.1467,3.1452,3.1317,3.0989,3.0335,2.9807,2.9035,2.8521,3.4016,3.4101,3.4151,3.4151,3.4201,3.43,3.4349,3.4415,3.4497,3.4546,3.4594,3.4594,3.4691,3.4739,3.4756,3.4851,3.4899,3.4899,3.4899,3.4899,3.4899,3.4899,3.4899,3.4899,3.4899,3.4899,3.4899,3.4899,3.4899,3.4994,3.5041,3.5058,3.5088,3.5152,3.5152,3.5135,3.5182,3.5245,3.5337,3.5446,3.5446,3.5446,3.5354,3.5245,3.4947,3.4739,3.4659,3.4448,3.4234,3.4066,3.3848,3.3694,3.3642,3.3503,3.3414,3.3309,3.3293,3.3293,3.3293,3.3293,3.3293,3.3293,3.3293,3.3324,3.3293,3.3293,3.3293,3.3256,3.3219,3.3203,3.3165,3.3005,3.2897,3.2843,3.2788,3.2773,3.2718,3.2703,3.2703,3.2718,3.2718,3.2703,3.2703,3.2703,3.2664,3.2523,3.2523,3.2523,3.2398,3.2398,3.2398,3.2398,3.2398,3.2382,3.2287,3.2231,3.2231,3.2135,3.2064,3.1992,3.1981,3.194,3.1838,3.1667,3.1655,3.1597,3.1597,3.1524,3.1524,3.1465,3.112,3.0839,3.0526,2.9799,2.9372,3.3899,3.3949,3.3949,3.4,3.405,3.4151,3.4201,3.425,3.4349,3.4448,3.4448,3.4497,3.4546,3.4643,3.4643,3.4707,3.4787,3.4835,3.4899,3.4899,3.4899,3.4899,3.4899,3.4899,3.4899,3.4899,3.4899,3.4899,3.4994,3.5041,3.5135,3.5152,3.5245,3.5308,3.5308,3.5308,3.5291,3.5383,3.5446,3.5492,3.5537,3.5554,3.5446,3.5291,3.5088,3.4899,3.4691,3.4546,3.4399,3.4151,3.4,3.3848,3.3694,3.3607,3.3539,3.345,3.345,3.3398,3.345,3.345,3.3398,3.343,3.3636,3.3678,3.3694,3.383,3.3957,3.3972,3.3972,3.3972,3.3871,3.3621,3.3239,3.3013,3.2951,3.2951,3.2897,3.2912,3.2912,3.2912,3.2858,3.2897,3.2912,3.2912,3.2843,3.2718,3.2703,3.2648,3.2594,3.2578,3.2508,3.2453,3.2468,3.2453,3.2398,3.2342,3.2342,3.2302,3.2247,3.2191,3.2094,3.2094,3.2053,3.1898,3.1841,3.1727,3.1655,3.1597,3.1582,3.1524,3.1392,3.1183,3.0884,3.0642,3.0197,3.371,3.3694,3.3694,3.3797,3.3899,3.3899,3.4,3.4101,3.425,3.43,3.43,3.4448,3.4448,3.4497,3.4497,3.4497,3.4578,3.4787,3.4899,3.4899,3.4899,3.4899,3.4899,3.4899,3.4899,3.4899,3.4899,3.4963,3.5088,3.5105,3.5198,3.5308,3.5337,3.5337,3.5308,3.5354,3.54,3.5492,3.5492,3.552,3.5577,3.552,3.5429,3.5308,3.5198,3.4994,3.4739,3.4546,3.4448,3.43,3.405,3.3848,3.3745,3.371,3.371,3.3642,3.3642,3.371,3.3694,3.3706,3.3786,3.3866,3.424,3.4498,3.4578,3.4951,3.5229,3.5197,3.5189,3.5252,3.511,3.4668,3.4013,3.3307,3.3159,3.3043,3.2951,3.2912,3.2912,3.2951,3.2966,3.2897,3.2897,3.2951,3.2951,3.2897,3.2897,3.2897,3.2843,3.2843,3.2788,3.2648,3.2648,3.2594,3.2523,3.2398,3.2398,3.2398,3.2342,3.2342,3.2247,3.2206,3.215,3.2053,3.194,3.1883,3.1841,3.1769,3.1712,3.164,3.1582,3.1509,3.1285,3.1057,3.0776,3.3607,3.3694,3.3694,3.3694,3.3745,3.3761,3.3848,3.3949,3.4,3.4101,3.4151,3.4201,3.4284,3.4349,3.4349,3.4399,3.4497,3.4707,3.4739,3.4787,3.4835,3.4899,3.4899,3.4899,3.4899,3.4899,3.4899,3.4947,3.5088,3.5198,3.5291,3.5446,3.5458,3.5487,3.5503,3.5503,3.5549,3.5549,3.5577,3.5577,3.556,3.5594,3.5475,3.5337,3.5245,3.5105,3.4835,3.4594,3.4497,3.4448,3.4201,3.4,3.3848,3.3848,3.3797,3.3694,3.3694,3.3694,3.3758,3.4158,3.4498,3.4558,3.5016,3.5352,3.5416,3.549,3.5594,3.5594,3.545,3.5394,3.5347,3.5205,3.4747,3.3997,3.354,3.3282,3.3275,3.3228,3.3203,3.315,3.315,3.315,3.3165,3.3181,3.3159,3.3105,3.3074,3.3005,3.2966,3.2912,3.2912,3.2843,3.2788,3.2773,3.2718,3.2594,3.2578,3.2523,3.2453,3.2382,3.2342,3.2302,3.2262,3.2206,3.2094,3.1996,3.194,3.194,3.1883,3.1826,3.1769,3.1697,3.1682,3.1459,3.1162,3.3435,3.3555,3.3555,3.3607,3.3607,3.3591,3.371,3.3797,3.3813,3.3899,3.4,3.405,3.4101,3.4201,3.4201,3.425,3.4333,3.4546,3.4643,3.4643,3.4804,3.4899,3.4899,3.4899,3.4899,3.4899,3.4899,3.4994,3.5152,3.5245,3.5367,3.552,3.5577,3.5577,3.5639,3.5639,3.5639,3.5639,3.5639,3.5639,3.5622,3.5639,3.5549,3.54,3.5337,3.5182,3.5011,3.4707,3.4546,3.4448,3.425,3.405,3.4,3.3949,3.3965,3.3947,3.4105,3.4266,3.433,3.5009,3.5342,3.5439,3.5915,3.6284,3.6293,3.6326,3.6437,3.6437,3.6413,3.6324,3.6324,3.607,3.5721,3.5253,3.4564,3.4115,3.4083,3.4083,3.4115,3.4162,3.4146,3.4083,3.4067,3.3767,3.365,3.3565,3.3307,3.315,3.3058,3.3058,3.3058,3.3005,3.2951,3.2951,3.2912,3.2843,3.2703,3.2648,3.2523,3.2453,3.2398,3.2398,3.2358,3.2302,3.2247,3.2135,3.2094,3.2094,3.2038,3.1996,3.1955,3.1883,3.1826,3.1712,3.1489,3.315,3.3309,3.3309,3.3414,3.3503,3.3519,3.3555,3.371,3.3694,3.3745,3.3848,3.3899,3.3949,3.405,3.4101,3.4101,3.4151,3.4349,3.4497,3.4594,3.4756,3.4883,3.4899,3.4899,3.4899,3.4899,3.4899,3.5058,3.5261,3.5291,3.5412,3.5577,3.5577,3.5639,3.5639,3.5639,3.5639,3.5639,3.5639,3.5639,3.5639,3.5639,3.5549,3.5492,3.5337,3.5245,3.5088,3.4804,3.4594,3.4497,3.425,3.4101,3.4101,3.4101,3.4101,3.4083,3.4764,3.504,3.5299,3.5845,3.6282,3.6346,3.6803,3.715,3.7214,3.7472,3.7646,3.7662,3.7652,3.7732,3.7604,3.7253,3.6797,3.6628,3.5712,3.5221,3.5331,3.5268,3.5126,3.5205,3.5363,3.5347,3.5173,3.4683,3.4431,3.4241,3.3862,3.3492,3.3382,3.336,3.3234,3.3165,3.3112,3.3112,3.3058,3.2951,3.2881,3.2812,3.2703,3.2594,3.2523,3.2468,3.2468,3.2398,3.2398,3.2302,3.2247,3.2247,3.2191,3.215,3.2109,3.2053,3.1955,3.1898,3.1784,3.3096,3.315,3.3256,3.3309,3.3346,3.3361,3.345,3.3555,3.3539,3.3642,3.3745,3.3745,3.3848,3.3949,3.3949,3.4,3.4151,3.43,3.4399,3.4497,3.4643,3.4804,3.4899,3.4899,3.4899,3.4899,3.4899,3.5041,3.5308,3.5308,3.5412,3.5577,3.5639,3.5639,3.5639,3.5639,3.5639,3.5639,3.5639,3.5639,3.5639,3.5639,3.5549,3.5492,3.5383,3.5245,3.5088,3.4756,3.4497,3.4349,3.4201,3.4101,3.4101,3.4101,3.4101,3.4214,3.4748,3.5185,3.5428,3.6335,3.6967,3.7112,3.7607,3.8044,3.806,3.8108,3.8107,3.8107,3.7992,3.7934,3.7886,3.7742,3.7572,3.7371,3.6372,3.5577,3.5545,3.5394,3.5394,3.5394,3.5458,3.5505,3.5473,3.53,3.511,3.4984,3.4525,3.402,3.3988,3.3593,3.3429,3.3356,3.3272,3.3256,3.3203,3.3112,3.3058,3.2989,3.2935,3.2827,3.2718,3.2648,3.2594,3.2523,3.2523,3.2468,3.2413,3.2342,3.2302,3.2247,3.2191,3.215,3.2094,3.2038,3.1981,3.2935,3.2989,3.315,3.3203,3.3203,3.324,3.3361,3.3414,3.3398,3.3503,3.3607,3.3607,3.371,3.3899,3.3899,3.4,3.4101,3.425,3.4349,3.4497,3.4691,3.4851,3.4899,3.4899,3.4899,3.4899,3.4899,3.5041,3.5261,3.5308,3.5412,3.5577,3.5639,3.5639,3.5639,3.5639,3.5639,3.5639,3.5639,3.5639,3.5639,3.5639,3.5594,3.552,3.5383,3.5198,3.4994,3.4739,3.4546,3.4399,3.4201,3.4101,3.4101,3.4101,3.4101,3.4133,3.4781,3.5315,3.5785,3.6724,3.742,3.7744,3.8213,3.8343,3.8391,3.8351,3.8294,3.8294,3.8164,3.8107,3.8107,3.8049,3.8049,3.7863,3.7084,3.6492,3.6419,3.6426,3.6378,3.6378,3.6321,3.6263,3.6248,3.6011,3.5853,3.5695,3.5221,3.4905,3.4699,3.4115,3.3773,3.3773,3.362,3.3572,3.3572,3.3535,3.352,3.3451,3.3256,3.315,3.2951,3.2827,3.2773,3.2703,3.2648,3.2594,3.2594,3.2523,3.2453,3.2413,3.2358,3.2302,3.2247,3.2191,3.2079,3.2703,3.2897,3.3005,3.3058,3.3096,3.3203,3.3256,3.3256,3.3309,3.3346,3.345,3.3503,3.3607,3.3848,3.3848,3.3949,3.4101,3.4201,3.4349,3.4546,3.4691,3.4835,3.4899,3.4899,3.4899,3.4899,3.4899,3.5058,3.5261,3.5308,3.5412,3.5532,3.5639,3.5639,3.5639,3.5639,3.5639,3.5639,3.5639,3.5639,3.5639,3.5639,3.5594,3.5577,3.5383,3.5198,3.4947,3.4756,3.4594,3.4513,3.425,3.4151,3.4101,3.4101,3.4101,3.423,3.4781,3.5477,3.6222,3.6886,3.763,3.8165,3.8343,3.8391,3.8408,3.8408,3.8335,3.8335,3.8391,3.8335,3.8335,3.8294,3.8221,3.8132,3.7953,3.796,3.7918,3.7817,3.77,3.7685,3.7551,3.7524,3.7381,3.6975,3.6532,3.6469,3.6036,3.5696,3.5411,3.5006,3.4689,3.4632,3.4367,3.3921,3.3989,3.4042,3.401,3.3926,3.3634,3.345,3.3203,3.3096,3.3005,3.2935,3.2866,3.2827,3.2788,3.2718,3.2648,3.2578,3.2539,3.2468,3.2398,3.2302,3.2247,3.2523,3.2648,3.2881,3.2951,3.2951,3.3112,3.315,3.315,3.3256,3.3293,3.3346,3.3346,3.345,3.3607,3.371,3.3813,3.3949,3.4101,3.4234,3.4497,3.4659,3.4804,3.4899,3.4899,3.4899,3.4899,3.4899,3.5041,3.5245,3.5337,3.5412,3.5577,3.5639,3.5639,3.5639,3.5639,3.5639,3.5639,3.5639,3.5639,3.5639,3.5622,3.5577,3.5577,3.5412,3.5198,3.4947,3.4739,3.4643,3.448,3.4349,3.4201,3.4101,3.4101,3.4101,3.423,3.4748,3.5477,3.6222,3.6837,3.7598,3.8116,3.8278,3.8391,3.8391,3.8391,3.8391,3.8391,3.8391,3.8391,3.8391,3.8391,3.8335,3.8335,3.8278,3.8278,3.8221,3.8049,3.7876,3.7876,3.7817,3.7759,3.7642,3.7546,3.7266,3.7191,3.6885,3.6419,3.611,3.5816,3.5632,3.5511,3.5144,3.483,3.4883,3.4957,3.4897,3.4784,3.4494,3.4037,3.383,3.3593,3.3588,3.3366,3.3096,3.3043,3.3058,3.2951,3.2827,3.2773,3.2718,3.2594,3.2523,3.2413,3.2342,3.2358,3.2413,3.2664,3.2773,3.2773,3.2951,3.3005,3.2989,3.315,3.3203,3.3187,3.324,3.3361,3.3503,3.3658,3.3797,3.3949,3.4101,3.425,3.4448,3.4611,3.4756,3.4804,3.4851,3.4899,3.4899,3.4947,3.5088,3.5245,3.54,3.5475,3.5577,3.5639,3.5639,3.5639,3.5639,3.5639,3.5639,3.5639,3.5639,3.5639,3.5622,3.5532,3.5458,3.5337,3.5198,3.4899,3.4851,3.4707,3.4546,3.4448,3.43,3.4151,3.4101,3.4101,3.4182,3.4408,3.5024,3.5687,3.6125,3.6594,3.7388,3.7695,3.7857,3.8019,3.8165,3.8391,3.8391,3.8391,3.8391,3.8391,3.8391,3.8391,3.8391,3.8391,3.8391,3.8335,3.8164,3.8049,3.7992,3.7918,3.7876,3.7817,3.7817,3.7727,3.751,3.7568,3.7179,3.7036,3.6757,3.6462,3.6261,3.5979,3.5824,3.5894,3.5921,3.5866,3.5841,3.5662,3.5172,3.4743,3.4494,3.423,3.383,3.3398,3.3361,3.3309,3.315,3.3043,3.2935,3.2881,3.2757,3.2594,3.2539,3.2468,3.2135,3.2191,3.2468,3.2523,3.2578,3.2773,3.2843,3.2881,3.3005,3.3112,3.3112,3.3256,3.3309,3.345,3.3607,3.3745,3.3949,3.4101,3.4201,3.4349,3.4497,3.4643,3.4707,3.4804,3.4899,3.4883,3.5041,3.5152,3.5291,3.5429,3.552,3.5594,3.5639,3.5639,3.5639,3.5639,3.5639,3.5639,3.5639,3.5639,3.5639,3.5594,3.5503,3.5337,3.5308,3.5198,3.4947,3.4899,3.4787,3.4497,3.448,3.4349,3.4201,3.4101,3.4101,3.4101,3.4165,3.4586,3.5153,3.5364,3.5639,3.627,3.6805,3.7226,3.7452,3.7841,3.8165,3.8359,3.8391,3.8391,3.8391,3.8391,3.8391,3.8391,3.8391,3.8391,3.8391,3.8294,3.8221,3.8237,3.8107,3.8049,3.7992,3.7992,3.7934,3.7918,3.7934,3.7886,3.7726,3.7607,3.7335,3.7247,3.7028,3.6987,3.7041,3.6799,3.6759,3.6682,3.6656,3.6179,3.5603,3.521,3.4781,3.4073,3.3658,3.3607,3.3555,3.3398,3.3293,3.3203,3.3043,3.292,3.2812,3.2648,3.2523,3.1996,3.2191,3.2247,3.2302,3.2453,3.2594,3.2648,3.2703,3.2843,3.3005,3.3096,3.3096,3.3203,3.3361,3.345,3.3642,3.3848,3.4,3.4101,3.425,3.4399,3.4497,3.4659,3.4756,3.4787,3.4899,3.5041,3.5152,3.5291,3.5446,3.552,3.5594,3.5577,3.5577,3.5594,3.5639,3.5577,3.5639,3.5639,3.5639,3.5639,3.5594,3.5503,3.5354,3.5308,3.5152,3.4994,3.4899,3.4804,3.4546,3.4497,3.4349,3.4151,3.4101,3.4101,3.4101,3.4101,3.4408,3.4926,3.5121,3.5558,3.6125,3.6384,3.6772,3.7145,3.7485,3.7873,3.8262,3.8391,3.8391,3.8391,3.8391,3.8391,3.8391,3.8391,3.8391,3.8391,3.8391,3.8335,3.8351,3.8278,3.8221,3.8164,3.8107,3.8107,3.8107,3.8107,3.8107,3.8026,3.8051,3.8052,3.8092,3.8125,3.8188,3.8244,3.7824,3.7609,3.7494,3.7351,3.6973,3.643,3.5822,3.5279,3.4781,3.4156,3.3797,3.3745,3.3642,3.3503,3.3398,3.324,3.3134,3.292,3.2773,3.2578,3.1883,3.2094,3.2135,3.2302,3.2398,3.2453,3.2508,3.2508,3.2664,3.2843,3.3005,3.3058,3.315,3.3293,3.345,3.3607,3.3745,3.3899,3.3949,3.4101,3.425,3.4349,3.4546,3.4643,3.4739,3.4835,3.4994,3.5105,3.5198,3.5337,3.5429,3.5412,3.5458,3.5458,3.5549,3.5566,3.5549,3.5594,3.5622,3.5639,3.5622,3.5622,3.5503,3.5383,3.5308,3.5135,3.4947,3.4899,3.4804,3.4546,3.448,3.4333,3.4201,3.4101,3.4101,3.4101,3.4101,3.4214,3.4554,3.4619,3.4797,3.5088,3.5477,3.606,3.6675,3.7128,3.763,3.8181,3.8391,3.8391,3.8391,3.8391,3.8391,3.8391,3.8408,3.8408,3.8391,3.8391,3.8391,3.8391,3.8335,3.8335,3.8351,3.8294,3.8221,3.8221,3.8221,3.8278,3.8294,3.8335,3.8391,3.8448,3.8432,3.8583,3.8655,3.851,3.8311,3.8229,3.815,3.7719,3.7373,3.6845,3.6315,3.5834,3.5159,3.4374,3.3915,3.3829,3.371,3.3555,3.345,3.3293,3.3096,3.2881,3.2687,3.1826,3.1996,3.2094,3.2247,3.2342,3.2398,3.2398,3.2398,3.2523,3.2648,3.2843,3.3005,3.315,3.324,3.3398,3.3503,3.3658,3.3745,3.3797,3.3915,3.4101,3.425,3.4349,3.4497,3.4643,3.4739,3.4835,3.5041,3.5135,3.5245,3.5308,3.5354,3.5308,3.5354,3.5429,3.5492,3.552,3.5549,3.5605,3.5639,3.5622,3.5577,3.5503,3.5354,3.5291,3.5135,3.4947,3.4851,3.4756,3.4562,3.4448,3.4349,3.4151,3.4101,3.4101,3.4101,3.4101,3.4101,3.4117,3.4149,3.4246,3.4376,3.4683,3.5299,3.6092,3.6821,3.7614,3.827,3.8448,3.8448,3.8488,3.8504,3.8504,3.8504,3.8448,3.8464,3.8464,3.8448,3.8391,3.8391,3.8391,3.8408,3.8351,3.8351,3.8335,3.8335,3.8335,3.8335,3.8335,3.8335,3.8408,3.852,3.856,3.8711,3.8821,3.8985,3.8863,3.8851,3.8801,3.8586,3.8269,3.7989,3.7423,3.6741,3.5901,3.5145,3.4586,3.403,3.3864,3.3761,3.3607,3.345,3.3203,3.2989,3.2827,3.1655,3.1841,3.1996,3.2094,3.2247,3.2342,3.2398,3.2398,3.2453,3.2508,3.2648,3.2827,3.3005,3.315,3.3256,3.3398,3.3487,3.3539,3.3658,3.3761,3.3899,3.405,3.4151,3.4267,3.4497,3.4594,3.4691,3.4899,3.5041,3.5198,3.5308,3.5291,3.5261,3.5308,3.5337,3.54,3.5492,3.552,3.5549,3.5594,3.5594,3.552,3.5429,3.5291,3.5198,3.5058,3.4883,3.4787,3.4643,3.4497,3.4399,3.425,3.4151,3.4101,3.4101,3.4101,3.4101,3.4101,3.4101,3.4101,3.4101,3.4101,3.4262,3.4651,3.559,3.6675,3.767,3.8479,3.856,3.86,3.8694,3.8694,3.875,3.8711,3.86,3.8576,3.8576,3.8448,3.8391,3.8391,3.8391,3.8391,3.8408,3.8408,3.8391,3.8391,3.8391,3.8391,3.8391,3.8391,3.8464,3.852,3.8672,3.875,3.8931,3.9094,3.9218,3.9288,3.9255,3.9206,3.8904,3.8537,3.8305,3.7607,3.6779,3.6084,3.5619,3.5026,3.429,3.3915,3.3745,3.3555,3.3309,3.315,3.2989,3.1554,3.1784,3.1841,3.1981,3.2206,3.2247,3.2342,3.2398,3.2398,3.2453,3.2594,3.2703,3.2881,3.3096,3.3272,3.3309,3.3398,3.345,3.3555,3.3591,3.3694,3.3848,3.4,3.4101,3.43,3.4448,3.4546,3.4691,3.4899,3.4994,3.5105,3.5105,3.5105,3.5105,3.5198,3.5245,3.5291,3.5383,3.5429,3.5429,3.5429,3.5383,3.5337,3.5182,3.5135,3.5041,3.4899,3.4756,3.4643,3.4497,3.4349,3.425,3.4151,3.4101,3.4101,3.4101,3.4101,3.4101,3.4101,3.4101,3.4101,3.4101,3.4182,3.4651,3.5671,3.6675,3.7653,3.8495,3.8632,3.8672,3.875,3.8805,3.8805,3.875,3.8711,3.8672,3.856,3.8464,3.8391,3.8391,3.8391,3.8391,3.8391,3.8391,3.8391,3.8391,3.8391,3.8391,3.8391,3.8391,3.8464,3.8576,3.8711,3.886,3.8985,3.9164,3.9218,3.9288,3.9288,3.9255,3.9222,3.9007,3.8705,3.8454,3.7821,3.7239,3.6689,3.5682,3.4716,3.4223,3.3848,3.3642,3.345,3.3309,3.3081,3.1424,3.1612,3.1742,3.1883,3.2094,3.2135,3.2247,3.2342,3.2398,3.2468,3.2523,3.2578,3.2757,3.3043,3.315,3.324,3.324,3.3382,3.345,3.3503,3.3591,3.371,3.3797,3.3949,3.4117,3.4267,3.4415,3.4546,3.4643,3.4804,3.4899,3.4899,3.4947,3.4947,3.5041,3.5088,3.5198,3.5308,3.5354,3.5354,3.5308,3.5291,3.5198,3.5105,3.5041,3.5011,3.4851,3.4707,3.4594,3.4448,3.43,3.4201,3.4101,3.4101,3.4101,3.4101,3.4101,3.4101,3.4101,3.4101,3.4101,3.4101,3.4182,3.4586,3.5704,3.6659,3.741,3.8264,3.8606,3.8733,3.886,3.8914,3.8969,3.8931,3.8782,3.8727,3.8616,3.8504,3.8391,3.8391,3.8391,3.8391,3.8391,3.8391,3.8391,3.8391,3.8391,3.8391,3.8391,3.8391,3.8504,3.8616,3.8711,3.886,3.9094,3.9218,3.9288,3.9288,3.9288,3.9272,3.9255,3.9255,3.9123,3.8871,3.8603,3.8048,3.7347,3.6157,3.5091,3.4681,3.422,3.3825,3.3591,3.3398,3.3203,3.1146,3.1205,3.1627,3.1799,3.1841,3.2094,3.2206,3.2247,3.2342,3.2398,3.2453,3.2508,3.2703,3.2881,3.3058,3.3096,3.3096,3.3256,3.3309,3.3346,3.345,3.3503,3.3658,3.3813,3.4,3.4084,3.425,3.4349,3.4497,3.4594,3.4739,3.4899,3.4899,3.4899,3.4947,3.5041,3.5088,3.5198,3.5245,3.5245,3.5245,3.5198,3.5088,3.5041,3.4994,3.4851,3.4691,3.4594,3.4448,3.4333,3.4201,3.4151,3.4101,3.4101,3.4101,3.4101,3.4101,3.4101,3.4101,3.4101,3.4101,3.4101,3.4182,3.4457,3.538,3.5995,3.682,3.7682,3.821,3.875,3.9011,3.9272,3.9148,3.904,3.8876,3.8711,3.86,3.8504,3.8391,3.8391,3.8391,3.8391,3.8391,3.8391,3.8391,3.8391,3.8391,3.8391,3.8391,3.8391,3.8544,3.8655,3.875,3.8914,3.9218,3.9288,3.9288,3.9288,3.9288,3.9288,3.9272,3.9288,3.9288,3.9222,3.8937,3.8463,3.7941,3.6865,3.5893,3.5221,3.471,3.4458,3.3914,3.3509,3.3266,3.0702,3.0821,3.1073,3.1351,3.1625,3.1883,3.2053,3.2191,3.2247,3.2358,3.2398,3.2508,3.2648,3.2773,3.2897,3.2951,3.3005,3.3096,3.315,3.3203,3.3293,3.3398,3.3503,3.3607,3.3745,3.3933,3.405,3.4201,3.4349,3.4448,3.4594,3.4739,3.4835,3.4899,3.4947,3.4947,3.4994,3.5041,3.5105,3.5041,3.5041,3.5011,3.4994,3.4947,3.4851,3.4756,3.4643,3.4497,3.4399,3.43,3.4151,3.4101,3.405,3.405,3.4101,3.4101,3.4101,3.4101,3.4101,3.4101,3.4101,3.4101,3.4149,3.4392,3.504,3.5493,3.6068,3.6878,3.7687,3.8257,3.8451,3.8797,3.9077,3.9023,3.8914,3.8766,3.86,3.8504,3.8391,3.8391,3.8391,3.8391,3.8391,3.8391,3.8391,3.8391,3.8391,3.8391,3.8391,3.8391,3.8544,3.8711,3.875,3.8914,3.9202,3.9272,3.9288,3.9288,3.9288,3.9288,3.9288,3.9288,3.9288,3.9272,3.9218,3.8846,3.8311,3.758,3.68,3.6036,3.5554,3.5287,3.4606,3.3731,3.336,3.0053,3.0201,3.0569,3.1043,3.1437,3.164,3.1826,3.2038,3.2191,3.2287,3.2398,3.2523,3.2523,3.2594,3.2703,3.2773,3.2881,3.3005,3.3112,3.315,3.324,3.3346,3.3414,3.3503,3.3642,3.3797,3.3899,3.405,3.4234,3.43,3.4399,3.4594,3.4739,3.4851,3.4899,3.4899,3.4899,3.4899,3.4899,3.4899,3.4899,3.4899,3.4851,3.4835,3.4756,3.4659,3.4546,3.4399,3.425,3.4151,3.4101,3.4,3.3984,3.3984,3.4034,3.4034,3.405,3.4101,3.4101,3.4101,3.4101,3.4101,3.4101,3.4376,3.4732,3.504,3.5662,3.6092,3.6881,3.7445,3.7653,3.813,3.8508,3.8438,3.8701,3.8616,3.856,3.8504,3.8448,3.8391,3.8391,3.8391,3.8391,3.8391,3.8391,3.8391,3.8391,3.8391,3.8391,3.8448,3.8504,3.8655,3.8766,3.8914,3.9148,3.9202,3.9272,3.9288,3.9288,3.9288,3.9288,3.9288,3.9288,3.9272,3.9272,3.9202,3.876,3.8122,3.7502,3.6815,3.6335,3.5755,3.5,3.4139,3.3609,2.9197,2.9328,3.0158,3.0807,3.1203,3.1422,3.164,3.1826,3.2094,3.2302,3.2382,3.2398,3.2398,3.2453,3.2578,3.2633,3.2703,3.2935,3.3058,3.3112,3.3203,3.3309,3.3346,3.3435,3.3539,3.371,3.3813,3.3949,3.4084,3.4201,3.43,3.4399,3.4594,3.4804,3.4899,3.4899,3.4899,3.4899,3.4899,3.4899,3.4899,3.4899,3.4787,3.4739,3.4659,3.4562,3.4349,3.43,3.4151,3.3949,3.3949,3.3848,3.3813,3.3848,3.3899,3.3899,3.4,3.405,3.4101,3.4101,3.4101,3.4101,3.4101,3.4198,3.4311,3.4667,3.5107,3.5405,3.6111,3.6538,3.6954,3.7367,3.7625,3.7997,3.8313,3.8495,3.8423,3.8448,3.8391,3.8391,3.8391,3.8391,3.8391,3.8391,3.8391,3.8391,3.8391,3.8391,3.8391,3.8391,3.8504,3.856,3.8711,3.8876,3.904,3.9202,3.9272,3.9272,3.9288,3.9288,3.9288,3.9288,3.9288,3.9288,3.9218,3.9148,3.9023,3.8832,3.8139,3.7432,3.6621,3.5959,3.5203,3.4532,3.3969,2.8071,2.8276,2.8606,2.9333,3.025,3.1056,3.1437,3.1625,3.2007,3.2231,3.2302,3.2342,3.2398,3.2453,3.2453,3.2468,3.2508,3.2648,3.2827,3.3005,3.3096,3.3203,3.3293,3.3346,3.345,3.3555,3.371,3.3864,3.3949,3.4101,3.4201,3.4349,3.4546,3.4756,3.4899,3.4899,3.4899,3.4899,3.4899,3.4899,3.4899,3.4787,3.4739,3.4691,3.4546,3.4349,3.4151,3.4101,3.3949,3.3797,3.3761,3.3761,3.371,3.3761,3.3745,3.3761,3.3848,3.3899,3.3949,3.3949,3.3984,3.405,3.4101,3.4101,3.4165,3.4279,3.4491,3.472,3.5307,3.5736,3.5983,3.6538,3.6979,3.7514,3.7828,3.8059,3.8188,3.8311,3.8391,3.8391,3.8391,3.8391,3.8391,3.8391,3.8391,3.8391,3.8391,3.8391,3.8391,3.8391,3.8448,3.8576,3.8672,3.8821,3.8931,3.904,3.9164,3.9218,3.9272,3.9288,3.9288,3.9272,3.9272,3.9218,3.9148,3.9094,3.8914,3.8788,3.8574,3.7961,3.71,3.6313,3.5588,3.4851,3.4165,2.709,2.7351,2.7692,2.828,2.9145,3.025,3.0967,3.1507,3.191,3.2094,3.2135,3.2247,3.2287,3.2287,3.2342,3.2398,3.2382,3.2523,3.2648,3.2827,3.3058,3.315,3.3203,3.3309,3.3398,3.3503,3.3607,3.371,3.3899,3.4016,3.4167,3.43,3.4497,3.4594,3.4739,3.4804,3.4899,3.4899,3.4851,3.4804,3.4787,3.4691,3.4594,3.4431,3.43,3.4167,3.4,3.3848,3.3745,3.3658,3.3607,3.3607,3.3607,3.3607,3.3607,3.3658,3.371,3.3745,3.3797,3.3848,3.3848,3.3915,3.405,3.4101,3.4101,3.4165,3.4149,3.4361,3.472,3.4885,3.5112,3.5698,3.6186,3.6755,3.7254,3.7485,3.7873,3.8035,3.8359,3.8375,3.8391,3.8391,3.8391,3.8391,3.8391,3.8391,3.8391,3.8391,3.8391,3.8391,3.8391,3.852,3.8576,3.8672,3.8766,3.8876,3.8985,3.9094,3.9164,3.9164,3.9094,3.904,3.9094,3.9148,3.904,3.8914,3.8821,3.8694,3.8439,3.8116,3.7519,3.6692,3.5973,3.5122,3.4361,2.6365,2.6519,2.7351,2.7706,2.8022,2.9131,3.0308,3.142,3.1652,3.1838,3.1981,3.1981,3.2094,3.2206,3.2206,3.2302,3.2398,3.2523,3.2578,3.2703,3.2881,3.3043,3.315,3.3203,3.3293,3.345,3.3503,3.3642,3.3848,3.3965,3.405,3.425,3.4349,3.4448,3.4546,3.4707,3.4804,3.4804,3.4804,3.4739,3.4691,3.4546,3.4399,3.425,3.4101,3.3949,3.3813,3.3658,3.3591,3.3503,3.345,3.3398,3.3398,3.3398,3.345,3.3503,3.3607,3.3658,3.3694,3.371,3.3761,3.3813,3.3949,3.405,3.4101,3.4101,3.4101,3.4101,3.4329,3.4214,3.4295,3.4799,3.5253,3.5886,3.6567,3.695,3.742,3.7776,3.8181,3.8343,3.8391,3.8391,3.8391,3.8391,3.8351,3.8294,3.8278,3.8221,3.8278,3.8408,3.8408,3.8408,3.852,3.856,3.8672,3.8782,3.8821,3.8985,3.8914,3.8914,3.886,3.886,3.8914,3.8914,3.8805,3.8694,3.8544,3.8432,3.8375,3.7988,3.748,3.6749,3.5879,3.5138,3.4377,2.5447,2.5588,2.5852,2.6425,2.73,2.844,2.9576,3.0592,3.0851,3.1246,3.1841,3.194,3.1936,3.2053,3.215,3.2191,3.2302,3.2413,3.2523,3.2633,3.2773,3.2881,3.3043,3.3165,3.3256,3.3361,3.345,3.3539,3.3658,3.3761,3.3949,3.4151,3.425,3.43,3.4399,3.4546,3.4594,3.4643,3.4643,3.4594,3.4497,3.4349,3.4201,3.405,3.3899,3.3694,3.3607,3.345,3.3346,3.3256,3.3203,3.3203,3.3203,3.3256,3.3346,3.3361,3.3414,3.3466,3.3555,3.3555,3.3607,3.3658,3.3745,3.3864,3.3949,3.4,3.405,3.405,3.4101,3.4101,3.4101,3.4392,3.4748,3.525,3.5849,3.6287,3.6788,3.742,3.7841,3.8303,3.8335,3.8335,3.8335,3.8294,3.8237,3.8237,3.8164,3.8107,3.8107,3.8237,3.8351,3.8351,3.8408,3.8448,3.8576,3.8632,3.8711,3.8805,3.8694,3.8694,3.8694,3.8694,3.875,3.8694,3.8583,3.8375,3.8091,3.8107,3.8164,3.7809,3.7285,3.6525,3.5784,3.5029,3.4254,2.4892,2.5005,2.5061,2.5674,2.6553,2.7311,2.8219,2.9204,2.9863,3.0537,3.1177,3.1276,3.1626,3.1925,3.1996,3.2094,3.2191,3.2302,3.2413,3.2523,3.2594,3.2703,3.2881,3.3043,3.3165,3.3256,3.3346,3.345,3.3555,3.3761,3.3949,3.4,3.4151,3.4201,3.425,3.4349,3.4399,3.4399,3.4448,3.4464,3.4316,3.4151,3.4,3.3848,3.3642,3.3503,3.3361,3.3203,3.3096,3.3058,3.2989,3.3005,3.3058,3.315,3.3203,3.3256,3.3309,3.3361,3.3398,3.3398,3.345,3.3539,3.3607,3.3658,3.3761,3.3848,3.3949,3.4,3.405,3.4101,3.4101,3.4149,3.4424,3.4716,3.5137,3.5574,3.6238,3.695,3.7526,3.8157,3.8278,3.8221,3.8221,3.8123,3.8065,3.8049,3.8049,3.7992,3.7992,3.8049,3.818,3.8294,3.8278,3.8335,3.8464,3.8464,3.8504,3.8488,3.8375,3.8375,3.8488,3.8432,3.8375,3.8319,3.8262,3.8091,3.7876,3.7934,3.7902,3.7562,3.7144,3.6346,3.5593,3.481,3.4092,2.462,2.4607,2.4878,2.53,2.5798,2.5978,2.6671,2.7636,2.867,2.957,3.0119,3.041,3.0953,3.1456,3.1751,3.194,3.2094,3.215,3.2247,3.2398,3.2468,3.2594,3.2703,3.2881,3.3043,3.3096,3.3256,3.3346,3.3539,3.3694,3.3797,3.3899,3.4,3.4101,3.4151,3.425,3.425,3.4201,3.4201,3.4217,3.4101,3.3949,3.3761,3.3555,3.3346,3.3256,3.3096,3.2989,3.2881,3.2897,3.2897,3.2897,3.2951,3.2989,3.3043,3.3096,3.3203,3.3256,3.3309,3.3309,3.3293,3.3346,3.3414,3.345,3.3607,3.3761,3.3848,3.3915,3.3949,3.3949,3.3949,3.3949,3.4127,3.4272,3.4546,3.4965,3.5481,3.6335,3.7286,3.7778,3.8067,3.8026,3.8049,3.7992,3.795,3.7876,3.7876,3.7817,3.7817,3.7876,3.7992,3.8107,3.8164,3.8164,3.8221,3.8237,3.8221,3.8164,3.8049,3.8049,3.8148,3.8107,3.7934,3.7918,3.7976,3.786,3.7759,3.77,3.7626,3.7429,3.69,3.618,3.5414,3.4698,3.3905,2.462,2.462,2.4892,2.5118,2.5286,2.5729,2.6073,2.6569,2.7142,2.8194,2.9315,2.9974,3.0428,3.081,3.1504,3.1841,3.1898,3.2053,3.2135,3.2191,3.2318,3.2413,3.2578,3.2703,3.2866,3.3043,3.315,3.324,3.3435,3.3591,3.3694,3.3848,3.3949,3.4,3.405,3.4151,3.4101,3.405,3.4,3.4,3.3899,3.3797,3.3607,3.3414,3.3203,3.3043,3.2935,3.2773,3.2703,3.2633,3.2633,3.2773,3.2912,3.2966,3.2951,3.2935,3.3058,3.3165,3.315,3.3203,3.3256,3.324,3.3293,3.3346,3.345,3.3658,3.3761,3.3761,3.3813,3.3797,3.3797,3.3797,3.3797,3.3893,3.4057,3.4442,3.4844,3.5857,3.6878,3.7319,3.7687,3.779,3.7812,3.7817,3.7759,3.77,3.7658,3.7599,3.7599,3.7658,3.7759,3.7876,3.7918,3.7976,3.8049,3.8049,3.7992,3.7992,3.7934,3.7876,3.7876,3.7817,3.7743,3.7685,3.7685,3.7567,3.7464,3.7301,3.7165,3.7178,3.693,3.6291,3.5513,3.4769,3.3902,2.4403,2.4403,2.4593,2.4821,2.5061,2.5453,2.5729,2.6056,2.6394,2.7089,2.8061,2.9171,2.9959,3.0357,3.1183,3.1727,3.1784,3.1913,3.1996,3.2109,3.2206,3.2302,3.2413,3.2523,3.2703,3.2881,3.3043,3.3203,3.3398,3.3503,3.3607,3.3745,3.3761,3.3848,3.3949,3.3949,3.3949,3.3899,3.3848,3.3745,3.3694,3.3555,3.345,3.3203,3.2989,3.2881,3.2757,3.2594,3.2523,3.2523,3.2523,3.2523,3.2648,3.2718,3.2773,3.2827,3.2881,3.3005,3.3058,3.3112,3.3165,3.315,3.3203,3.3203,3.324,3.3398,3.3555,3.3555,3.371,3.3745,3.3745,3.3745,3.3745,3.3793,3.3906,3.4146,3.4579,3.5252,3.6206,3.6876,3.7179,3.7345,3.743,3.7642,3.7599,3.7599,3.7539,3.748,3.748,3.748,3.7599,3.77,3.7759,3.786,3.7934,3.7934,3.7817,3.7817,3.7759,3.7626,3.7567,3.7567,3.7492,3.7449,3.7329,3.721,3.7105,3.6999,3.6999,3.7044,3.6843,3.6473,3.5667,3.4849,3.4048,2.4054,2.4054,2.4203,2.4536,2.4878,2.5104,2.5453,2.5893,2.6125,2.6379,2.6823,2.8276,2.9319,3.011,3.0981,3.1347,3.1655,3.167,3.1769,3.1996,3.2094,3.2206,3.2302,3.2413,3.2523,3.2757,3.2935,3.3096,3.3256,3.3346,3.345,3.3519,3.3607,3.371,3.3694,3.3694,3.3745,3.3761,3.3658,3.3519,3.3414,3.3293,3.3187,3.2973,3.2757,3.2594,3.2523,3.2468,3.2398,3.2398,3.2453,3.2468,3.2453,3.2523,3.2594,3.2648,3.2773,3.2843,3.2897,3.2897,3.2897,3.2951,3.3005,3.3058,3.3096,3.3203,3.3293,3.3398,3.3555,3.3658,3.3642,3.3642,3.3642,3.3658,3.3754,3.3818,3.4249,3.4729,3.5553,3.6365,3.6673,3.6896,3.725,3.7492,3.748,3.748,3.748,3.748,3.748,3.748,3.7539,3.7583,3.7642,3.77,3.7817,3.7759,3.77,3.7658,3.7658,3.7449,3.7329,3.7329,3.7285,3.7121,3.706,3.6952,3.6907,3.6877,3.6877,3.6768,3.6662,3.6338,3.5675,3.4876,3.4217,2.3688,2.3747,2.3982,2.4274,2.4478,2.4878,2.5286,2.5729,2.5893,2.615,2.6673,2.7328,2.8301,2.9251,3.0586,3.1234,3.1424,3.1424,3.1612,3.1841,3.1883,3.2053,3.215,3.2247,3.2413,3.2648,3.2881,3.3096,3.3203,3.3309,3.3398,3.3503,3.3503,3.3607,3.3642,3.3642,3.3607,3.3555,3.345,3.3309,3.3293,3.3187,3.3027,3.285,3.2633,3.2523,3.2468,3.2398,3.2398,3.2398,3.2398,3.2398,3.2398,3.2453,3.2453,3.2523,3.2594,3.2648,3.2718,3.2773,3.2773,3.2843,3.2897,3.2951,3.2951,3.2951,3.3096,3.3203,3.3293,3.3398,3.3398,3.3398,3.3398,3.3398,3.3461,3.3461,3.372,3.4276,3.4936,3.564,3.6242,3.6732,3.7381,3.7464,3.7464,3.7421,3.7421,3.7421,3.7421,3.7421,3.748,3.748,3.7464,3.7539,3.7599,3.7658,3.7599,3.7539,3.748,3.7285,3.7165,3.7105,3.6999,3.6877,3.6754,3.6676,3.6662,3.6383,3.6338,3.6184,3.6306,3.6059,3.5493,3.4941,3.4239]}]]